<?xml version="1.0" encoding="UTF-8" ?>
<gpx version="1.1" xmlns:xsi="http://www.w3.org/2001/XMLSchema-instance" 
    xmlns="http://www.topografix.com/GPX/1/1"
    xsi:schemaLocation="http://www.topografix.com/GPX/1/1 http://www.topografix.com/GPX/1/1/gpx.xsd" 
    creator="Openrunner - https://www.openrunner.com" >	<trk>
	                   <name>ECLA parcours 1 - 15 aout 2025-22197395</name>
						<trkseg>
					<trkpt lat="45.825520" lon="4.608610">
						<ele>229</ele>
						<time>2025-08-13T06:25:38Z</time>
					</trkpt>
					<trkpt lat="45.825520" lon="4.608510">
						<ele>229</ele>
						<time>2025-08-13T06:25:39Z</time>
					</trkpt>
					<trkpt lat="45.825480" lon="4.608420">
						<ele>229</ele>
						<time>2025-08-13T06:25:41Z</time>
					</trkpt>
					<trkpt lat="45.825370" lon="4.608340">
						<ele>230</ele>
						<time>2025-08-13T06:25:43Z</time>
					</trkpt>
					<trkpt lat="45.825300" lon="4.608380">
						<ele>230</ele>
						<time>2025-08-13T06:25:44Z</time>
					</trkpt>
					<trkpt lat="45.823760" lon="4.607050">
						<ele>232</ele>
						<time>2025-08-13T06:26:16Z</time>
					</trkpt>
					<trkpt lat="45.823460" lon="4.606660">
						<ele>233</ele>
						<time>2025-08-13T06:26:23Z</time>
					</trkpt>
					<trkpt lat="45.823440" lon="4.606530">
						<ele>233</ele>
						<time>2025-08-13T06:26:25Z</time>
					</trkpt>
					<trkpt lat="45.823350" lon="4.606510">
						<ele>233</ele>
						<time>2025-08-13T06:26:27Z</time>
					</trkpt>
					<trkpt lat="45.823140" lon="4.605980">
						<ele>233</ele>
						<time>2025-08-13T06:26:34Z</time>
					</trkpt>
					<trkpt lat="45.823120" lon="4.605760">
						<ele>233</ele>
						<time>2025-08-13T06:26:37Z</time>
					</trkpt>
					<trkpt lat="45.823140" lon="4.605460">
						<ele>233</ele>
						<time>2025-08-13T06:26:41Z</time>
					</trkpt>
					<trkpt lat="45.823250" lon="4.605180">
						<ele>233</ele>
						<time>2025-08-13T06:26:45Z</time>
					</trkpt>
					<trkpt lat="45.823330" lon="4.605100">
						<ele>233</ele>
						<time>2025-08-13T06:26:46Z</time>
					</trkpt>
					<trkpt lat="45.823370" lon="4.604880">
						<ele>235</ele>
						<time>2025-08-13T06:26:49Z</time>
					</trkpt>
					<trkpt lat="45.823270" lon="4.604710">
						<ele>238</ele>
						<time>2025-08-13T06:26:52Z</time>
					</trkpt>
					<trkpt lat="45.823140" lon="4.604690">
						<ele>238</ele>
						<time>2025-08-13T06:26:54Z</time>
					</trkpt>
					<trkpt lat="45.822920" lon="4.604860">
						<ele>237</ele>
						<time>2025-08-13T06:26:59Z</time>
					</trkpt>
					<trkpt lat="45.822770" lon="4.604880">
						<ele>237</ele>
						<time>2025-08-13T06:27:01Z</time>
					</trkpt>
					<trkpt lat="45.822670" lon="4.604920">
						<ele>236</ele>
						<time>2025-08-13T06:27:03Z</time>
					</trkpt>
					<trkpt lat="45.822260" lon="4.604950">
						<ele>239</ele>
						<time>2025-08-13T06:27:11Z</time>
					</trkpt>
					<trkpt lat="45.821760" lon="4.605070">
						<ele>243</ele>
						<time>2025-08-13T06:27:20Z</time>
					</trkpt>
					<trkpt lat="45.819850" lon="4.605780">
						<ele>243</ele>
						<time>2025-08-13T06:27:55Z</time>
					</trkpt>
					<trkpt lat="45.819400" lon="4.605850">
						<ele>245</ele>
						<time>2025-08-13T06:28:03Z</time>
					</trkpt>
					<trkpt lat="45.819100" lon="4.605760">
						<ele>246</ele>
						<time>2025-08-13T06:28:08Z</time>
					</trkpt>
					<trkpt lat="45.818820" lon="4.605550">
						<ele>246</ele>
						<time>2025-08-13T06:28:14Z</time>
					</trkpt>
					<trkpt lat="45.818670" lon="4.605330">
						<ele>246</ele>
						<time>2025-08-13T06:28:18Z</time>
					</trkpt>
					<trkpt lat="45.818120" lon="4.604300">
						<ele>244</ele>
						<time>2025-08-13T06:28:34Z</time>
					</trkpt>
					<trkpt lat="45.817950" lon="4.604070">
						<ele>245</ele>
						<time>2025-08-13T06:28:38Z</time>
					</trkpt>
					<trkpt lat="45.817730" lon="4.603850">
						<ele>245</ele>
						<time>2025-08-13T06:28:43Z</time>
					</trkpt>
					<trkpt lat="45.816460" lon="4.603210">
						<ele>242</ele>
						<time>2025-08-13T06:29:07Z</time>
					</trkpt>
					<trkpt lat="45.815310" lon="4.602670">
						<ele>240</ele>
						<time>2025-08-13T06:29:28Z</time>
					</trkpt>
					<trkpt lat="45.813980" lon="4.602180">
						<ele>242</ele>
						<time>2025-08-13T06:29:53Z</time>
					</trkpt>
					<trkpt lat="45.813740" lon="4.602010">
						<ele>243</ele>
						<time>2025-08-13T06:29:57Z</time>
					</trkpt>
					<trkpt lat="45.811810" lon="4.599990">
						<ele>248</ele>
						<time>2025-08-13T06:30:40Z</time>
					</trkpt>
					<trkpt lat="45.811460" lon="4.599800">
						<ele>247</ele>
						<time>2025-08-13T06:30:46Z</time>
					</trkpt>
					<trkpt lat="45.811190" lon="4.599710">
						<ele>245</ele>
						<time>2025-08-13T06:30:51Z</time>
					</trkpt>
					<trkpt lat="45.810800" lon="4.599730">
						<ele>242</ele>
						<time>2025-08-13T06:30:58Z</time>
					</trkpt>
					<trkpt lat="45.810780" lon="4.599750">
						<ele>242</ele>
						<time>2025-08-13T06:30:59Z</time>
					</trkpt>
					<trkpt lat="45.810650" lon="4.599750">
						<ele>242</ele>
						<time>2025-08-13T06:31:01Z</time>
					</trkpt>
					<trkpt lat="45.809640" lon="4.599900">
						<ele>243</ele>
						<time>2025-08-13T06:31:19Z</time>
					</trkpt>
					<trkpt lat="45.809190" lon="4.599820">
						<ele>245</ele>
						<time>2025-08-13T06:31:27Z</time>
					</trkpt>
					<trkpt lat="45.808700" lon="4.599670">
						<ele>248</ele>
						<time>2025-08-13T06:31:36Z</time>
					</trkpt>
					<trkpt lat="45.808290" lon="4.599430">
						<ele>248</ele>
						<time>2025-08-13T06:31:44Z</time>
					</trkpt>
					<trkpt lat="45.806620" lon="4.598190">
						<ele>249</ele>
						<time>2025-08-13T06:32:17Z</time>
					</trkpt>
					<trkpt lat="45.805820" lon="4.597350">
						<ele>248</ele>
						<time>2025-08-13T06:32:35Z</time>
					</trkpt>
					<trkpt lat="45.805690" lon="4.597090">
						<ele>248</ele>
						<time>2025-08-13T06:32:39Z</time>
					</trkpt>
					<trkpt lat="45.805630" lon="4.596900">
						<ele>248</ele>
						<time>2025-08-13T06:32:42Z</time>
					</trkpt>
					<trkpt lat="45.805610" lon="4.596640">
						<ele>246</ele>
						<time>2025-08-13T06:32:45Z</time>
					</trkpt>
					<trkpt lat="45.805690" lon="4.595330">
						<ele>253</ele>
						<time>2025-08-13T06:33:01Z</time>
					</trkpt>
					<trkpt lat="45.805670" lon="4.594950">
						<ele>258</ele>
						<time>2025-08-13T06:33:06Z</time>
					</trkpt>
					<trkpt lat="45.805540" lon="4.594500">
						<ele>261</ele>
						<time>2025-08-13T06:33:12Z</time>
					</trkpt>
					<trkpt lat="45.805390" lon="4.594260">
						<ele>260</ele>
						<time>2025-08-13T06:33:16Z</time>
					</trkpt>
					<trkpt lat="45.804900" lon="4.593680">
						<ele>258</ele>
						<time>2025-08-13T06:33:27Z</time>
					</trkpt>
					<trkpt lat="45.804600" lon="4.593250">
						<ele>259</ele>
						<time>2025-08-13T06:33:35Z</time>
					</trkpt>
					<trkpt lat="45.804300" lon="4.592560">
						<ele>259</ele>
						<time>2025-08-13T06:33:45Z</time>
					</trkpt>
					<trkpt lat="45.803650" lon="4.591620">
						<ele>258</ele>
						<time>2025-08-13T06:34:01Z</time>
					</trkpt>
					<trkpt lat="45.803250" lon="4.591300">
						<ele>258</ele>
						<time>2025-08-13T06:34:09Z</time>
					</trkpt>
					<trkpt lat="45.802880" lon="4.591080">
						<ele>258</ele>
						<time>2025-08-13T06:34:17Z</time>
					</trkpt>
					<trkpt lat="45.801790" lon="4.590590">
						<ele>255</ele>
						<time>2025-08-13T06:34:37Z</time>
					</trkpt>
					<trkpt lat="45.801570" lon="4.590550">
						<ele>255</ele>
						<time>2025-08-13T06:34:41Z</time>
					</trkpt>
					<trkpt lat="45.800860" lon="4.590530">
						<ele>254</ele>
						<time>2025-08-13T06:34:53Z</time>
					</trkpt>
					<trkpt lat="45.800520" lon="4.590420">
						<ele>254</ele>
						<time>2025-08-13T06:35:00Z</time>
					</trkpt>
					<trkpt lat="45.800330" lon="4.590310">
						<ele>254</ele>
						<time>2025-08-13T06:35:03Z</time>
					</trkpt>
					<trkpt lat="45.799380" lon="4.589520">
						<ele>253</ele>
						<time>2025-08-13T06:35:23Z</time>
					</trkpt>
					<trkpt lat="45.799080" lon="4.589240">
						<ele>253</ele>
						<time>2025-08-13T06:35:29Z</time>
					</trkpt>
					<trkpt lat="45.797110" lon="4.587610">
						<ele>263</ele>
						<time>2025-08-13T06:36:10Z</time>
					</trkpt>
					<trkpt lat="45.796510" lon="4.587240">
						<ele>262</ele>
						<time>2025-08-13T06:36:21Z</time>
					</trkpt>
					<trkpt lat="45.795670" lon="4.586900">
						<ele>260</ele>
						<time>2025-08-13T06:36:37Z</time>
					</trkpt>
					<trkpt lat="45.793610" lon="4.586170">
						<ele>268</ele>
						<time>2025-08-13T06:37:15Z</time>
					</trkpt>
					<trkpt lat="45.792470" lon="4.585800">
						<ele>269</ele>
						<time>2025-08-13T06:37:35Z</time>
					</trkpt>
					<trkpt lat="45.791620" lon="4.585680">
						<ele>271</ele>
						<time>2025-08-13T06:37:51Z</time>
					</trkpt>
					<trkpt lat="45.790440" lon="4.585440">
						<ele>269</ele>
						<time>2025-08-13T06:38:12Z</time>
					</trkpt>
					<trkpt lat="45.789560" lon="4.585120">
						<ele>268</ele>
						<time>2025-08-13T06:38:28Z</time>
					</trkpt>
					<trkpt lat="45.789130" lon="4.584900">
						<ele>265</ele>
						<time>2025-08-13T06:38:36Z</time>
					</trkpt>
					<trkpt lat="45.788330" lon="4.584280">
						<ele>258</ele>
						<time>2025-08-13T06:38:52Z</time>
					</trkpt>
					<trkpt lat="45.788200" lon="4.584150">
						<ele>259</ele>
						<time>2025-08-13T06:38:55Z</time>
					</trkpt>
					<trkpt lat="45.787880" lon="4.583720">
						<ele>261</ele>
						<time>2025-08-13T06:39:03Z</time>
					</trkpt>
					<trkpt lat="45.786570" lon="4.581660">
						<ele>263</ele>
						<time>2025-08-13T06:39:37Z</time>
					</trkpt>
					<trkpt lat="45.786170" lon="4.581190">
						<ele>267</ele>
						<time>2025-08-13T06:39:47Z</time>
					</trkpt>
					<trkpt lat="45.785740" lon="4.580810">
						<ele>268</ele>
						<time>2025-08-13T06:39:56Z</time>
					</trkpt>
					<trkpt lat="45.784560" lon="4.579600">
						<ele>270</ele>
						<time>2025-08-13T06:40:21Z</time>
					</trkpt>
					<trkpt lat="45.784190" lon="4.579070">
						<ele>270</ele>
						<time>2025-08-13T06:40:31Z</time>
					</trkpt>
					<trkpt lat="45.783440" lon="4.577540">
						<ele>273</ele>
						<time>2025-08-13T06:40:54Z</time>
					</trkpt>
					<trkpt lat="45.783120" lon="4.576960">
						<ele>275</ele>
						<time>2025-08-13T06:41:03Z</time>
					</trkpt>
					<trkpt lat="45.782880" lon="4.576660">
						<ele>274</ele>
						<time>2025-08-13T06:41:09Z</time>
					</trkpt>
					<trkpt lat="45.782650" lon="4.576430">
						<ele>274</ele>
						<time>2025-08-13T06:41:14Z</time>
					</trkpt>
					<trkpt lat="45.781300" lon="4.575440">
						<ele>276</ele>
						<time>2025-08-13T06:41:41Z</time>
					</trkpt>
					<trkpt lat="45.779150" lon="4.573980">
						<ele>279</ele>
						<time>2025-08-13T06:42:23Z</time>
					</trkpt>
					<trkpt lat="45.778780" lon="4.573660">
						<ele>279</ele>
						<time>2025-08-13T06:42:31Z</time>
					</trkpt>
					<trkpt lat="45.778310" lon="4.573170">
						<ele>279</ele>
						<time>2025-08-13T06:42:41Z</time>
					</trkpt>
					<trkpt lat="45.778210" lon="4.572990">
						<ele>280</ele>
						<time>2025-08-13T06:42:44Z</time>
					</trkpt>
					<trkpt lat="45.777430" lon="4.571990">
						<ele>278</ele>
						<time>2025-08-13T06:43:03Z</time>
					</trkpt>
					<trkpt lat="45.776940" lon="4.571390">
						<ele>280</ele>
						<time>2025-08-13T06:43:14Z</time>
					</trkpt>
					<trkpt lat="45.776100" lon="4.570440">
						<ele>282</ele>
						<time>2025-08-13T06:43:33Z</time>
					</trkpt>
					<trkpt lat="45.775780" lon="4.570140">
						<ele>281</ele>
						<time>2025-08-13T06:43:40Z</time>
					</trkpt>
					<trkpt lat="45.775390" lon="4.569880">
						<ele>282</ele>
						<time>2025-08-13T06:43:48Z</time>
					</trkpt>
					<trkpt lat="45.774920" lon="4.569690">
						<ele>281</ele>
						<time>2025-08-13T06:43:56Z</time>
					</trkpt>
					<trkpt lat="45.774770" lon="4.569560">
						<ele>282</ele>
						<time>2025-08-13T06:43:59Z</time>
					</trkpt>
					<trkpt lat="45.774660" lon="4.569390">
						<ele>283</ele>
						<time>2025-08-13T06:44:02Z</time>
					</trkpt>
					<trkpt lat="45.774450" lon="4.568790">
						<ele>287</ele>
						<time>2025-08-13T06:44:11Z</time>
					</trkpt>
					<trkpt lat="45.774360" lon="4.568700">
						<ele>287</ele>
						<time>2025-08-13T06:44:13Z</time>
					</trkpt>
					<trkpt lat="45.774210" lon="4.568600">
						<ele>286</ele>
						<time>2025-08-13T06:44:16Z</time>
					</trkpt>
					<trkpt lat="45.773980" lon="4.568640">
						<ele>286</ele>
						<time>2025-08-13T06:44:20Z</time>
					</trkpt>
					<trkpt lat="45.773530" lon="4.568870">
						<ele>284</ele>
						<time>2025-08-13T06:44:28Z</time>
					</trkpt>
					<trkpt lat="45.773270" lon="4.568900">
						<ele>284</ele>
						<time>2025-08-13T06:44:33Z</time>
					</trkpt>
					<trkpt lat="45.771530" lon="4.568790">
						<ele>287</ele>
						<time>2025-08-13T06:45:04Z</time>
					</trkpt>
					<trkpt lat="45.771120" lon="4.568680">
						<ele>287</ele>
						<time>2025-08-13T06:45:11Z</time>
					</trkpt>
					<trkpt lat="45.770420" lon="4.568420">
						<ele>289</ele>
						<time>2025-08-13T06:45:24Z</time>
					</trkpt>
					<trkpt lat="45.768160" lon="4.567140">
						<ele>293</ele>
						<time>2025-08-13T06:46:07Z</time>
					</trkpt>
					<trkpt lat="45.768010" lon="4.567030">
						<ele>292</ele>
						<time>2025-08-13T06:46:10Z</time>
					</trkpt>
					<trkpt lat="45.767710" lon="4.566580">
						<ele>293</ele>
						<time>2025-08-13T06:46:18Z</time>
					</trkpt>
					<trkpt lat="45.767540" lon="4.566280">
						<ele>294</ele>
						<time>2025-08-13T06:46:23Z</time>
					</trkpt>
					<trkpt lat="45.767330" lon="4.565810">
						<ele>296</ele>
						<time>2025-08-13T06:46:30Z</time>
					</trkpt>
					<trkpt lat="45.767070" lon="4.565380">
						<ele>298</ele>
						<time>2025-08-13T06:46:37Z</time>
					</trkpt>
					<trkpt lat="45.766150" lon="4.564820">
						<ele>297</ele>
						<time>2025-08-13T06:46:55Z</time>
					</trkpt>
					<trkpt lat="45.765590" lon="4.564240">
						<ele>299</ele>
						<time>2025-08-13T06:47:07Z</time>
					</trkpt>
					<trkpt lat="45.765370" lon="4.564050">
						<ele>299</ele>
						<time>2025-08-13T06:47:11Z</time>
					</trkpt>
					<trkpt lat="45.764940" lon="4.563850">
						<ele>297</ele>
						<time>2025-08-13T06:47:19Z</time>
					</trkpt>
					<trkpt lat="45.764640" lon="4.563660">
						<ele>298</ele>
						<time>2025-08-13T06:47:25Z</time>
					</trkpt>
					<trkpt lat="45.764040" lon="4.563100">
						<ele>300</ele>
						<time>2025-08-13T06:47:38Z</time>
					</trkpt>
					<trkpt lat="45.763740" lon="4.562520">
						<ele>302</ele>
						<time>2025-08-13T06:47:47Z</time>
					</trkpt>
					<trkpt lat="45.763360" lon="4.561620">
						<ele>301</ele>
						<time>2025-08-13T06:48:00Z</time>
					</trkpt>
					<trkpt lat="45.763190" lon="4.561280">
						<ele>306</ele>
						<time>2025-08-13T06:48:05Z</time>
					</trkpt>
					<trkpt lat="45.762950" lon="4.560960">
						<ele>307</ele>
						<time>2025-08-13T06:48:11Z</time>
					</trkpt>
					<trkpt lat="45.762030" lon="4.560080">
						<ele>303</ele>
						<time>2025-08-13T06:48:31Z</time>
					</trkpt>
					<trkpt lat="45.761470" lon="4.559430">
						<ele>303</ele>
						<time>2025-08-13T06:48:44Z</time>
					</trkpt>
					<trkpt lat="45.761100" lon="4.558620">
						<ele>303</ele>
						<time>2025-08-13T06:48:56Z</time>
					</trkpt>
					<trkpt lat="45.760850" lon="4.557870">
						<ele>307</ele>
						<time>2025-08-13T06:49:06Z</time>
					</trkpt>
					<trkpt lat="45.760670" lon="4.557480">
						<ele>310</ele>
						<time>2025-08-13T06:49:12Z</time>
					</trkpt>
					<trkpt lat="45.760250" lon="4.556820">
						<ele>315</ele>
						<time>2025-08-13T06:49:23Z</time>
					</trkpt>
					<trkpt lat="45.759880" lon="4.556450">
						<ele>316</ele>
						<time>2025-08-13T06:49:31Z</time>
					</trkpt>
					<trkpt lat="45.758830" lon="4.555790">
						<ele>311</ele>
						<time>2025-08-13T06:49:51Z</time>
					</trkpt>
					<trkpt lat="45.758340" lon="4.555310">
						<ele>305</ele>
						<time>2025-08-13T06:50:02Z</time>
					</trkpt>
					<trkpt lat="45.756920" lon="4.553580">
						<ele>308</ele>
						<time>2025-08-13T06:50:35Z</time>
					</trkpt>
					<trkpt lat="45.756360" lon="4.552870">
						<ele>308</ele>
						<time>2025-08-13T06:50:48Z</time>
					</trkpt>
					<trkpt lat="45.755440" lon="4.551190">
						<ele>308</ele>
						<time>2025-08-13T06:51:15Z</time>
					</trkpt>
					<trkpt lat="45.755270" lon="4.550810">
						<ele>308</ele>
						<time>2025-08-13T06:51:20Z</time>
					</trkpt>
					<trkpt lat="45.755050" lon="4.550210">
						<ele>312</ele>
						<time>2025-08-13T06:51:29Z</time>
					</trkpt>
					<trkpt lat="45.754800" lon="4.549910">
						<ele>313</ele>
						<time>2025-08-13T06:51:35Z</time>
					</trkpt>
					<trkpt lat="45.754450" lon="4.549670">
						<ele>310</ele>
						<time>2025-08-13T06:51:42Z</time>
					</trkpt>
					<trkpt lat="45.754190" lon="4.549430">
						<ele>309</ele>
						<time>2025-08-13T06:51:47Z</time>
					</trkpt>
					<trkpt lat="45.753850" lon="4.548770">
						<ele>311</ele>
						<time>2025-08-13T06:51:57Z</time>
					</trkpt>
					<trkpt lat="45.753290" lon="4.548230">
						<ele>310</ele>
						<time>2025-08-13T06:52:09Z</time>
					</trkpt>
					<trkpt lat="45.753010" lon="4.548150">
						<ele>309</ele>
						<time>2025-08-13T06:52:14Z</time>
					</trkpt>
					<trkpt lat="45.752630" lon="4.548100">
						<ele>306</ele>
						<time>2025-08-13T06:52:21Z</time>
					</trkpt>
					<trkpt lat="45.752460" lon="4.548000">
						<ele>306</ele>
						<time>2025-08-13T06:52:24Z</time>
					</trkpt>
					<trkpt lat="45.752090" lon="4.547500">
						<ele>307</ele>
						<time>2025-08-13T06:52:33Z</time>
					</trkpt>
					<trkpt lat="45.752280" lon="4.547010">
						<ele>309</ele>
						<time>2025-08-13T06:52:40Z</time>
					</trkpt>
					<trkpt lat="45.752560" lon="4.546710">
						<ele>309</ele>
						<time>2025-08-13T06:52:47Z</time>
					</trkpt>
					<trkpt lat="45.752610" lon="4.546470">
						<ele>312</ele>
						<time>2025-08-13T06:52:50Z</time>
					</trkpt>
					<trkpt lat="45.752560" lon="4.546370">
						<ele>313</ele>
						<time>2025-08-13T06:52:51Z</time>
					</trkpt>
					<trkpt lat="45.752430" lon="4.546280">
						<ele>315</ele>
						<time>2025-08-13T06:52:54Z</time>
					</trkpt>
					<trkpt lat="45.752240" lon="4.546340">
						<ele>315</ele>
						<time>2025-08-13T06:52:57Z</time>
					</trkpt>
					<trkpt lat="45.751860" lon="4.546410">
						<ele>316</ele>
						<time>2025-08-13T06:53:04Z</time>
					</trkpt>
					<trkpt lat="45.751770" lon="4.546370">
						<ele>317</ele>
						<time>2025-08-13T06:53:06Z</time>
					</trkpt>
					<trkpt lat="45.751280" lon="4.545850">
						<ele>321</ele>
						<time>2025-08-13T06:53:17Z</time>
					</trkpt>
					<trkpt lat="45.750910" lon="4.544560">
						<ele>331</ele>
						<time>2025-08-13T06:53:34Z</time>
					</trkpt>
					<trkpt lat="45.750520" lon="4.543770">
						<ele>334</ele>
						<time>2025-08-13T06:53:46Z</time>
					</trkpt>
					<trkpt lat="45.750160" lon="4.542830">
						<ele>339</ele>
						<time>2025-08-13T06:53:59Z</time>
					</trkpt>
					<trkpt lat="45.749990" lon="4.542120">
						<ele>347</ele>
						<time>2025-08-13T06:54:09Z</time>
					</trkpt>
					<trkpt lat="45.750010" lon="4.541920">
						<ele>351</ele>
						<time>2025-08-13T06:54:11Z</time>
					</trkpt>
					<trkpt lat="45.750050" lon="4.541860">
						<ele>352</ele>
						<time>2025-08-13T06:54:12Z</time>
					</trkpt>
					<trkpt lat="45.750160" lon="4.541840">
						<ele>354</ele>
						<time>2025-08-13T06:54:14Z</time>
					</trkpt>
					<trkpt lat="45.750290" lon="4.541920">
						<ele>354</ele>
						<time>2025-08-13T06:54:17Z</time>
					</trkpt>
					<trkpt lat="45.750570" lon="4.542290">
						<ele>354</ele>
						<time>2025-08-13T06:54:23Z</time>
					</trkpt>
					<trkpt lat="45.751190" lon="4.542800">
						<ele>357</ele>
						<time>2025-08-13T06:54:36Z</time>
					</trkpt>
					<trkpt lat="45.751660" lon="4.543080">
						<ele>360</ele>
						<time>2025-08-13T06:54:45Z</time>
					</trkpt>
					<trkpt lat="45.752130" lon="4.543190">
						<ele>362</ele>
						<time>2025-08-13T06:54:54Z</time>
					</trkpt>
					<trkpt lat="45.752520" lon="4.543150">
						<ele>365</ele>
						<time>2025-08-13T06:55:01Z</time>
					</trkpt>
					<trkpt lat="45.752950" lon="4.543000">
						<ele>366</ele>
						<time>2025-08-13T06:55:08Z</time>
					</trkpt>
					<trkpt lat="45.753310" lon="4.542830">
						<ele>368</ele>
						<time>2025-08-13T06:55:15Z</time>
					</trkpt>
					<trkpt lat="45.753510" lon="4.542610">
						<ele>367</ele>
						<time>2025-08-13T06:55:20Z</time>
					</trkpt>
					<trkpt lat="45.753590" lon="4.542400">
						<ele>368</ele>
						<time>2025-08-13T06:55:23Z</time>
					</trkpt>
					<trkpt lat="45.753610" lon="4.541920">
						<ele>372</ele>
						<time>2025-08-13T06:55:29Z</time>
					</trkpt>
					<trkpt lat="45.753680" lon="4.541490">
						<ele>376</ele>
						<time>2025-08-13T06:55:34Z</time>
					</trkpt>
					<trkpt lat="45.753870" lon="4.540870">
						<ele>378</ele>
						<time>2025-08-13T06:55:43Z</time>
					</trkpt>
					<trkpt lat="45.753830" lon="4.540530">
						<ele>380</ele>
						<time>2025-08-13T06:55:47Z</time>
					</trkpt>
					<trkpt lat="45.753720" lon="4.540400">
						<ele>383</ele>
						<time>2025-08-13T06:55:49Z</time>
					</trkpt>
					<trkpt lat="45.753610" lon="4.540340">
						<ele>386</ele>
						<time>2025-08-13T06:55:51Z</time>
					</trkpt>
					<trkpt lat="45.753210" lon="4.540250">
						<ele>392</ele>
						<time>2025-08-13T06:55:59Z</time>
					</trkpt>
					<trkpt lat="45.752540" lon="4.539820">
						<ele>398</ele>
						<time>2025-08-13T06:56:12Z</time>
					</trkpt>
					<trkpt lat="45.752310" lon="4.539610">
						<ele>400</ele>
						<time>2025-08-13T06:56:17Z</time>
					</trkpt>
					<trkpt lat="45.751750" lon="4.538830">
						<ele>408</ele>
						<time>2025-08-13T06:56:30Z</time>
					</trkpt>
					<trkpt lat="45.751550" lon="4.538280">
						<ele>411</ele>
						<time>2025-08-13T06:56:38Z</time>
					</trkpt>
					<trkpt lat="45.751400" lon="4.537610">
						<ele>414</ele>
						<time>2025-08-13T06:56:47Z</time>
					</trkpt>
					<trkpt lat="45.751080" lon="4.536670">
						<ele>414</ele>
						<time>2025-08-13T06:57:00Z</time>
					</trkpt>
					<trkpt lat="45.751130" lon="4.536320">
						<ele>414</ele>
						<time>2025-08-13T06:57:04Z</time>
					</trkpt>
					<trkpt lat="45.751660" lon="4.534840">
						<ele>419</ele>
						<time>2025-08-13T06:57:25Z</time>
					</trkpt>
					<trkpt lat="45.751710" lon="4.534630">
						<ele>419</ele>
						<time>2025-08-13T06:57:28Z</time>
					</trkpt>
					<trkpt lat="45.751730" lon="4.533980">
						<ele>420</ele>
						<time>2025-08-13T06:57:36Z</time>
					</trkpt>
					<trkpt lat="45.751710" lon="4.533810">
						<ele>420</ele>
						<time>2025-08-13T06:57:38Z</time>
					</trkpt>
					<trkpt lat="45.751380" lon="4.533150">
						<ele>418</ele>
						<time>2025-08-13T06:57:48Z</time>
					</trkpt>
					<trkpt lat="45.751340" lon="4.532910">
						<ele>418</ele>
						<time>2025-08-13T06:57:51Z</time>
					</trkpt>
					<trkpt lat="45.751300" lon="4.532610">
						<ele>419</ele>
						<time>2025-08-13T06:57:55Z</time>
					</trkpt>
					<trkpt lat="45.751210" lon="4.530620">
						<ele>418</ele>
						<time>2025-08-13T06:58:20Z</time>
					</trkpt>
					<trkpt lat="45.751170" lon="4.530400">
						<ele>419</ele>
						<time>2025-08-13T06:58:22Z</time>
					</trkpt>
					<trkpt lat="45.750800" lon="4.529500">
						<ele>419</ele>
						<time>2025-08-13T06:58:35Z</time>
					</trkpt>
					<trkpt lat="45.750680" lon="4.529090">
						<ele>421</ele>
						<time>2025-08-13T06:58:41Z</time>
					</trkpt>
					<trkpt lat="45.750630" lon="4.528810">
						<ele>421</ele>
						<time>2025-08-13T06:58:45Z</time>
					</trkpt>
					<trkpt lat="45.750630" lon="4.528510">
						<ele>421</ele>
						<time>2025-08-13T06:58:48Z</time>
					</trkpt>
					<trkpt lat="45.750760" lon="4.527460">
						<ele>426</ele>
						<time>2025-08-13T06:59:01Z</time>
					</trkpt>
					<trkpt lat="45.750720" lon="4.527250">
						<ele>428</ele>
						<time>2025-08-13T06:59:04Z</time>
					</trkpt>
					<trkpt lat="45.750350" lon="4.525940">
						<ele>435</ele>
						<time>2025-08-13T06:59:22Z</time>
					</trkpt>
					<trkpt lat="45.750100" lon="4.525170">
						<ele>437</ele>
						<time>2025-08-13T06:59:32Z</time>
					</trkpt>
					<trkpt lat="45.749690" lon="4.524260">
						<ele>442</ele>
						<time>2025-08-13T06:59:46Z</time>
					</trkpt>
					<trkpt lat="45.749540" lon="4.523000">
						<ele>446</ele>
						<time>2025-08-13T07:00:02Z</time>
					</trkpt>
					<trkpt lat="45.749500" lon="4.522810">
						<ele>447</ele>
						<time>2025-08-13T07:00:04Z</time>
					</trkpt>
					<trkpt lat="45.749390" lon="4.522570">
						<ele>447</ele>
						<time>2025-08-13T07:00:08Z</time>
					</trkpt>
					<trkpt lat="45.749600" lon="4.522180">
						<ele>449</ele>
						<time>2025-08-13T07:00:14Z</time>
					</trkpt>
					<trkpt lat="45.749710" lon="4.521690">
						<ele>452</ele>
						<time>2025-08-13T07:00:20Z</time>
					</trkpt>
					<trkpt lat="45.749920" lon="4.521070">
						<ele>459</ele>
						<time>2025-08-13T07:00:29Z</time>
					</trkpt>
					<trkpt lat="45.750010" lon="4.520340">
						<ele>466</ele>
						<time>2025-08-13T07:00:38Z</time>
					</trkpt>
					<trkpt lat="45.750500" lon="4.517930">
						<ele>488</ele>
						<time>2025-08-13T07:01:09Z</time>
					</trkpt>
					<trkpt lat="45.750570" lon="4.517680">
						<ele>490</ele>
						<time>2025-08-13T07:01:12Z</time>
					</trkpt>
					<trkpt lat="45.751040" lon="4.516880">
						<ele>499</ele>
						<time>2025-08-13T07:01:25Z</time>
					</trkpt>
					<trkpt lat="45.751250" lon="4.516370">
						<ele>503</ele>
						<time>2025-08-13T07:01:33Z</time>
					</trkpt>
					<trkpt lat="45.751380" lon="4.515900">
						<ele>506</ele>
						<time>2025-08-13T07:01:39Z</time>
					</trkpt>
					<trkpt lat="45.751620" lon="4.515300">
						<ele>512</ele>
						<time>2025-08-13T07:01:48Z</time>
					</trkpt>
					<trkpt lat="45.751660" lon="4.515080">
						<ele>513</ele>
						<time>2025-08-13T07:01:50Z</time>
					</trkpt>
					<trkpt lat="45.751620" lon="4.513880">
						<ele>516</ele>
						<time>2025-08-13T07:02:05Z</time>
					</trkpt>
					<trkpt lat="45.751490" lon="4.513040">
						<ele>518</ele>
						<time>2025-08-13T07:02:16Z</time>
					</trkpt>
					<trkpt lat="45.751280" lon="4.512510">
						<ele>519</ele>
						<time>2025-08-13T07:02:24Z</time>
					</trkpt>
					<trkpt lat="45.751060" lon="4.512140">
						<ele>517</ele>
						<time>2025-08-13T07:02:30Z</time>
					</trkpt>
					<trkpt lat="45.750870" lon="4.511930">
						<ele>517</ele>
						<time>2025-08-13T07:02:34Z</time>
					</trkpt>
					<trkpt lat="45.750350" lon="4.511450">
						<ele>518</ele>
						<time>2025-08-13T07:02:45Z</time>
					</trkpt>
					<trkpt lat="45.749580" lon="4.510980">
						<ele>516</ele>
						<time>2025-08-13T07:03:00Z</time>
					</trkpt>
					<trkpt lat="45.749320" lon="4.510750">
						<ele>514</ele>
						<time>2025-08-13T07:03:05Z</time>
					</trkpt>
					<trkpt lat="45.748870" lon="4.510120">
						<ele>513</ele>
						<time>2025-08-13T07:03:16Z</time>
					</trkpt>
					<trkpt lat="45.748720" lon="4.509720">
						<ele>514</ele>
						<time>2025-08-13T07:03:22Z</time>
					</trkpt>
					<trkpt lat="45.748830" lon="4.506930">
						<ele>534</ele>
						<time>2025-08-13T07:03:57Z</time>
					</trkpt>
					<trkpt lat="45.749000" lon="4.505040">
						<ele>544</ele>
						<time>2025-08-13T07:04:20Z</time>
					</trkpt>
					<trkpt lat="45.748980" lon="4.504630">
						<ele>546</ele>
						<time>2025-08-13T07:04:26Z</time>
					</trkpt>
					<trkpt lat="45.748920" lon="4.504290">
						<ele>548</ele>
						<time>2025-08-13T07:04:30Z</time>
					</trkpt>
					<trkpt lat="45.748510" lon="4.503040">
						<ele>552</ele>
						<time>2025-08-13T07:04:47Z</time>
					</trkpt>
					<trkpt lat="45.748250" lon="4.502330">
						<ele>554</ele>
						<time>2025-08-13T07:04:57Z</time>
					</trkpt>
					<trkpt lat="45.747650" lon="4.500900">
						<ele>556</ele>
						<time>2025-08-13T07:05:18Z</time>
					</trkpt>
					<trkpt lat="45.747110" lon="4.499090">
						<ele>555</ele>
						<time>2025-08-13T07:05:42Z</time>
					</trkpt>
					<trkpt lat="45.746980" lon="4.498750">
						<ele>556</ele>
						<time>2025-08-13T07:05:47Z</time>
					</trkpt>
					<trkpt lat="45.746710" lon="4.498190">
						<ele>556</ele>
						<time>2025-08-13T07:05:55Z</time>
					</trkpt>
					<trkpt lat="45.745740" lon="4.496540">
						<ele>556</ele>
						<time>2025-08-13T07:06:22Z</time>
					</trkpt>
					<trkpt lat="45.745550" lon="4.496070">
						<ele>557</ele>
						<time>2025-08-13T07:06:29Z</time>
					</trkpt>
					<trkpt lat="45.745290" lon="4.495170">
						<ele>555</ele>
						<time>2025-08-13T07:06:41Z</time>
					</trkpt>
					<trkpt lat="45.745200" lon="4.494670">
						<ele>553</ele>
						<time>2025-08-13T07:06:47Z</time>
					</trkpt>
					<trkpt lat="45.744620" lon="4.489610">
						<ele>530</ele>
						<time>2025-08-13T07:07:51Z</time>
					</trkpt>
					<trkpt lat="45.744540" lon="4.487010">
						<ele>528</ele>
						<time>2025-08-13T07:08:23Z</time>
					</trkpt>
					<trkpt lat="45.744390" lon="4.485980">
						<ele>530</ele>
						<time>2025-08-13T07:08:36Z</time>
					</trkpt>
					<trkpt lat="45.743680" lon="4.484070">
						<ele>545</ele>
						<time>2025-08-13T07:09:03Z</time>
					</trkpt>
					<trkpt lat="45.743660" lon="4.483950">
						<ele>546</ele>
						<time>2025-08-13T07:09:05Z</time>
					</trkpt>
					<trkpt lat="45.743720" lon="4.482680">
						<ele>553</ele>
						<time>2025-08-13T07:09:21Z</time>
					</trkpt>
					<trkpt lat="45.743850" lon="4.482310">
						<ele>556</ele>
						<time>2025-08-13T07:09:26Z</time>
					</trkpt>
					<trkpt lat="45.743940" lon="4.482140">
						<ele>557</ele>
						<time>2025-08-13T07:09:28Z</time>
					</trkpt>
					<trkpt lat="45.744190" lon="4.481800">
						<ele>560</ele>
						<time>2025-08-13T07:09:35Z</time>
					</trkpt>
					<trkpt lat="45.746000" lon="4.479780">
						<ele>565</ele>
						<time>2025-08-13T07:10:15Z</time>
					</trkpt>
					<trkpt lat="45.746230" lon="4.479370">
						<ele>565</ele>
						<time>2025-08-13T07:10:22Z</time>
					</trkpt>
					<trkpt lat="45.746770" lon="4.478130">
						<ele>566</ele>
						<time>2025-08-13T07:10:40Z</time>
					</trkpt>
					<trkpt lat="45.747070" lon="4.477380">
						<ele>567</ele>
						<time>2025-08-13T07:10:51Z</time>
					</trkpt>
					<trkpt lat="45.747370" lon="4.476760">
						<ele>568</ele>
						<time>2025-08-13T07:11:00Z</time>
					</trkpt>
					<trkpt lat="45.747520" lon="4.476520">
						<ele>569</ele>
						<time>2025-08-13T07:11:04Z</time>
					</trkpt>
					<trkpt lat="45.747860" lon="4.475770">
						<ele>571</ele>
						<time>2025-08-13T07:11:15Z</time>
					</trkpt>
					<trkpt lat="45.748570" lon="4.474700">
						<ele>572</ele>
						<time>2025-08-13T07:11:34Z</time>
					</trkpt>
					<trkpt lat="45.748830" lon="4.474350">
						<ele>571</ele>
						<time>2025-08-13T07:11:40Z</time>
					</trkpt>
					<trkpt lat="45.749260" lon="4.473540">
						<ele>569</ele>
						<time>2025-08-13T07:11:53Z</time>
					</trkpt>
					<trkpt lat="45.750030" lon="4.471260">
						<ele>573</ele>
						<time>2025-08-13T07:12:24Z</time>
					</trkpt>
					<trkpt lat="45.750200" lon="4.470980">
						<ele>574</ele>
						<time>2025-08-13T07:12:29Z</time>
					</trkpt>
					<trkpt lat="45.751490" lon="4.469720">
						<ele>580</ele>
						<time>2025-08-13T07:12:56Z</time>
					</trkpt>
					<trkpt lat="45.751730" lon="4.469610">
						<ele>581</ele>
						<time>2025-08-13T07:13:01Z</time>
					</trkpt>
					<trkpt lat="45.752220" lon="4.469480">
						<ele>581</ele>
						<time>2025-08-13T07:13:10Z</time>
					</trkpt>
					<trkpt lat="45.753490" lon="4.469630">
						<ele>587</ele>
						<time>2025-08-13T07:13:33Z</time>
					</trkpt>
					<trkpt lat="45.753490" lon="4.469270">
						<ele>587</ele>
						<time>2025-08-13T07:13:37Z</time>
					</trkpt>
					<trkpt lat="45.753570" lon="4.468600">
						<ele>589</ele>
						<time>2025-08-13T07:13:45Z</time>
					</trkpt>
					<trkpt lat="45.754090" lon="4.467530">
						<ele>593</ele>
						<time>2025-08-13T07:14:02Z</time>
					</trkpt>
					<trkpt lat="45.754430" lon="4.467080">
						<ele>596</ele>
						<time>2025-08-13T07:14:10Z</time>
					</trkpt>
					<trkpt lat="45.754920" lon="4.466630">
						<ele>599</ele>
						<time>2025-08-13T07:14:20Z</time>
					</trkpt>
					<trkpt lat="45.755140" lon="4.466540">
						<ele>599</ele>
						<time>2025-08-13T07:14:24Z</time>
					</trkpt>
					<trkpt lat="45.755310" lon="4.466350">
						<ele>599</ele>
						<time>2025-08-13T07:14:28Z</time>
					</trkpt>
					<trkpt lat="45.755780" lon="4.465640">
						<ele>599</ele>
						<time>2025-08-13T07:14:40Z</time>
					</trkpt>
					<trkpt lat="45.755930" lon="4.465320">
						<ele>599</ele>
						<time>2025-08-13T07:14:45Z</time>
					</trkpt>
					<trkpt lat="45.756000" lon="4.465130">
						<ele>600</ele>
						<time>2025-08-13T07:14:48Z</time>
					</trkpt>
					<trkpt lat="45.755800" lon="4.464760">
						<ele>603</ele>
						<time>2025-08-13T07:14:54Z</time>
					</trkpt>
					<trkpt lat="45.755760" lon="4.464590">
						<ele>604</ele>
						<time>2025-08-13T07:14:56Z</time>
					</trkpt>
					<trkpt lat="45.755760" lon="4.464330">
						<ele>605</ele>
						<time>2025-08-13T07:14:59Z</time>
					</trkpt>
					<trkpt lat="45.755720" lon="4.464050">
						<ele>606</ele>
						<time>2025-08-13T07:15:03Z</time>
					</trkpt>
					<trkpt lat="45.755100" lon="4.463540">
						<ele>611</ele>
						<time>2025-08-13T07:15:15Z</time>
					</trkpt>
					<trkpt lat="45.754900" lon="4.463450">
						<ele>611</ele>
						<time>2025-08-13T07:15:19Z</time>
					</trkpt>
					<trkpt lat="45.752910" lon="4.461800">
						<ele>616</ele>
						<time>2025-08-13T07:16:00Z</time>
					</trkpt>
					<trkpt lat="45.752650" lon="4.461390">
						<ele>620</ele>
						<time>2025-08-13T07:16:07Z</time>
					</trkpt>
					<trkpt lat="45.752130" lon="4.460790">
						<ele>629</ele>
						<time>2025-08-13T07:16:19Z</time>
					</trkpt>
					<trkpt lat="45.751640" lon="4.460600">
						<ele>634</ele>
						<time>2025-08-13T07:16:28Z</time>
					</trkpt>
					<trkpt lat="45.751080" lon="4.460490">
						<ele>638</ele>
						<time>2025-08-13T07:16:38Z</time>
					</trkpt>
					<trkpt lat="45.750630" lon="4.460580">
						<ele>642</ele>
						<time>2025-08-13T07:16:46Z</time>
					</trkpt>
					<trkpt lat="45.749840" lon="4.460840">
						<ele>645</ele>
						<time>2025-08-13T07:17:00Z</time>
					</trkpt>
					<trkpt lat="45.749540" lon="4.460860">
						<ele>645</ele>
						<time>2025-08-13T07:17:06Z</time>
					</trkpt>
					<trkpt lat="45.749130" lon="4.460790">
						<ele>646</ele>
						<time>2025-08-13T07:17:13Z</time>
					</trkpt>
					<trkpt lat="45.747860" lon="4.460770">
						<ele>652</ele>
						<time>2025-08-13T07:17:36Z</time>
					</trkpt>
					<trkpt lat="45.747520" lon="4.460690">
						<ele>653</ele>
						<time>2025-08-13T07:17:42Z</time>
					</trkpt>
					<trkpt lat="45.747440" lon="4.460580">
						<ele>653</ele>
						<time>2025-08-13T07:17:44Z</time>
					</trkpt>
					<trkpt lat="45.747410" lon="4.460450">
						<ele>654</ele>
						<time>2025-08-13T07:17:45Z</time>
					</trkpt>
					<trkpt lat="45.745890" lon="4.460410">
						<ele>654</ele>
						<time>2025-08-13T07:18:12Z</time>
					</trkpt>
					<trkpt lat="45.745200" lon="4.460540">
						<ele>659</ele>
						<time>2025-08-13T07:18:25Z</time>
					</trkpt>
					<trkpt lat="45.744110" lon="4.460920">
						<ele>663</ele>
						<time>2025-08-13T07:18:45Z</time>
					</trkpt>
					<trkpt lat="45.743830" lon="4.461050">
						<ele>661</ele>
						<time>2025-08-13T07:18:50Z</time>
					</trkpt>
					<trkpt lat="45.743640" lon="4.461180">
						<ele>661</ele>
						<time>2025-08-13T07:18:54Z</time>
					</trkpt>
					<trkpt lat="45.743470" lon="4.461240">
						<ele>660</ele>
						<time>2025-08-13T07:18:57Z</time>
					</trkpt>
					<trkpt lat="45.743340" lon="4.461390">
						<ele>660</ele>
						<time>2025-08-13T07:19:00Z</time>
					</trkpt>
					<trkpt lat="45.741040" lon="4.463020">
						<ele>646</ele>
						<time>2025-08-13T07:19:45Z</time>
					</trkpt>
					<trkpt lat="45.740610" lon="4.463300">
						<ele>645</ele>
						<time>2025-08-13T07:19:54Z</time>
					</trkpt>
					<trkpt lat="45.740460" lon="4.463370">
						<ele>645</ele>
						<time>2025-08-13T07:19:57Z</time>
					</trkpt>
					<trkpt lat="45.738900" lon="4.463240">
						<ele>637</ele>
						<time>2025-08-13T07:20:24Z</time>
					</trkpt>
					<trkpt lat="45.738550" lon="4.463260">
						<ele>636</ele>
						<time>2025-08-13T07:20:31Z</time>
					</trkpt>
					<trkpt lat="45.738550" lon="4.463000">
						<ele>635</ele>
						<time>2025-08-13T07:20:34Z</time>
					</trkpt>
					<trkpt lat="45.739170" lon="4.461090">
						<ele>629</ele>
						<time>2025-08-13T07:21:00Z</time>
					</trkpt>
					<trkpt lat="45.738790" lon="4.460110">
						<ele>619</ele>
						<time>2025-08-13T07:21:14Z</time>
					</trkpt>
					<trkpt lat="45.738790" lon="4.459270">
						<ele>612</ele>
						<time>2025-08-13T07:21:24Z</time>
					</trkpt>
					<trkpt lat="45.738830" lon="4.458880">
						<ele>610</ele>
						<time>2025-08-13T07:21:29Z</time>
					</trkpt>
					<trkpt lat="45.739000" lon="4.458220">
						<ele>609</ele>
						<time>2025-08-13T07:21:38Z</time>
					</trkpt>
					<trkpt lat="45.739000" lon="4.458050">
						<ele>608</ele>
						<time>2025-08-13T07:21:40Z</time>
					</trkpt>
					<trkpt lat="45.738960" lon="4.457770">
						<ele>607</ele>
						<time>2025-08-13T07:21:44Z</time>
					</trkpt>
					<trkpt lat="45.739500" lon="4.456970">
						<ele>607</ele>
						<time>2025-08-13T07:21:58Z</time>
					</trkpt>
					<trkpt lat="45.739670" lon="4.456650">
						<ele>607</ele>
						<time>2025-08-13T07:22:03Z</time>
					</trkpt>
					<trkpt lat="45.739840" lon="4.456140">
						<ele>611</ele>
						<time>2025-08-13T07:22:10Z</time>
					</trkpt>
					<trkpt lat="45.739990" lon="4.455340">
						<ele>615</ele>
						<time>2025-08-13T07:22:20Z</time>
					</trkpt>
					<trkpt lat="45.739860" lon="4.454890">
						<ele>616</ele>
						<time>2025-08-13T07:22:26Z</time>
					</trkpt>
					<trkpt lat="45.739600" lon="4.454510">
						<ele>617</ele>
						<time>2025-08-13T07:22:32Z</time>
					</trkpt>
					<trkpt lat="45.739500" lon="4.454230">
						<ele>618</ele>
						<time>2025-08-13T07:22:36Z</time>
					</trkpt>
					<trkpt lat="45.739150" lon="4.453970">
						<ele>618</ele>
						<time>2025-08-13T07:22:43Z</time>
					</trkpt>
					<trkpt lat="45.738770" lon="4.453730">
						<ele>620</ele>
						<time>2025-08-13T07:22:51Z</time>
					</trkpt>
					<trkpt lat="45.738170" lon="4.453450">
						<ele>623</ele>
						<time>2025-08-13T07:23:02Z</time>
					</trkpt>
					<trkpt lat="45.736380" lon="4.453300">
						<ele>627</ele>
						<time>2025-08-13T07:23:34Z</time>
					</trkpt>
					<trkpt lat="45.735570" lon="4.453200">
						<ele>624</ele>
						<time>2025-08-13T07:23:48Z</time>
					</trkpt>
					<trkpt lat="45.733940" lon="4.452640">
						<ele>635</ele>
						<time>2025-08-13T07:24:18Z</time>
					</trkpt>
					<trkpt lat="45.733570" lon="4.452680">
						<ele>636</ele>
						<time>2025-08-13T07:24:25Z</time>
					</trkpt>
					<trkpt lat="45.733080" lon="4.452830">
						<ele>634</ele>
						<time>2025-08-13T07:24:34Z</time>
					</trkpt>
					<trkpt lat="45.732930" lon="4.452900">
						<ele>633</ele>
						<time>2025-08-13T07:24:37Z</time>
					</trkpt>
					<trkpt lat="45.732260" lon="4.452620">
						<ele>635</ele>
						<time>2025-08-13T07:24:49Z</time>
					</trkpt>
					<trkpt lat="45.732050" lon="4.452450">
						<ele>636</ele>
						<time>2025-08-13T07:24:53Z</time>
					</trkpt>
					<trkpt lat="45.731690" lon="4.451650">
						<ele>643</ele>
						<time>2025-08-13T07:25:05Z</time>
					</trkpt>
					<trkpt lat="45.731470" lon="4.451610">
						<ele>645</ele>
						<time>2025-08-13T07:25:09Z</time>
					</trkpt>
					<trkpt lat="45.729200" lon="4.453090">
						<ele>655</ele>
						<time>2025-08-13T07:25:53Z</time>
					</trkpt>
					<trkpt lat="45.729070" lon="4.453220">
						<ele>656</ele>
						<time>2025-08-13T07:25:56Z</time>
					</trkpt>
					<trkpt lat="45.728960" lon="4.453520">
						<ele>656</ele>
						<time>2025-08-13T07:26:00Z</time>
					</trkpt>
					<trkpt lat="45.728570" lon="4.454980">
						<ele>654</ele>
						<time>2025-08-13T07:26:20Z</time>
					</trkpt>
					<trkpt lat="45.728360" lon="4.455040">
						<ele>656</ele>
						<time>2025-08-13T07:26:24Z</time>
					</trkpt>
					<trkpt lat="45.726640" lon="4.455080">
						<ele>654</ele>
						<time>2025-08-13T07:26:54Z</time>
					</trkpt>
					<trkpt lat="45.726150" lon="4.454930">
						<ele>652</ele>
						<time>2025-08-13T07:27:03Z</time>
					</trkpt>
					<trkpt lat="45.725660" lon="4.454530">
						<ele>652</ele>
						<time>2025-08-13T07:27:13Z</time>
					</trkpt>
					<trkpt lat="45.725100" lon="4.454420">
						<ele>648</ele>
						<time>2025-08-13T07:27:23Z</time>
					</trkpt>
					<trkpt lat="45.724710" lon="4.454270">
						<ele>646</ele>
						<time>2025-08-13T07:27:30Z</time>
					</trkpt>
					<trkpt lat="45.724430" lon="4.453930">
						<ele>645</ele>
						<time>2025-08-13T07:27:37Z</time>
					</trkpt>
					<trkpt lat="45.724260" lon="4.453540">
						<ele>644</ele>
						<time>2025-08-13T07:27:43Z</time>
					</trkpt>
					<trkpt lat="45.723980" lon="4.452450">
						<ele>638</ele>
						<time>2025-08-13T07:27:57Z</time>
					</trkpt>
					<trkpt lat="45.723870" lon="4.452270">
						<ele>636</ele>
						<time>2025-08-13T07:28:00Z</time>
					</trkpt>
					<trkpt lat="45.723300" lon="4.451690">
						<ele>629</ele>
						<time>2025-08-13T07:28:13Z</time>
					</trkpt>
					<trkpt lat="45.722180" lon="4.451160">
						<ele>622</ele>
						<time>2025-08-13T07:28:34Z</time>
					</trkpt>
					<trkpt lat="45.721660" lon="4.450640">
						<ele>620</ele>
						<time>2025-08-13T07:28:45Z</time>
					</trkpt>
					<trkpt lat="45.721510" lon="4.450560">
						<ele>620</ele>
						<time>2025-08-13T07:28:48Z</time>
					</trkpt>
					<trkpt lat="45.720850" lon="4.450470">
						<ele>617</ele>
						<time>2025-08-13T07:28:59Z</time>
					</trkpt>
					<trkpt lat="45.720630" lon="4.450320">
						<ele>616</ele>
						<time>2025-08-13T07:29:04Z</time>
					</trkpt>
					<trkpt lat="45.720360" lon="4.449810">
						<ele>617</ele>
						<time>2025-08-13T07:29:12Z</time>
					</trkpt>
					<trkpt lat="45.720270" lon="4.449700">
						<ele>616</ele>
						<time>2025-08-13T07:29:14Z</time>
					</trkpt>
					<trkpt lat="45.720140" lon="4.449660">
						<ele>616</ele>
						<time>2025-08-13T07:29:16Z</time>
					</trkpt>
					<trkpt lat="45.719630" lon="4.449740">
						<ele>616</ele>
						<time>2025-08-13T07:29:25Z</time>
					</trkpt>
					<trkpt lat="45.719070" lon="4.449980">
						<ele>617</ele>
						<time>2025-08-13T07:29:36Z</time>
					</trkpt>
					<trkpt lat="45.718900" lon="4.450110">
						<ele>616</ele>
						<time>2025-08-13T07:29:39Z</time>
					</trkpt>
					<trkpt lat="45.718360" lon="4.450170">
						<ele>614</ele>
						<time>2025-08-13T07:29:49Z</time>
					</trkpt>
					<trkpt lat="45.718120" lon="4.450260">
						<ele>612</ele>
						<time>2025-08-13T07:29:53Z</time>
					</trkpt>
					<trkpt lat="45.717950" lon="4.450360">
						<ele>611</ele>
						<time>2025-08-13T07:29:56Z</time>
					</trkpt>
					<trkpt lat="45.717760" lon="4.450580">
						<ele>610</ele>
						<time>2025-08-13T07:30:01Z</time>
					</trkpt>
					<trkpt lat="45.717500" lon="4.450940">
						<ele>609</ele>
						<time>2025-08-13T07:30:07Z</time>
					</trkpt>
					<trkpt lat="45.717270" lon="4.451140">
						<ele>609</ele>
						<time>2025-08-13T07:30:12Z</time>
					</trkpt>
					<trkpt lat="45.717050" lon="4.451270">
						<ele>610</ele>
						<time>2025-08-13T07:30:16Z</time>
					</trkpt>
					<trkpt lat="45.716640" lon="4.451290">
						<ele>609</ele>
						<time>2025-08-13T07:30:24Z</time>
					</trkpt>
					<trkpt lat="45.716300" lon="4.451220">
						<ele>611</ele>
						<time>2025-08-13T07:30:30Z</time>
					</trkpt>
					<trkpt lat="45.715660" lon="4.450900">
						<ele>613</ele>
						<time>2025-08-13T07:30:42Z</time>
					</trkpt>
					<trkpt lat="45.715360" lon="4.450900">
						<ele>613</ele>
						<time>2025-08-13T07:30:47Z</time>
					</trkpt>
					<trkpt lat="45.714930" lon="4.450770">
						<ele>611</ele>
						<time>2025-08-13T07:30:55Z</time>
					</trkpt>
					<trkpt lat="45.713880" lon="4.450320">
						<ele>603</ele>
						<time>2025-08-13T07:31:14Z</time>
					</trkpt>
					<trkpt lat="45.712140" lon="4.449440">
						<ele>595</ele>
						<time>2025-08-13T07:31:47Z</time>
					</trkpt>
					<trkpt lat="45.711620" lon="4.449080">
						<ele>593</ele>
						<time>2025-08-13T07:31:58Z</time>
					</trkpt>
					<trkpt lat="45.710460" lon="4.447960">
						<ele>580</ele>
						<time>2025-08-13T07:32:22Z</time>
					</trkpt>
					<trkpt lat="45.710080" lon="4.447680">
						<ele>578</ele>
						<time>2025-08-13T07:32:30Z</time>
					</trkpt>
					<trkpt lat="45.709670" lon="4.447570">
						<ele>576</ele>
						<time>2025-08-13T07:32:37Z</time>
					</trkpt>
					<trkpt lat="45.709130" lon="4.447640">
						<ele>571</ele>
						<time>2025-08-13T07:32:47Z</time>
					</trkpt>
					<trkpt lat="45.708580" lon="4.447810">
						<ele>565</ele>
						<time>2025-08-13T07:32:57Z</time>
					</trkpt>
					<trkpt lat="45.706240" lon="4.448050">
						<ele>531</ele>
						<time>2025-08-13T07:33:39Z</time>
					</trkpt>
					<trkpt lat="45.705420" lon="4.448540">
						<ele>518</ele>
						<time>2025-08-13T07:33:55Z</time>
					</trkpt>
					<trkpt lat="45.705310" lon="4.448630">
						<ele>516</ele>
						<time>2025-08-13T07:33:57Z</time>
					</trkpt>
					<trkpt lat="45.705270" lon="4.448690">
						<ele>515</ele>
						<time>2025-08-13T07:33:58Z</time>
					</trkpt>
					<trkpt lat="45.705250" lon="4.448820">
						<ele>514</ele>
						<time>2025-08-13T07:34:00Z</time>
					</trkpt>
					<trkpt lat="45.705290" lon="4.449080">
						<ele>512</ele>
						<time>2025-08-13T07:34:03Z</time>
					</trkpt>
					<trkpt lat="45.705400" lon="4.449270">
						<ele>511</ele>
						<time>2025-08-13T07:34:06Z</time>
					</trkpt>
					<trkpt lat="45.705550" lon="4.449330">
						<ele>512</ele>
						<time>2025-08-13T07:34:09Z</time>
					</trkpt>
					<trkpt lat="45.705850" lon="4.449290">
						<ele>515</ele>
						<time>2025-08-13T07:34:14Z</time>
					</trkpt>
					<trkpt lat="45.706040" lon="4.449420">
						<ele>516</ele>
						<time>2025-08-13T07:34:18Z</time>
					</trkpt>
					<trkpt lat="45.706060" lon="4.449480">
						<ele>516</ele>
						<time>2025-08-13T07:34:19Z</time>
					</trkpt>
					<trkpt lat="45.706020" lon="4.449680">
						<ele>513</ele>
						<time>2025-08-13T07:34:21Z</time>
					</trkpt>
					<trkpt lat="45.705810" lon="4.449960">
						<ele>504</ele>
						<time>2025-08-13T07:34:26Z</time>
					</trkpt>
					<trkpt lat="45.705570" lon="4.450540">
						<ele>500</ele>
						<time>2025-08-13T07:34:35Z</time>
					</trkpt>
					<trkpt lat="45.705270" lon="4.451720">
						<ele>492</ele>
						<time>2025-08-13T07:34:50Z</time>
					</trkpt>
					<trkpt lat="45.705100" lon="4.452040">
						<ele>488</ele>
						<time>2025-08-13T07:34:55Z</time>
					</trkpt>
					<trkpt lat="45.704880" lon="4.452270">
						<ele>484</ele>
						<time>2025-08-13T07:35:00Z</time>
					</trkpt>
					<trkpt lat="45.704910" lon="4.452570">
						<ele>483</ele>
						<time>2025-08-13T07:35:04Z</time>
					</trkpt>
					<trkpt lat="45.704800" lon="4.452570">
						<ele>482</ele>
						<time>2025-08-13T07:35:06Z</time>
					</trkpt>
					<trkpt lat="45.704330" lon="4.452380">
						<ele>475</ele>
						<time>2025-08-13T07:35:15Z</time>
					</trkpt>
					<trkpt lat="45.704150" lon="4.452360">
						<ele>473</ele>
						<time>2025-08-13T07:35:18Z</time>
					</trkpt>
					<trkpt lat="45.703980" lon="4.452420">
						<ele>471</ele>
						<time>2025-08-13T07:35:21Z</time>
					</trkpt>
					<trkpt lat="45.703770" lon="4.452620">
						<ele>469</ele>
						<time>2025-08-13T07:35:25Z</time>
					</trkpt>
					<trkpt lat="45.702930" lon="4.453540">
						<ele>459</ele>
						<time>2025-08-13T07:35:44Z</time>
					</trkpt>
					<trkpt lat="45.702010" lon="4.454250">
						<ele>453</ele>
						<time>2025-08-13T07:36:03Z</time>
					</trkpt>
					<trkpt lat="45.701450" lon="4.454570">
						<ele>448</ele>
						<time>2025-08-13T07:36:14Z</time>
					</trkpt>
					<trkpt lat="45.700870" lon="4.454740">
						<ele>446</ele>
						<time>2025-08-13T07:36:24Z</time>
					</trkpt>
					<trkpt lat="45.699630" lon="4.455170">
						<ele>440</ele>
						<time>2025-08-13T07:36:47Z</time>
					</trkpt>
					<trkpt lat="45.699330" lon="4.455170">
						<ele>439</ele>
						<time>2025-08-13T07:36:52Z</time>
					</trkpt>
					<trkpt lat="45.699160" lon="4.455280">
						<ele>438</ele>
						<time>2025-08-13T07:36:55Z</time>
					</trkpt>
					<trkpt lat="45.699090" lon="4.455190">
						<ele>437</ele>
						<time>2025-08-13T07:36:57Z</time>
					</trkpt>
					<trkpt lat="45.698980" lon="4.455210">
						<ele>437</ele>
						<time>2025-08-13T07:36:59Z</time>
					</trkpt>
					<trkpt lat="45.698920" lon="4.455340">
						<ele>436</ele>
						<time>2025-08-13T07:37:01Z</time>
					</trkpt>
					<trkpt lat="45.698940" lon="4.455430">
						<ele>436</ele>
						<time>2025-08-13T07:37:02Z</time>
					</trkpt>
					<trkpt lat="45.698830" lon="4.455470">
						<ele>435</ele>
						<time>2025-08-13T07:37:04Z</time>
					</trkpt>
					<trkpt lat="45.698770" lon="4.455430">
						<ele>435</ele>
						<time>2025-08-13T07:37:05Z</time>
					</trkpt>
					<trkpt lat="45.698380" lon="4.455300">
						<ele>432</ele>
						<time>2025-08-13T07:37:13Z</time>
					</trkpt>
					<trkpt lat="45.696540" lon="4.455150">
						<ele>432</ele>
						<time>2025-08-13T07:37:45Z</time>
					</trkpt>
					<trkpt lat="45.695920" lon="4.455190">
						<ele>434</ele>
						<time>2025-08-13T07:37:56Z</time>
					</trkpt>
					<trkpt lat="45.695790" lon="4.455300">
						<ele>435</ele>
						<time>2025-08-13T07:37:59Z</time>
					</trkpt>
					<trkpt lat="45.695770" lon="4.455450">
						<ele>435</ele>
						<time>2025-08-13T07:38:01Z</time>
					</trkpt>
					<trkpt lat="45.695850" lon="4.456180">
						<ele>436</ele>
						<time>2025-08-13T07:38:10Z</time>
					</trkpt>
					<trkpt lat="45.695770" lon="4.456330">
						<ele>437</ele>
						<time>2025-08-13T07:38:12Z</time>
					</trkpt>
					<trkpt lat="45.695680" lon="4.456370">
						<ele>437</ele>
						<time>2025-08-13T07:38:14Z</time>
					</trkpt>
					<trkpt lat="45.695610" lon="4.456350">
						<ele>438</ele>
						<time>2025-08-13T07:38:15Z</time>
					</trkpt>
					<trkpt lat="45.695210" lon="4.456030">
						<ele>440</ele>
						<time>2025-08-13T07:38:24Z</time>
					</trkpt>
					<trkpt lat="45.695100" lon="4.455990">
						<ele>440</ele>
						<time>2025-08-13T07:38:26Z</time>
					</trkpt>
					<trkpt lat="45.694410" lon="4.456110">
						<ele>447</ele>
						<time>2025-08-13T07:38:38Z</time>
					</trkpt>
					<trkpt lat="45.694110" lon="4.456110">
						<ele>450</ele>
						<time>2025-08-13T07:38:43Z</time>
					</trkpt>
					<trkpt lat="45.693750" lon="4.455920">
						<ele>453</ele>
						<time>2025-08-13T07:38:50Z</time>
					</trkpt>
					<trkpt lat="45.693280" lon="4.455430">
						<ele>455</ele>
						<time>2025-08-13T07:39:00Z</time>
					</trkpt>
					<trkpt lat="45.693040" lon="4.455340">
						<ele>456</ele>
						<time>2025-08-13T07:39:05Z</time>
					</trkpt>
					<trkpt lat="45.691410" lon="4.455080">
						<ele>469</ele>
						<time>2025-08-13T07:39:34Z</time>
					</trkpt>
					<trkpt lat="45.691320" lon="4.455040">
						<ele>469</ele>
						<time>2025-08-13T07:39:36Z</time>
					</trkpt>
					<trkpt lat="45.690700" lon="4.454960">
						<ele>473</ele>
						<time>2025-08-13T07:39:47Z</time>
					</trkpt>
					<trkpt lat="45.690440" lon="4.455130">
						<ele>476</ele>
						<time>2025-08-13T07:39:52Z</time>
					</trkpt>
					<trkpt lat="45.690250" lon="4.455320">
						<ele>479</ele>
						<time>2025-08-13T07:39:56Z</time>
					</trkpt>
					<trkpt lat="45.690140" lon="4.455490">
						<ele>481</ele>
						<time>2025-08-13T07:39:59Z</time>
					</trkpt>
					<trkpt lat="45.690080" lon="4.455640">
						<ele>483</ele>
						<time>2025-08-13T07:40:01Z</time>
					</trkpt>
					<trkpt lat="45.690040" lon="4.456440">
						<ele>488</ele>
						<time>2025-08-13T07:40:11Z</time>
					</trkpt>
					<trkpt lat="45.689890" lon="4.456990">
						<ele>489</ele>
						<time>2025-08-13T07:40:18Z</time>
					</trkpt>
					<trkpt lat="45.689370" lon="4.457490">
						<ele>496</ele>
						<time>2025-08-13T07:40:30Z</time>
					</trkpt>
					<trkpt lat="45.689070" lon="4.457980">
						<ele>497</ele>
						<time>2025-08-13T07:40:38Z</time>
					</trkpt>
					<trkpt lat="45.688450" lon="4.458300">
						<ele>503</ele>
						<time>2025-08-13T07:40:49Z</time>
					</trkpt>
					<trkpt lat="45.688250" lon="4.458260">
						<ele>507</ele>
						<time>2025-08-13T07:40:53Z</time>
					</trkpt>
					<trkpt lat="45.688340" lon="4.457940">
						<ele>507</ele>
						<time>2025-08-13T07:40:57Z</time>
					</trkpt>
					<trkpt lat="45.688410" lon="4.457450">
						<ele>508</ele>
						<time>2025-08-13T07:41:03Z</time>
					</trkpt>
					<trkpt lat="45.688320" lon="4.456930">
						<ele>508</ele>
						<time>2025-08-13T07:41:10Z</time>
					</trkpt>
					<trkpt lat="45.688100" lon="4.456480">
						<ele>510</ele>
						<time>2025-08-13T07:41:17Z</time>
					</trkpt>
					<trkpt lat="45.687630" lon="4.455940">
						<ele>514</ele>
						<time>2025-08-13T07:41:28Z</time>
					</trkpt>
					<trkpt lat="45.687480" lon="4.455730">
						<ele>514</ele>
						<time>2025-08-13T07:41:31Z</time>
					</trkpt>
					<trkpt lat="45.687160" lon="4.454980">
						<ele>512</ele>
						<time>2025-08-13T07:41:42Z</time>
					</trkpt>
					<trkpt lat="45.686900" lon="4.454590">
						<ele>514</ele>
						<time>2025-08-13T07:41:49Z</time>
					</trkpt>
					<trkpt lat="45.685420" lon="4.453150">
						<ele>524</ele>
						<time>2025-08-13T07:42:21Z</time>
					</trkpt>
					<trkpt lat="45.685080" lon="4.452510">
						<ele>523</ele>
						<time>2025-08-13T07:42:31Z</time>
					</trkpt>
					<trkpt lat="45.684910" lon="4.452320">
						<ele>523</ele>
						<time>2025-08-13T07:42:35Z</time>
					</trkpt>
					<trkpt lat="45.684690" lon="4.452190">
						<ele>524</ele>
						<time>2025-08-13T07:42:39Z</time>
					</trkpt>
					<trkpt lat="45.684200" lon="4.452020">
						<ele>527</ele>
						<time>2025-08-13T07:42:48Z</time>
					</trkpt>
					<trkpt lat="45.683620" lon="4.451990">
						<ele>530</ele>
						<time>2025-08-13T07:42:58Z</time>
					</trkpt>
					<trkpt lat="45.681750" lon="4.452150">
						<ele>542</ele>
						<time>2025-08-13T07:43:32Z</time>
					</trkpt>
					<trkpt lat="45.681240" lon="4.452300">
						<ele>550</ele>
						<time>2025-08-13T07:43:41Z</time>
					</trkpt>
					<trkpt lat="45.681130" lon="4.452300">
						<ele>551</ele>
						<time>2025-08-13T07:43:43Z</time>
					</trkpt>
					<trkpt lat="45.680980" lon="4.452170">
						<ele>552</ele>
						<time>2025-08-13T07:43:46Z</time>
					</trkpt>
					<trkpt lat="45.680960" lon="4.451950">
						<ele>552</ele>
						<time>2025-08-13T07:43:49Z</time>
					</trkpt>
					<trkpt lat="45.681130" lon="4.451440">
						<ele>549</ele>
						<time>2025-08-13T07:43:56Z</time>
					</trkpt>
					<trkpt lat="45.681200" lon="4.450920">
						<ele>550</ele>
						<time>2025-08-13T07:44:02Z</time>
					</trkpt>
					<trkpt lat="45.681350" lon="4.450360">
						<ele>549</ele>
						<time>2025-08-13T07:44:10Z</time>
					</trkpt>
					<trkpt lat="45.681320" lon="4.449510">
						<ele>557</ele>
						<time>2025-08-13T07:44:20Z</time>
					</trkpt>
					<trkpt lat="45.681430" lon="4.449330">
						<ele>557</ele>
						<time>2025-08-13T07:44:23Z</time>
					</trkpt>
					<trkpt lat="45.681860" lon="4.449270">
						<ele>551</ele>
						<time>2025-08-13T07:44:31Z</time>
					</trkpt>
					<trkpt lat="45.682120" lon="4.449140">
						<ele>550</ele>
						<time>2025-08-13T07:44:36Z</time>
					</trkpt>
					<trkpt lat="45.682250" lon="4.448950">
						<ele>551</ele>
						<time>2025-08-13T07:44:39Z</time>
					</trkpt>
					<trkpt lat="45.682400" lon="4.448600">
						<ele>552</ele>
						<time>2025-08-13T07:44:44Z</time>
					</trkpt>
					<trkpt lat="45.682440" lon="4.448370">
						<ele>554</ele>
						<time>2025-08-13T07:44:47Z</time>
					</trkpt>
					<trkpt lat="45.682400" lon="4.447980">
						<ele>553</ele>
						<time>2025-08-13T07:44:52Z</time>
					</trkpt>
					<trkpt lat="45.682270" lon="4.447700">
						<ele>554</ele>
						<time>2025-08-13T07:44:56Z</time>
					</trkpt>
					<trkpt lat="45.681300" lon="4.446570">
						<ele>561</ele>
						<time>2025-08-13T07:45:19Z</time>
					</trkpt>
					<trkpt lat="45.680980" lon="4.446240">
						<ele>563</ele>
						<time>2025-08-13T07:45:26Z</time>
					</trkpt>
					<trkpt lat="45.680740" lon="4.446070">
						<ele>565</ele>
						<time>2025-08-13T07:45:30Z</time>
					</trkpt>
					<trkpt lat="45.680400" lon="4.446070">
						<ele>566</ele>
						<time>2025-08-13T07:45:36Z</time>
					</trkpt>
					<trkpt lat="45.680140" lon="4.446180">
						<ele>568</ele>
						<time>2025-08-13T07:45:41Z</time>
					</trkpt>
					<trkpt lat="45.679950" lon="4.446350">
						<ele>570</ele>
						<time>2025-08-13T07:45:45Z</time>
					</trkpt>
					<trkpt lat="45.679630" lon="4.446890">
						<ele>574</ele>
						<time>2025-08-13T07:45:54Z</time>
					</trkpt>
					<trkpt lat="45.679390" lon="4.447040">
						<ele>575</ele>
						<time>2025-08-13T07:45:59Z</time>
					</trkpt>
					<trkpt lat="45.678560" lon="4.447000">
						<ele>579</ele>
						<time>2025-08-13T07:46:13Z</time>
					</trkpt>
					<trkpt lat="45.678300" lon="4.446870">
						<ele>580</ele>
						<time>2025-08-13T07:46:18Z</time>
					</trkpt>
					<trkpt lat="45.678060" lon="4.446500">
						<ele>582</ele>
						<time>2025-08-13T07:46:25Z</time>
					</trkpt>
					<trkpt lat="45.677960" lon="4.446270">
						<ele>581</ele>
						<time>2025-08-13T07:46:28Z</time>
					</trkpt>
					<trkpt lat="45.677890" lon="4.445790">
						<ele>577</ele>
						<time>2025-08-13T07:46:34Z</time>
					</trkpt>
					<trkpt lat="45.677780" lon="4.445510">
						<ele>575</ele>
						<time>2025-08-13T07:46:38Z</time>
					</trkpt>
					<trkpt lat="45.677550" lon="4.445210">
						<ele>575</ele>
						<time>2025-08-13T07:46:44Z</time>
					</trkpt>
					<trkpt lat="45.677350" lon="4.445090">
						<ele>576</ele>
						<time>2025-08-13T07:46:47Z</time>
					</trkpt>
					<trkpt lat="45.677050" lon="4.444960">
						<ele>578</ele>
						<time>2025-08-13T07:46:53Z</time>
					</trkpt>
					<trkpt lat="45.676410" lon="4.444870">
						<ele>579</ele>
						<time>2025-08-13T07:47:04Z</time>
					</trkpt>
					<trkpt lat="45.676130" lon="4.444940">
						<ele>579</ele>
						<time>2025-08-13T07:47:10Z</time>
					</trkpt>
					<trkpt lat="45.675960" lon="4.445130">
						<ele>582</ele>
						<time>2025-08-13T07:47:13Z</time>
					</trkpt>
					<trkpt lat="45.675720" lon="4.445600">
						<ele>594</ele>
						<time>2025-08-13T07:47:21Z</time>
					</trkpt>
					<trkpt lat="45.675590" lon="4.445660">
						<ele>597</ele>
						<time>2025-08-13T07:47:23Z</time>
					</trkpt>
					<trkpt lat="45.675510" lon="4.445640">
						<ele>598</ele>
						<time>2025-08-13T07:47:24Z</time>
					</trkpt>
					<trkpt lat="45.674760" lon="4.444870">
						<ele>586</ele>
						<time>2025-08-13T07:47:41Z</time>
					</trkpt>
					<trkpt lat="45.674460" lon="4.444760">
						<ele>584</ele>
						<time>2025-08-13T07:47:46Z</time>
					</trkpt>
					<trkpt lat="45.674290" lon="4.444790">
						<ele>585</ele>
						<time>2025-08-13T07:47:49Z</time>
					</trkpt>
					<trkpt lat="45.674070" lon="4.444870">
						<ele>588</ele>
						<time>2025-08-13T07:47:53Z</time>
					</trkpt>
					<trkpt lat="45.673940" lon="4.444980">
						<ele>591</ele>
						<time>2025-08-13T07:47:56Z</time>
					</trkpt>
					<trkpt lat="45.673750" lon="4.445190">
						<ele>596</ele>
						<time>2025-08-13T07:48:00Z</time>
					</trkpt>
					<trkpt lat="45.673490" lon="4.445580">
						<ele>603</ele>
						<time>2025-08-13T07:48:07Z</time>
					</trkpt>
					<trkpt lat="45.673210" lon="4.445860">
						<ele>610</ele>
						<time>2025-08-13T07:48:13Z</time>
					</trkpt>
					<trkpt lat="45.672980" lon="4.445920">
						<ele>615</ele>
						<time>2025-08-13T07:48:17Z</time>
					</trkpt>
					<trkpt lat="45.672910" lon="4.445880">
						<ele>616</ele>
						<time>2025-08-13T07:48:19Z</time>
					</trkpt>
					<trkpt lat="45.672810" lon="4.445710">
						<ele>615</ele>
						<time>2025-08-13T07:48:21Z</time>
					</trkpt>
					<trkpt lat="45.672810" lon="4.445090">
						<ele>606</ele>
						<time>2025-08-13T07:48:29Z</time>
					</trkpt>
					<trkpt lat="45.672660" lon="4.444630">
						<ele>606</ele>
						<time>2025-08-13T07:48:36Z</time>
					</trkpt>
					<trkpt lat="45.672700" lon="4.443970">
						<ele>601</ele>
						<time>2025-08-13T07:48:44Z</time>
					</trkpt>
					<trkpt lat="45.672570" lon="4.443600">
						<ele>603</ele>
						<time>2025-08-13T07:48:49Z</time>
					</trkpt>
					<trkpt lat="45.672380" lon="4.443280">
						<ele>608</ele>
						<time>2025-08-13T07:48:54Z</time>
					</trkpt>
					<trkpt lat="45.672310" lon="4.443030">
						<ele>612</ele>
						<time>2025-08-13T07:48:57Z</time>
					</trkpt>
					<trkpt lat="45.672330" lon="4.442900">
						<ele>612</ele>
						<time>2025-08-13T07:48:59Z</time>
					</trkpt>
					<trkpt lat="45.672460" lon="4.442620">
						<ele>610</ele>
						<time>2025-08-13T07:49:03Z</time>
					</trkpt>
					<trkpt lat="45.673060" lon="4.442060">
						<ele>600</ele>
						<time>2025-08-13T07:49:16Z</time>
					</trkpt>
					<trkpt lat="45.673150" lon="4.441930">
						<ele>599</ele>
						<time>2025-08-13T07:49:18Z</time>
					</trkpt>
					<trkpt lat="45.673170" lon="4.441650">
						<ele>601</ele>
						<time>2025-08-13T07:49:22Z</time>
					</trkpt>
					<trkpt lat="45.673130" lon="4.441480">
						<ele>600</ele>
						<time>2025-08-13T07:49:24Z</time>
					</trkpt>
					<trkpt lat="45.673060" lon="4.441330">
						<ele>599</ele>
						<time>2025-08-13T07:49:26Z</time>
					</trkpt>
					<trkpt lat="45.672830" lon="4.441050">
						<ele>601</ele>
						<time>2025-08-13T07:49:32Z</time>
					</trkpt>
					<trkpt lat="45.671470" lon="4.440020">
						<ele>617</ele>
						<time>2025-08-13T07:49:59Z</time>
					</trkpt>
					<trkpt lat="45.670380" lon="4.438910">
						<ele>619</ele>
						<time>2025-08-13T07:50:23Z</time>
					</trkpt>
					<trkpt lat="45.669720" lon="4.438480">
						<ele>628</ele>
						<time>2025-08-13T07:50:36Z</time>
					</trkpt>
					<trkpt lat="45.669440" lon="4.438110">
						<ele>628</ele>
						<time>2025-08-13T07:50:43Z</time>
					</trkpt>
					<trkpt lat="45.667810" lon="4.436310">
						<ele>626</ele>
						<time>2025-08-13T07:51:19Z</time>
					</trkpt>
					<trkpt lat="45.667360" lon="4.436010">
						<ele>627</ele>
						<time>2025-08-13T07:51:28Z</time>
					</trkpt>
					<trkpt lat="45.666500" lon="4.435580">
						<ele>635</ele>
						<time>2025-08-13T07:51:44Z</time>
					</trkpt>
					<trkpt lat="45.666390" lon="4.435410">
						<ele>638</ele>
						<time>2025-08-13T07:51:47Z</time>
					</trkpt>
					<trkpt lat="45.666370" lon="4.435210">
						<ele>639</ele>
						<time>2025-08-13T07:51:50Z</time>
					</trkpt>
					<trkpt lat="45.666430" lon="4.434680">
						<ele>640</ele>
						<time>2025-08-13T07:51:56Z</time>
					</trkpt>
					<trkpt lat="45.666560" lon="4.433990">
						<ele>643</ele>
						<time>2025-08-13T07:52:05Z</time>
					</trkpt>
					<trkpt lat="45.666560" lon="4.433820">
						<ele>645</ele>
						<time>2025-08-13T07:52:07Z</time>
					</trkpt>
					<trkpt lat="45.666600" lon="4.433610">
						<ele>646</ele>
						<time>2025-08-13T07:52:10Z</time>
					</trkpt>
					<trkpt lat="45.666930" lon="4.432600">
						<ele>645</ele>
						<time>2025-08-13T07:52:24Z</time>
					</trkpt>
					<trkpt lat="45.667010" lon="4.431570">
						<ele>645</ele>
						<time>2025-08-13T07:52:37Z</time>
					</trkpt>
					<trkpt lat="45.666990" lon="4.431180">
						<ele>646</ele>
						<time>2025-08-13T07:52:42Z</time>
					</trkpt>
					<trkpt lat="45.666750" lon="4.430170">
						<ele>651</ele>
						<time>2025-08-13T07:52:55Z</time>
					</trkpt>
					<trkpt lat="45.666730" lon="4.429530">
						<ele>649</ele>
						<time>2025-08-13T07:53:03Z</time>
					</trkpt>
					<trkpt lat="45.666780" lon="4.428280">
						<ele>641</ele>
						<time>2025-08-13T07:53:18Z</time>
					</trkpt>
					<trkpt lat="45.666710" lon="4.427940">
						<ele>639</ele>
						<time>2025-08-13T07:53:23Z</time>
					</trkpt>
					<trkpt lat="45.666600" lon="4.427770">
						<ele>640</ele>
						<time>2025-08-13T07:53:26Z</time>
					</trkpt>
					<trkpt lat="45.666370" lon="4.427530">
						<ele>641</ele>
						<time>2025-08-13T07:53:31Z</time>
					</trkpt>
					<trkpt lat="45.665660" lon="4.427080">
						<ele>646</ele>
						<time>2025-08-13T07:53:45Z</time>
					</trkpt>
					<trkpt lat="45.664200" lon="4.425950">
						<ele>642</ele>
						<time>2025-08-13T07:54:14Z</time>
					</trkpt>
					<trkpt lat="45.664030" lon="4.425860">
						<ele>642</ele>
						<time>2025-08-13T07:54:17Z</time>
					</trkpt>
					<trkpt lat="45.663190" lon="4.425640">
						<ele>652</ele>
						<time>2025-08-13T07:54:33Z</time>
					</trkpt>
					<trkpt lat="45.663110" lon="4.425520">
						<ele>652</ele>
						<time>2025-08-13T07:54:35Z</time>
					</trkpt>
					<trkpt lat="45.663080" lon="4.425260">
						<ele>649</ele>
						<time>2025-08-13T07:54:38Z</time>
					</trkpt>
					<trkpt lat="45.663080" lon="4.424870">
						<ele>645</ele>
						<time>2025-08-13T07:54:43Z</time>
					</trkpt>
					<trkpt lat="45.663060" lon="4.424700">
						<ele>644</ele>
						<time>2025-08-13T07:54:45Z</time>
					</trkpt>
					<trkpt lat="45.663000" lon="4.424510">
						<ele>644</ele>
						<time>2025-08-13T07:54:47Z</time>
					</trkpt>
					<trkpt lat="45.661930" lon="4.422510">
						<ele>650</ele>
						<time>2025-08-13T07:55:19Z</time>
					</trkpt>
					<trkpt lat="45.661710" lon="4.422280">
						<ele>650</ele>
						<time>2025-08-13T07:55:24Z</time>
					</trkpt>
					<trkpt lat="45.661500" lon="4.422150">
						<ele>651</ele>
						<time>2025-08-13T07:55:28Z</time>
					</trkpt>
					<trkpt lat="45.661260" lon="4.421950">
						<ele>651</ele>
						<time>2025-08-13T07:55:33Z</time>
					</trkpt>
					<trkpt lat="45.660770" lon="4.421610">
						<ele>651</ele>
						<time>2025-08-13T07:55:42Z</time>
					</trkpt>
					<trkpt lat="45.659800" lon="4.421500">
						<ele>656</ele>
						<time>2025-08-13T07:56:00Z</time>
					</trkpt>
					<trkpt lat="45.658360" lon="4.421290">
						<ele>658</ele>
						<time>2025-08-13T07:56:25Z</time>
					</trkpt>
					<trkpt lat="45.657780" lon="4.421310">
						<ele>661</ele>
						<time>2025-08-13T07:56:36Z</time>
					</trkpt>
					<trkpt lat="45.657360" lon="4.421480">
						<ele>664</ele>
						<time>2025-08-13T07:56:43Z</time>
					</trkpt>
					<trkpt lat="45.656970" lon="4.421590">
						<ele>665</ele>
						<time>2025-08-13T07:56:51Z</time>
					</trkpt>
					<trkpt lat="45.656860" lon="4.421650">
						<ele>665</ele>
						<time>2025-08-13T07:56:53Z</time>
					</trkpt>
					<trkpt lat="45.656480" lon="4.420450">
						<ele>667</ele>
						<time>2025-08-13T07:57:09Z</time>
					</trkpt>
					<trkpt lat="45.656090" lon="4.420840">
						<ele>665</ele>
						<time>2025-08-13T07:57:17Z</time>
					</trkpt>
					<trkpt lat="45.655730" lon="4.421120">
						<ele>664</ele>
						<time>2025-08-13T07:57:25Z</time>
					</trkpt>
					<trkpt lat="45.654870" lon="4.421550">
						<ele>658</ele>
						<time>2025-08-13T07:57:41Z</time>
					</trkpt>
					<trkpt lat="45.654350" lon="4.421780">
						<ele>656</ele>
						<time>2025-08-13T07:57:51Z</time>
					</trkpt>
					<trkpt lat="45.654120" lon="4.421910">
						<ele>654</ele>
						<time>2025-08-13T07:57:55Z</time>
					</trkpt>
					<trkpt lat="45.653990" lon="4.422040">
						<ele>652</ele>
						<time>2025-08-13T07:57:58Z</time>
					</trkpt>
					<trkpt lat="45.653920" lon="4.422150">
						<ele>651</ele>
						<time>2025-08-13T07:58:00Z</time>
					</trkpt>
					<trkpt lat="45.653880" lon="4.422510">
						<ele>649</ele>
						<time>2025-08-13T07:58:04Z</time>
					</trkpt>
					<trkpt lat="45.654050" lon="4.423430">
						<ele>646</ele>
						<time>2025-08-13T07:58:16Z</time>
					</trkpt>
					<trkpt lat="45.654070" lon="4.424140">
						<ele>639</ele>
						<time>2025-08-13T07:58:25Z</time>
					</trkpt>
					<trkpt lat="45.654160" lon="4.424340">
						<ele>639</ele>
						<time>2025-08-13T07:58:28Z</time>
					</trkpt>
					<trkpt lat="45.654420" lon="4.424550">
						<ele>640</ele>
						<time>2025-08-13T07:58:33Z</time>
					</trkpt>
					<trkpt lat="45.654480" lon="4.424640">
						<ele>640</ele>
						<time>2025-08-13T07:58:35Z</time>
					</trkpt>
					<trkpt lat="45.654520" lon="4.424850">
						<ele>638</ele>
						<time>2025-08-13T07:58:37Z</time>
					</trkpt>
					<trkpt lat="45.654270" lon="4.425750">
						<ele>627</ele>
						<time>2025-08-13T07:58:50Z</time>
					</trkpt>
					<trkpt lat="45.654290" lon="4.426140">
						<ele>625</ele>
						<time>2025-08-13T07:58:54Z</time>
					</trkpt>
					<trkpt lat="45.654330" lon="4.426270">
						<ele>624</ele>
						<time>2025-08-13T07:58:56Z</time>
					</trkpt>
					<trkpt lat="45.654460" lon="4.426420">
						<ele>624</ele>
						<time>2025-08-13T07:58:59Z</time>
					</trkpt>
					<trkpt lat="45.654540" lon="4.426460">
						<ele>624</ele>
						<time>2025-08-13T07:59:01Z</time>
					</trkpt>
					<trkpt lat="45.654870" lon="4.426500">
						<ele>626</ele>
						<time>2025-08-13T07:59:07Z</time>
					</trkpt>
					<trkpt lat="45.654930" lon="4.426590">
						<ele>626</ele>
						<time>2025-08-13T07:59:08Z</time>
					</trkpt>
					<trkpt lat="45.654950" lon="4.426670">
						<ele>625</ele>
						<time>2025-08-13T07:59:09Z</time>
					</trkpt>
					<trkpt lat="45.654910" lon="4.426850">
						<ele>625</ele>
						<time>2025-08-13T07:59:11Z</time>
					</trkpt>
					<trkpt lat="45.654570" lon="4.427250">
						<ele>621</ele>
						<time>2025-08-13T07:59:19Z</time>
					</trkpt>
					<trkpt lat="45.654440" lon="4.427470">
						<ele>619</ele>
						<time>2025-08-13T07:59:23Z</time>
					</trkpt>
					<trkpt lat="45.654390" lon="4.428050">
						<ele>620</ele>
						<time>2025-08-13T07:59:30Z</time>
					</trkpt>
					<trkpt lat="45.654290" lon="4.428280">
						<ele>620</ele>
						<time>2025-08-13T07:59:34Z</time>
					</trkpt>
					<trkpt lat="45.654090" lon="4.428390">
						<ele>622</ele>
						<time>2025-08-13T07:59:37Z</time>
					</trkpt>
					<trkpt lat="45.653940" lon="4.428350">
						<ele>625</ele>
						<time>2025-08-13T07:59:40Z</time>
					</trkpt>
					<trkpt lat="45.653840" lon="4.428280">
						<ele>627</ele>
						<time>2025-08-13T07:59:42Z</time>
					</trkpt>
					<trkpt lat="45.653540" lon="4.427960">
						<ele>630</ele>
						<time>2025-08-13T07:59:49Z</time>
					</trkpt>
					<trkpt lat="45.652640" lon="4.426520">
						<ele>632</ele>
						<time>2025-08-13T08:00:13Z</time>
					</trkpt>
					<trkpt lat="45.652530" lon="4.426330">
						<ele>633</ele>
						<time>2025-08-13T08:00:16Z</time>
					</trkpt>
					<trkpt lat="45.652310" lon="4.425470">
						<ele>629</ele>
						<time>2025-08-13T08:00:27Z</time>
					</trkpt>
					<trkpt lat="45.652140" lon="4.425220">
						<ele>629</ele>
						<time>2025-08-13T08:00:32Z</time>
					</trkpt>
					<trkpt lat="45.651840" lon="4.424980">
						<ele>631</ele>
						<time>2025-08-13T08:00:38Z</time>
					</trkpt>
					<trkpt lat="45.651410" lon="4.424740">
						<ele>633</ele>
						<time>2025-08-13T08:00:46Z</time>
					</trkpt>
					<trkpt lat="45.651090" lon="4.424610">
						<ele>634</ele>
						<time>2025-08-13T08:00:52Z</time>
					</trkpt>
					<trkpt lat="45.650960" lon="4.424610">
						<ele>636</ele>
						<time>2025-08-13T08:00:54Z</time>
					</trkpt>
					<trkpt lat="45.650680" lon="4.424740">
						<ele>637</ele>
						<time>2025-08-13T08:00:59Z</time>
					</trkpt>
					<trkpt lat="45.650550" lon="4.425000">
						<ele>637</ele>
						<time>2025-08-13T08:01:03Z</time>
					</trkpt>
					<trkpt lat="45.650510" lon="4.425370">
						<ele>639</ele>
						<time>2025-08-13T08:01:08Z</time>
					</trkpt>
					<trkpt lat="45.650530" lon="4.425950">
						<ele>643</ele>
						<time>2025-08-13T08:01:15Z</time>
					</trkpt>
					<trkpt lat="45.650660" lon="4.426590">
						<ele>647</ele>
						<time>2025-08-13T08:01:23Z</time>
					</trkpt>
					<trkpt lat="45.651300" lon="4.428480">
						<ele>654</ele>
						<time>2025-08-13T08:01:50Z</time>
					</trkpt>
					<trkpt lat="45.651350" lon="4.428690">
						<ele>655</ele>
						<time>2025-08-13T08:01:52Z</time>
					</trkpt>
					<trkpt lat="45.651350" lon="4.428880">
						<ele>656</ele>
						<time>2025-08-13T08:01:55Z</time>
					</trkpt>
					<trkpt lat="45.651240" lon="4.429160">
						<ele>657</ele>
						<time>2025-08-13T08:01:59Z</time>
					</trkpt>
					<trkpt lat="45.651030" lon="4.429310">
						<ele>658</ele>
						<time>2025-08-13T08:02:03Z</time>
					</trkpt>
					<trkpt lat="45.649420" lon="4.428930">
						<ele>666</ele>
						<time>2025-08-13T08:02:32Z</time>
					</trkpt>
					<trkpt lat="45.648900" lon="4.428910">
						<ele>671</ele>
						<time>2025-08-13T08:02:41Z</time>
					</trkpt>
					<trkpt lat="45.648750" lon="4.428990">
						<ele>673</ele>
						<time>2025-08-13T08:02:44Z</time>
					</trkpt>
					<trkpt lat="45.648640" lon="4.429120">
						<ele>675</ele>
						<time>2025-08-13T08:02:47Z</time>
					</trkpt>
					<trkpt lat="45.648490" lon="4.429460">
						<ele>677</ele>
						<time>2025-08-13T08:02:52Z</time>
					</trkpt>
					<trkpt lat="45.648470" lon="4.429720">
						<ele>678</ele>
						<time>2025-08-13T08:02:55Z</time>
					</trkpt>
					<trkpt lat="45.648490" lon="4.430130">
						<ele>679</ele>
						<time>2025-08-13T08:03:00Z</time>
					</trkpt>
					<trkpt lat="45.648600" lon="4.430640">
						<ele>681</ele>
						<time>2025-08-13T08:03:07Z</time>
					</trkpt>
					<trkpt lat="45.648640" lon="4.431070">
						<ele>683</ele>
						<time>2025-08-13T08:03:12Z</time>
					</trkpt>
					<trkpt lat="45.648540" lon="4.432040">
						<ele>684</ele>
						<time>2025-08-13T08:03:24Z</time>
					</trkpt>
					<trkpt lat="45.648580" lon="4.432920">
						<ele>686</ele>
						<time>2025-08-13T08:03:35Z</time>
					</trkpt>
					<trkpt lat="45.648410" lon="4.433950">
						<ele>681</ele>
						<time>2025-08-13T08:03:48Z</time>
					</trkpt>
					<trkpt lat="45.648450" lon="4.434360">
						<ele>680</ele>
						<time>2025-08-13T08:03:53Z</time>
					</trkpt>
					<trkpt lat="45.648540" lon="4.434720">
						<ele>679</ele>
						<time>2025-08-13T08:03:58Z</time>
					</trkpt>
					<trkpt lat="45.648690" lon="4.434980">
						<ele>680</ele>
						<time>2025-08-13T08:04:02Z</time>
					</trkpt>
					<trkpt lat="45.649310" lon="4.435240">
						<ele>689</ele>
						<time>2025-08-13T08:04:14Z</time>
					</trkpt>
					<trkpt lat="45.649460" lon="4.435390">
						<ele>689</ele>
						<time>2025-08-13T08:04:17Z</time>
					</trkpt>
					<trkpt lat="45.649650" lon="4.435710">
						<ele>690</ele>
						<time>2025-08-13T08:04:22Z</time>
					</trkpt>
					<trkpt lat="45.649720" lon="4.435990">
						<ele>689</ele>
						<time>2025-08-13T08:04:26Z</time>
					</trkpt>
					<trkpt lat="45.649780" lon="4.437150">
						<ele>683</ele>
						<time>2025-08-13T08:04:41Z</time>
					</trkpt>
					<trkpt lat="45.649820" lon="4.437430">
						<ele>682</ele>
						<time>2025-08-13T08:04:44Z</time>
					</trkpt>
					<trkpt lat="45.649890" lon="4.437600">
						<ele>682</ele>
						<time>2025-08-13T08:04:47Z</time>
					</trkpt>
					<trkpt lat="45.650120" lon="4.437900">
						<ele>685</ele>
						<time>2025-08-13T08:04:52Z</time>
					</trkpt>
					<trkpt lat="45.650300" lon="4.438030">
						<ele>689</ele>
						<time>2025-08-13T08:04:56Z</time>
					</trkpt>
					<trkpt lat="45.650400" lon="4.438240">
						<ele>689</ele>
						<time>2025-08-13T08:04:59Z</time>
					</trkpt>
					<trkpt lat="45.650770" lon="4.439890">
						<ele>684</ele>
						<time>2025-08-13T08:05:20Z</time>
					</trkpt>
					<trkpt lat="45.650770" lon="4.440060">
						<ele>683</ele>
						<time>2025-08-13T08:05:22Z</time>
					</trkpt>
					<trkpt lat="45.650600" lon="4.440750">
						<ele>681</ele>
						<time>2025-08-13T08:05:32Z</time>
					</trkpt>
					<trkpt lat="45.650580" lon="4.441010">
						<ele>680</ele>
						<time>2025-08-13T08:05:35Z</time>
					</trkpt>
					<trkpt lat="45.650660" lon="4.442210">
						<ele>680</ele>
						<time>2025-08-13T08:05:50Z</time>
					</trkpt>
					<trkpt lat="45.650620" lon="4.442400">
						<ele>680</ele>
						<time>2025-08-13T08:05:52Z</time>
					</trkpt>
					<trkpt lat="45.650250" lon="4.442770">
						<ele>678</ele>
						<time>2025-08-13T08:06:00Z</time>
					</trkpt>
					<trkpt lat="45.650080" lon="4.443030">
						<ele>679</ele>
						<time>2025-08-13T08:06:05Z</time>
					</trkpt>
					<trkpt lat="45.649970" lon="4.443390">
						<ele>680</ele>
						<time>2025-08-13T08:06:10Z</time>
					</trkpt>
					<trkpt lat="45.649890" lon="4.444100">
						<ele>682</ele>
						<time>2025-08-13T08:06:19Z</time>
					</trkpt>
					<trkpt lat="45.649890" lon="4.444400">
						<ele>681</ele>
						<time>2025-08-13T08:06:22Z</time>
					</trkpt>
					<trkpt lat="45.649950" lon="4.444790">
						<ele>681</ele>
						<time>2025-08-13T08:06:27Z</time>
					</trkpt>
					<trkpt lat="45.650150" lon="4.445240">
						<ele>679</ele>
						<time>2025-08-13T08:06:34Z</time>
					</trkpt>
					<trkpt lat="45.650900" lon="4.446350">
						<ele>675</ele>
						<time>2025-08-13T08:06:53Z</time>
					</trkpt>
					<trkpt lat="45.651180" lon="4.446690">
						<ele>673</ele>
						<time>2025-08-13T08:07:00Z</time>
					</trkpt>
					<trkpt lat="45.651990" lon="4.447470">
						<ele>667</ele>
						<time>2025-08-13T08:07:17Z</time>
					</trkpt>
					<trkpt lat="45.652210" lon="4.447640">
						<ele>668</ele>
						<time>2025-08-13T08:07:21Z</time>
					</trkpt>
					<trkpt lat="45.652310" lon="4.447830">
						<ele>667</ele>
						<time>2025-08-13T08:07:24Z</time>
					</trkpt>
					<trkpt lat="45.652380" lon="4.448070">
						<ele>667</ele>
						<time>2025-08-13T08:07:28Z</time>
					</trkpt>
					<trkpt lat="45.652360" lon="4.448280">
						<ele>666</ele>
						<time>2025-08-13T08:07:30Z</time>
					</trkpt>
					<trkpt lat="45.652230" lon="4.448450">
						<ele>665</ele>
						<time>2025-08-13T08:07:33Z</time>
					</trkpt>
					<trkpt lat="45.649760" lon="4.450060">
						<ele>652</ele>
						<time>2025-08-13T08:08:22Z</time>
					</trkpt>
					<trkpt lat="45.649290" lon="4.450410">
						<ele>649</ele>
						<time>2025-08-13T08:08:31Z</time>
					</trkpt>
					<trkpt lat="45.648920" lon="4.450510">
						<ele>647</ele>
						<time>2025-08-13T08:08:38Z</time>
					</trkpt>
					<trkpt lat="45.647610" lon="4.450560">
						<ele>643</ele>
						<time>2025-08-13T08:09:01Z</time>
					</trkpt>
					<trkpt lat="45.646370" lon="4.450320">
						<ele>638</ele>
						<time>2025-08-13T08:09:23Z</time>
					</trkpt>
					<trkpt lat="45.645230" lon="4.449870">
						<ele>638</ele>
						<time>2025-08-13T08:09:44Z</time>
					</trkpt>
					<trkpt lat="45.644350" lon="4.449680">
						<ele>637</ele>
						<time>2025-08-13T08:10:00Z</time>
					</trkpt>
					<trkpt lat="45.643730" lon="4.449850">
						<ele>635</ele>
						<time>2025-08-13T08:10:12Z</time>
					</trkpt>
					<trkpt lat="45.643430" lon="4.449890">
						<ele>635</ele>
						<time>2025-08-13T08:10:17Z</time>
					</trkpt>
					<trkpt lat="45.643240" lon="4.449890">
						<ele>635</ele>
						<time>2025-08-13T08:10:20Z</time>
					</trkpt>
					<trkpt lat="45.642870" lon="4.449760">
						<ele>633</ele>
						<time>2025-08-13T08:10:27Z</time>
					</trkpt>
					<trkpt lat="45.642160" lon="4.449360">
						<ele>629</ele>
						<time>2025-08-13T08:10:41Z</time>
					</trkpt>
					<trkpt lat="45.641970" lon="4.449310">
						<ele>628</ele>
						<time>2025-08-13T08:10:44Z</time>
					</trkpt>
					<trkpt lat="45.641540" lon="4.449380">
						<ele>625</ele>
						<time>2025-08-13T08:10:52Z</time>
					</trkpt>
					<trkpt lat="45.640700" lon="4.449890">
						<ele>617</ele>
						<time>2025-08-13T08:11:08Z</time>
					</trkpt>
					<trkpt lat="45.640550" lon="4.450060">
						<ele>616</ele>
						<time>2025-08-13T08:11:11Z</time>
					</trkpt>
					<trkpt lat="45.640430" lon="4.450280">
						<ele>615</ele>
						<time>2025-08-13T08:11:15Z</time>
					</trkpt>
					<trkpt lat="45.640040" lon="4.451200">
						<ele>610</ele>
						<time>2025-08-13T08:11:28Z</time>
					</trkpt>
					<trkpt lat="45.639870" lon="4.451500">
						<ele>607</ele>
						<time>2025-08-13T08:11:33Z</time>
					</trkpt>
					<trkpt lat="45.639590" lon="4.451820">
						<ele>605</ele>
						<time>2025-08-13T08:11:39Z</time>
					</trkpt>
					<trkpt lat="45.639030" lon="4.452270">
						<ele>602</ele>
						<time>2025-08-13T08:11:51Z</time>
					</trkpt>
					<trkpt lat="45.638670" lon="4.452790">
						<ele>599</ele>
						<time>2025-08-13T08:12:00Z</time>
					</trkpt>
					<trkpt lat="45.638540" lon="4.453090">
						<ele>598</ele>
						<time>2025-08-13T08:12:04Z</time>
					</trkpt>
					<trkpt lat="45.638450" lon="4.453450">
						<ele>596</ele>
						<time>2025-08-13T08:12:09Z</time>
					</trkpt>
					<trkpt lat="45.638300" lon="4.454630">
						<ele>590</ele>
						<time>2025-08-13T08:12:24Z</time>
					</trkpt>
					<trkpt lat="45.638040" lon="4.455620">
						<ele>587</ele>
						<time>2025-08-13T08:12:37Z</time>
					</trkpt>
					<trkpt lat="45.637920" lon="4.455880">
						<ele>586</ele>
						<time>2025-08-13T08:12:41Z</time>
					</trkpt>
					<trkpt lat="45.637720" lon="4.456090">
						<ele>586</ele>
						<time>2025-08-13T08:12:45Z</time>
					</trkpt>
					<trkpt lat="45.637460" lon="4.456220">
						<ele>585</ele>
						<time>2025-08-13T08:12:50Z</time>
					</trkpt>
					<trkpt lat="45.636350" lon="4.456570">
						<ele>580</ele>
						<time>2025-08-13T08:13:11Z</time>
					</trkpt>
					<trkpt lat="45.635940" lon="4.456650">
						<ele>581</ele>
						<time>2025-08-13T08:13:18Z</time>
					</trkpt>
					<trkpt lat="45.635700" lon="4.456630">
						<ele>582</ele>
						<time>2025-08-13T08:13:22Z</time>
					</trkpt>
					<trkpt lat="45.635530" lon="4.456500">
						<ele>583</ele>
						<time>2025-08-13T08:13:26Z</time>
					</trkpt>
					<trkpt lat="45.635190" lon="4.456070">
						<ele>580</ele>
						<time>2025-08-13T08:13:34Z</time>
					</trkpt>
					<trkpt lat="45.635020" lon="4.455960">
						<ele>579</ele>
						<time>2025-08-13T08:13:37Z</time>
					</trkpt>
					<trkpt lat="45.634870" lon="4.455990">
						<ele>579</ele>
						<time>2025-08-13T08:13:40Z</time>
					</trkpt>
					<trkpt lat="45.634120" lon="4.456420">
						<ele>582</ele>
						<time>2025-08-13T08:13:54Z</time>
					</trkpt>
					<trkpt lat="45.633110" lon="4.456590">
						<ele>588</ele>
						<time>2025-08-13T08:14:12Z</time>
					</trkpt>
					<trkpt lat="45.632570" lon="4.456760">
						<ele>590</ele>
						<time>2025-08-13T08:14:22Z</time>
					</trkpt>
					<trkpt lat="45.631740" lon="4.456500">
						<ele>585</ele>
						<time>2025-08-13T08:14:37Z</time>
					</trkpt>
					<trkpt lat="45.631500" lon="4.456240">
						<ele>584</ele>
						<time>2025-08-13T08:14:43Z</time>
					</trkpt>
					<trkpt lat="45.630960" lon="4.455560">
						<ele>579</ele>
						<time>2025-08-13T08:14:55Z</time>
					</trkpt>
					<trkpt lat="45.630810" lon="4.455410">
						<ele>577</ele>
						<time>2025-08-13T08:14:59Z</time>
					</trkpt>
					<trkpt lat="45.630810" lon="4.455280">
						<ele>577</ele>
						<time>2025-08-13T08:15:00Z</time>
					</trkpt>
					<trkpt lat="45.630770" lon="4.455210">
						<ele>576</ele>
						<time>2025-08-13T08:15:01Z</time>
					</trkpt>
					<trkpt lat="45.630730" lon="4.455190">
						<ele>576</ele>
						<time>2025-08-13T08:15:02Z</time>
					</trkpt>
					<trkpt lat="45.630640" lon="4.455240">
						<ele>575</ele>
						<time>2025-08-13T08:15:04Z</time>
					</trkpt>
					<trkpt lat="45.630620" lon="4.455620">
						<ele>576</ele>
						<time>2025-08-13T08:15:09Z</time>
					</trkpt>
					<trkpt lat="45.630640" lon="4.455640">
						<ele>576</ele>
						<time>2025-08-13T08:15:09Z</time>
					</trkpt>
					<trkpt lat="45.630320" lon="4.457190">
						<ele>575</ele>
						<time>2025-08-13T08:15:29Z</time>
					</trkpt>
					<trkpt lat="45.629570" lon="4.460040">
						<ele>571</ele>
						<time>2025-08-13T08:16:07Z</time>
					</trkpt>
					<trkpt lat="45.629530" lon="4.460470">
						<ele>570</ele>
						<time>2025-08-13T08:16:12Z</time>
					</trkpt>
					<trkpt lat="45.629550" lon="4.460710">
						<ele>571</ele>
						<time>2025-08-13T08:16:15Z</time>
					</trkpt>
					<trkpt lat="45.629650" lon="4.460990">
						<ele>571</ele>
						<time>2025-08-13T08:16:19Z</time>
					</trkpt>
					<trkpt lat="45.630060" lon="4.461440">
						<ele>575</ele>
						<time>2025-08-13T08:16:29Z</time>
					</trkpt>
					<trkpt lat="45.630210" lon="4.461780">
						<ele>575</ele>
						<time>2025-08-13T08:16:34Z</time>
					</trkpt>
					<trkpt lat="45.630150" lon="4.463170">
						<ele>568</ele>
						<time>2025-08-13T08:16:51Z</time>
					</trkpt>
					<trkpt lat="45.629890" lon="4.464200">
						<ele>566</ele>
						<time>2025-08-13T08:17:04Z</time>
					</trkpt>
					<trkpt lat="45.629780" lon="4.465000">
						<ele>562</ele>
						<time>2025-08-13T08:17:15Z</time>
					</trkpt>
					<trkpt lat="45.629800" lon="4.465360">
						<ele>560</ele>
						<time>2025-08-13T08:17:19Z</time>
					</trkpt>
					<trkpt lat="45.630170" lon="4.466540">
						<ele>552</ele>
						<time>2025-08-13T08:17:35Z</time>
					</trkpt>
					<trkpt lat="45.630230" lon="4.467040">
						<ele>547</ele>
						<time>2025-08-13T08:17:42Z</time>
					</trkpt>
					<trkpt lat="45.630170" lon="4.467530">
						<ele>542</ele>
						<time>2025-08-13T08:17:48Z</time>
					</trkpt>
					<trkpt lat="45.630000" lon="4.467920">
						<ele>546</ele>
						<time>2025-08-13T08:17:53Z</time>
					</trkpt>
					<trkpt lat="45.629700" lon="4.468300">
						<ele>546</ele>
						<time>2025-08-13T08:18:01Z</time>
					</trkpt>
					<trkpt lat="45.628390" lon="4.469310">
						<ele>543</ele>
						<time>2025-08-13T08:18:27Z</time>
					</trkpt>
					<trkpt lat="45.627470" lon="4.470430">
						<ele>537</ele>
						<time>2025-08-13T08:18:49Z</time>
					</trkpt>
					<trkpt lat="45.627140" lon="4.470940">
						<ele>535</ele>
						<time>2025-08-13T08:18:57Z</time>
					</trkpt>
					<trkpt lat="45.626740" lon="4.471780">
						<ele>533</ele>
						<time>2025-08-13T08:19:10Z</time>
					</trkpt>
					<trkpt lat="45.626650" lon="4.471910">
						<ele>533</ele>
						<time>2025-08-13T08:19:12Z</time>
					</trkpt>
					<trkpt lat="45.626310" lon="4.472250">
						<ele>532</ele>
						<time>2025-08-13T08:19:19Z</time>
					</trkpt>
					<trkpt lat="45.626030" lon="4.472640">
						<ele>532</ele>
						<time>2025-08-13T08:19:26Z</time>
					</trkpt>
					<trkpt lat="45.625830" lon="4.473130">
						<ele>534</ele>
						<time>2025-08-13T08:19:34Z</time>
					</trkpt>
					<trkpt lat="45.625410" lon="4.474610">
						<ele>535</ele>
						<time>2025-08-13T08:19:53Z</time>
					</trkpt>
					<trkpt lat="45.623970" lon="4.482210">
						<ele>537</ele>
						<time>2025-08-13T08:21:31Z</time>
					</trkpt>
					<trkpt lat="45.623950" lon="4.482770">
						<ele>539</ele>
						<time>2025-08-13T08:21:38Z</time>
					</trkpt>
					<trkpt lat="45.624030" lon="4.483170">
						<ele>539</ele>
						<time>2025-08-13T08:21:44Z</time>
					</trkpt>
					<trkpt lat="45.624400" lon="4.483970">
						<ele>544</ele>
						<time>2025-08-13T08:21:55Z</time>
					</trkpt>
					<trkpt lat="45.624460" lon="4.484480">
						<ele>547</ele>
						<time>2025-08-13T08:22:02Z</time>
					</trkpt>
					<trkpt lat="45.624440" lon="4.484740">
						<ele>547</ele>
						<time>2025-08-13T08:22:05Z</time>
					</trkpt>
					<trkpt lat="45.624310" lon="4.485100">
						<ele>547</ele>
						<time>2025-08-13T08:22:10Z</time>
					</trkpt>
					<trkpt lat="45.624180" lon="4.485340">
						<ele>548</ele>
						<time>2025-08-13T08:22:14Z</time>
					</trkpt>
					<trkpt lat="45.623710" lon="4.486070">
						<ele>549</ele>
						<time>2025-08-13T08:22:26Z</time>
					</trkpt>
					<trkpt lat="45.623200" lon="4.486990">
						<ele>550</ele>
						<time>2025-08-13T08:22:41Z</time>
					</trkpt>
					<trkpt lat="45.622980" lon="4.487550">
						<ele>550</ele>
						<time>2025-08-13T08:22:49Z</time>
					</trkpt>
					<trkpt lat="45.622870" lon="4.488090">
						<ele>551</ele>
						<time>2025-08-13T08:22:56Z</time>
					</trkpt>
					<trkpt lat="45.622830" lon="4.488430">
						<ele>551</ele>
						<time>2025-08-13T08:23:00Z</time>
					</trkpt>
					<trkpt lat="45.622830" lon="4.488640">
						<ele>550</ele>
						<time>2025-08-13T08:23:03Z</time>
					</trkpt>
					<trkpt lat="45.622870" lon="4.488970">
						<ele>551</ele>
						<time>2025-08-13T08:23:07Z</time>
					</trkpt>
					<trkpt lat="45.622980" lon="4.489350">
						<ele>551</ele>
						<time>2025-08-13T08:23:12Z</time>
					</trkpt>
					<trkpt lat="45.623520" lon="4.490320">
						<ele>555</ele>
						<time>2025-08-13T08:23:28Z</time>
					</trkpt>
					<trkpt lat="45.623580" lon="4.490600">
						<ele>554</ele>
						<time>2025-08-13T08:23:31Z</time>
					</trkpt>
					<trkpt lat="45.623620" lon="4.490850">
						<ele>553</ele>
						<time>2025-08-13T08:23:34Z</time>
					</trkpt>
					<trkpt lat="45.623690" lon="4.494550">
						<ele>550</ele>
						<time>2025-08-13T08:24:20Z</time>
					</trkpt>
					<trkpt lat="45.623750" lon="4.494890">
						<ele>550</ele>
						<time>2025-08-13T08:24:25Z</time>
					</trkpt>
					<trkpt lat="45.623920" lon="4.495530">
						<ele>549</ele>
						<time>2025-08-13T08:24:33Z</time>
					</trkpt>
					<trkpt lat="45.624230" lon="4.496390">
						<ele>548</ele>
						<time>2025-08-13T08:24:45Z</time>
					</trkpt>
					<trkpt lat="45.624250" lon="4.496730">
						<ele>547</ele>
						<time>2025-08-13T08:24:50Z</time>
					</trkpt>
					<trkpt lat="45.624180" lon="4.497230">
						<ele>549</ele>
						<time>2025-08-13T08:24:56Z</time>
					</trkpt>
					<trkpt lat="45.623950" lon="4.497720">
						<ele>551</ele>
						<time>2025-08-13T08:25:03Z</time>
					</trkpt>
					<trkpt lat="45.623670" lon="4.498210">
						<ele>551</ele>
						<time>2025-08-13T08:25:11Z</time>
					</trkpt>
					<trkpt lat="45.623410" lon="4.498750">
						<ele>549</ele>
						<time>2025-08-13T08:25:19Z</time>
					</trkpt>
					<trkpt lat="45.623280" lon="4.499200">
						<ele>549</ele>
						<time>2025-08-13T08:25:25Z</time>
					</trkpt>
					<trkpt lat="45.623240" lon="4.499440">
						<ele>550</ele>
						<time>2025-08-13T08:25:28Z</time>
					</trkpt>
					<trkpt lat="45.623280" lon="4.499910">
						<ele>552</ele>
						<time>2025-08-13T08:25:34Z</time>
					</trkpt>
					<trkpt lat="45.623500" lon="4.500530">
						<ele>554</ele>
						<time>2025-08-13T08:25:43Z</time>
					</trkpt>
					<trkpt lat="45.623710" lon="4.500900">
						<ele>556</ele>
						<time>2025-08-13T08:25:49Z</time>
					</trkpt>
					<trkpt lat="45.623860" lon="4.501000">
						<ele>557</ele>
						<time>2025-08-13T08:25:52Z</time>
					</trkpt>
					<trkpt lat="45.624070" lon="4.501090">
						<ele>558</ele>
						<time>2025-08-13T08:25:56Z</time>
					</trkpt>
					<trkpt lat="45.625450" lon="4.501430">
						<ele>566</ele>
						<time>2025-08-13T08:26:21Z</time>
					</trkpt>
					<trkpt lat="45.626260" lon="4.501780">
						<ele>570</ele>
						<time>2025-08-13T08:26:36Z</time>
					</trkpt>
					<trkpt lat="45.626630" lon="4.502120">
						<ele>569</ele>
						<time>2025-08-13T08:26:44Z</time>
					</trkpt>
					<trkpt lat="45.626950" lon="4.502700">
						<ele>566</ele>
						<time>2025-08-13T08:26:53Z</time>
					</trkpt>
					<trkpt lat="45.627010" lon="4.502910">
						<ele>566</ele>
						<time>2025-08-13T08:26:56Z</time>
					</trkpt>
					<trkpt lat="45.627010" lon="4.503340">
						<ele>565</ele>
						<time>2025-08-13T08:27:01Z</time>
					</trkpt>
					<trkpt lat="45.626710" lon="4.505320">
						<ele>566</ele>
						<time>2025-08-13T08:27:26Z</time>
					</trkpt>
					<trkpt lat="45.626330" lon="4.507060">
						<ele>568</ele>
						<time>2025-08-13T08:27:49Z</time>
					</trkpt>
					<trkpt lat="45.626200" lon="4.507440">
						<ele>567</ele>
						<time>2025-08-13T08:27:54Z</time>
					</trkpt>
					<trkpt lat="45.626030" lon="4.507680">
						<ele>564</ele>
						<time>2025-08-13T08:27:58Z</time>
					</trkpt>
					<trkpt lat="45.625750" lon="4.508240">
						<ele>562</ele>
						<time>2025-08-13T08:28:07Z</time>
					</trkpt>
					<trkpt lat="45.625680" lon="4.508430">
						<ele>562</ele>
						<time>2025-08-13T08:28:10Z</time>
					</trkpt>
					<trkpt lat="45.625660" lon="4.508690">
						<ele>561</ele>
						<time>2025-08-13T08:28:13Z</time>
					</trkpt>
					<trkpt lat="45.625880" lon="4.511990">
						<ele>575</ele>
						<time>2025-08-13T08:28:54Z</time>
					</trkpt>
					<trkpt lat="45.625860" lon="4.513000">
						<ele>578</ele>
						<time>2025-08-13T08:29:07Z</time>
					</trkpt>
					<trkpt lat="45.625770" lon="4.513410">
						<ele>578</ele>
						<time>2025-08-13T08:29:12Z</time>
					</trkpt>
					<trkpt lat="45.625710" lon="4.513560">
						<ele>578</ele>
						<time>2025-08-13T08:29:14Z</time>
					</trkpt>
					<trkpt lat="45.625510" lon="4.513900">
						<ele>579</ele>
						<time>2025-08-13T08:29:20Z</time>
					</trkpt>
					<trkpt lat="45.624760" lon="4.514610">
						<ele>580</ele>
						<time>2025-08-13T08:29:36Z</time>
					</trkpt>
					<trkpt lat="45.624480" lon="4.515100">
						<ele>581</ele>
						<time>2025-08-13T08:29:44Z</time>
					</trkpt>
					<trkpt lat="45.624270" lon="4.515720">
						<ele>582</ele>
						<time>2025-08-13T08:29:52Z</time>
					</trkpt>
					<trkpt lat="45.624140" lon="4.516320">
						<ele>582</ele>
						<time>2025-08-13T08:30:00Z</time>
					</trkpt>
					<trkpt lat="45.624140" lon="4.516560">
						<ele>583</ele>
						<time>2025-08-13T08:30:03Z</time>
					</trkpt>
					<trkpt lat="45.624180" lon="4.516710">
						<ele>584</ele>
						<time>2025-08-13T08:30:05Z</time>
					</trkpt>
					<trkpt lat="45.624330" lon="4.517100">
						<ele>585</ele>
						<time>2025-08-13T08:30:10Z</time>
					</trkpt>
					<trkpt lat="45.624610" lon="4.517570">
						<ele>588</ele>
						<time>2025-08-13T08:30:18Z</time>
					</trkpt>
					<trkpt lat="45.624760" lon="4.517890">
						<ele>589</ele>
						<time>2025-08-13T08:30:23Z</time>
					</trkpt>
					<trkpt lat="45.625000" lon="4.518960">
						<ele>585</ele>
						<time>2025-08-13T08:30:37Z</time>
					</trkpt>
					<trkpt lat="45.625130" lon="4.519350">
						<ele>585</ele>
						<time>2025-08-13T08:30:42Z</time>
					</trkpt>
					<trkpt lat="45.625280" lon="4.519610">
						<ele>585</ele>
						<time>2025-08-13T08:30:46Z</time>
					</trkpt>
					<trkpt lat="45.625560" lon="4.519800">
						<ele>587</ele>
						<time>2025-08-13T08:30:52Z</time>
					</trkpt>
					<trkpt lat="45.625830" lon="4.519930">
						<ele>590</ele>
						<time>2025-08-13T08:30:57Z</time>
					</trkpt>
					<trkpt lat="45.626070" lon="4.520170">
						<ele>592</ele>
						<time>2025-08-13T08:31:02Z</time>
					</trkpt>
					<trkpt lat="45.626290" lon="4.520470">
						<ele>594</ele>
						<time>2025-08-13T08:31:08Z</time>
					</trkpt>
					<trkpt lat="45.626710" lon="4.521260">
						<ele>593</ele>
						<time>2025-08-13T08:31:20Z</time>
					</trkpt>
					<trkpt lat="45.626860" lon="4.521600">
						<ele>592</ele>
						<time>2025-08-13T08:31:25Z</time>
					</trkpt>
					<trkpt lat="45.627160" lon="4.522660">
						<ele>589</ele>
						<time>2025-08-13T08:31:39Z</time>
					</trkpt>
					<trkpt lat="45.627320" lon="4.523080">
						<ele>588</ele>
						<time>2025-08-13T08:31:45Z</time>
					</trkpt>
					<trkpt lat="45.628070" lon="4.524010">
						<ele>589</ele>
						<time>2025-08-13T08:32:03Z</time>
					</trkpt>
					<trkpt lat="45.628240" lon="4.524650">
						<ele>585</ele>
						<time>2025-08-13T08:32:11Z</time>
					</trkpt>
					<trkpt lat="45.628260" lon="4.525100">
						<ele>582</ele>
						<time>2025-08-13T08:32:17Z</time>
					</trkpt>
					<trkpt lat="45.628710" lon="4.525290">
						<ele>584</ele>
						<time>2025-08-13T08:32:25Z</time>
					</trkpt>
					<trkpt lat="45.628710" lon="4.525340">
						<ele>584</ele>
						<time>2025-08-13T08:32:26Z</time>
					</trkpt>
					<trkpt lat="45.628770" lon="4.525470">
						<ele>584</ele>
						<time>2025-08-13T08:32:28Z</time>
					</trkpt>
					<trkpt lat="45.629610" lon="4.526670">
						<ele>587</ele>
						<time>2025-08-13T08:32:49Z</time>
					</trkpt>
					<trkpt lat="45.630000" lon="4.526900">
						<ele>584</ele>
						<time>2025-08-13T08:32:57Z</time>
					</trkpt>
					<trkpt lat="45.631430" lon="4.527270">
						<ele>589</ele>
						<time>2025-08-13T08:33:22Z</time>
					</trkpt>
					<trkpt lat="45.631710" lon="4.527250">
						<ele>589</ele>
						<time>2025-08-13T08:33:27Z</time>
					</trkpt>
					<trkpt lat="45.631970" lon="4.527200">
						<ele>591</ele>
						<time>2025-08-13T08:33:32Z</time>
					</trkpt>
					<trkpt lat="45.632310" lon="4.526990">
						<ele>591</ele>
						<time>2025-08-13T08:33:39Z</time>
					</trkpt>
					<trkpt lat="45.632940" lon="4.526730">
						<ele>589</ele>
						<time>2025-08-13T08:33:50Z</time>
					</trkpt>
					<trkpt lat="45.633340" lon="4.526710">
						<ele>588</ele>
						<time>2025-08-13T08:33:57Z</time>
					</trkpt>
					<trkpt lat="45.634440" lon="4.526950">
						<ele>593</ele>
						<time>2025-08-13T08:34:17Z</time>
					</trkpt>
					<trkpt lat="45.634850" lon="4.527160">
						<ele>594</ele>
						<time>2025-08-13T08:34:25Z</time>
					</trkpt>
					<trkpt lat="45.635060" lon="4.527420">
						<ele>596</ele>
						<time>2025-08-13T08:34:30Z</time>
					</trkpt>
					<trkpt lat="45.635190" lon="4.527800">
						<ele>597</ele>
						<time>2025-08-13T08:34:35Z</time>
					</trkpt>
					<trkpt lat="45.635360" lon="4.528640">
						<ele>599</ele>
						<time>2025-08-13T08:34:46Z</time>
					</trkpt>
					<trkpt lat="45.635490" lon="4.528990">
						<ele>599</ele>
						<time>2025-08-13T08:34:51Z</time>
					</trkpt>
					<trkpt lat="45.636370" lon="4.530010">
						<ele>597</ele>
						<time>2025-08-13T08:35:11Z</time>
					</trkpt>
					<trkpt lat="45.636760" lon="4.530920">
						<ele>598</ele>
						<time>2025-08-13T08:35:24Z</time>
					</trkpt>
					<trkpt lat="45.637010" lon="4.531110">
						<ele>599</ele>
						<time>2025-08-13T08:35:29Z</time>
					</trkpt>
					<trkpt lat="45.637290" lon="4.531280">
						<ele>598</ele>
						<time>2025-08-13T08:35:35Z</time>
					</trkpt>
					<trkpt lat="45.637640" lon="4.531600">
						<ele>598</ele>
						<time>2025-08-13T08:35:42Z</time>
					</trkpt>
					<trkpt lat="45.637740" lon="4.531900">
						<ele>599</ele>
						<time>2025-08-13T08:35:46Z</time>
					</trkpt>
					<trkpt lat="45.637980" lon="4.532460">
						<ele>600</ele>
						<time>2025-08-13T08:35:55Z</time>
					</trkpt>
					<trkpt lat="45.638220" lon="4.532680">
						<ele>601</ele>
						<time>2025-08-13T08:36:00Z</time>
					</trkpt>
					<trkpt lat="45.638430" lon="4.532780">
						<ele>601</ele>
						<time>2025-08-13T08:36:04Z</time>
					</trkpt>
					<trkpt lat="45.638920" lon="4.532850">
						<ele>601</ele>
						<time>2025-08-13T08:36:12Z</time>
					</trkpt>
					<trkpt lat="45.639250" lon="4.532930">
						<ele>601</ele>
						<time>2025-08-13T08:36:18Z</time>
					</trkpt>
					<trkpt lat="45.639550" lon="4.533150">
						<ele>601</ele>
						<time>2025-08-13T08:36:24Z</time>
					</trkpt>
					<trkpt lat="45.639800" lon="4.533600">
						<ele>604</ele>
						<time>2025-08-13T08:36:31Z</time>
					</trkpt>
					<trkpt lat="45.640060" lon="4.533830">
						<ele>606</ele>
						<time>2025-08-13T08:36:37Z</time>
					</trkpt>
					<trkpt lat="45.640600" lon="4.534030">
						<ele>605</ele>
						<time>2025-08-13T08:36:47Z</time>
					</trkpt>
					<trkpt lat="45.640850" lon="4.534240">
						<ele>606</ele>
						<time>2025-08-13T08:36:52Z</time>
					</trkpt>
					<trkpt lat="45.641820" lon="4.535250">
						<ele>613</ele>
						<time>2025-08-13T08:37:13Z</time>
					</trkpt>
					<trkpt lat="45.642250" lon="4.535210">
						<ele>613</ele>
						<time>2025-08-13T08:37:21Z</time>
					</trkpt>
					<trkpt lat="45.642830" lon="4.534990">
						<ele>614</ele>
						<time>2025-08-13T08:37:32Z</time>
					</trkpt>
					<trkpt lat="45.643470" lon="4.534800">
						<ele>613</ele>
						<time>2025-08-13T08:37:43Z</time>
					</trkpt>
					<trkpt lat="45.643840" lon="4.535010">
						<ele>614</ele>
						<time>2025-08-13T08:37:50Z</time>
					</trkpt>
					<trkpt lat="45.644180" lon="4.535360">
						<ele>616</ele>
						<time>2025-08-13T08:37:58Z</time>
					</trkpt>
					<trkpt lat="45.646180" lon="4.536390">
						<ele>620</ele>
						<time>2025-08-13T08:38:36Z</time>
					</trkpt>
					<trkpt lat="45.646430" lon="4.536560">
						<ele>621</ele>
						<time>2025-08-13T08:38:41Z</time>
					</trkpt>
					<trkpt lat="45.646630" lon="4.536800">
						<ele>622</ele>
						<time>2025-08-13T08:38:45Z</time>
					</trkpt>
					<trkpt lat="45.647140" lon="4.537630">
						<ele>622</ele>
						<time>2025-08-13T08:38:59Z</time>
					</trkpt>
					<trkpt lat="45.647250" lon="4.538190">
						<ele>624</ele>
						<time>2025-08-13T08:39:06Z</time>
					</trkpt>
					<trkpt lat="45.647160" lon="4.539110">
						<ele>632</ele>
						<time>2025-08-13T08:39:18Z</time>
					</trkpt>
					<trkpt lat="45.647160" lon="4.539310">
						<ele>634</ele>
						<time>2025-08-13T08:39:20Z</time>
					</trkpt>
					<trkpt lat="45.647310" lon="4.539840">
						<ele>634</ele>
						<time>2025-08-13T08:39:27Z</time>
					</trkpt>
					<trkpt lat="45.647720" lon="4.540420">
						<ele>635</ele>
						<time>2025-08-13T08:39:38Z</time>
					</trkpt>
					<trkpt lat="45.647960" lon="4.540920">
						<ele>639</ele>
						<time>2025-08-13T08:39:45Z</time>
					</trkpt>
					<trkpt lat="45.648240" lon="4.541240">
						<ele>641</ele>
						<time>2025-08-13T08:39:52Z</time>
					</trkpt>
					<trkpt lat="45.648600" lon="4.541370">
						<ele>642</ele>
						<time>2025-08-13T08:39:58Z</time>
					</trkpt>
					<trkpt lat="45.648880" lon="4.541320">
						<ele>642</ele>
						<time>2025-08-13T08:40:03Z</time>
					</trkpt>
					<trkpt lat="45.649050" lon="4.541240">
						<ele>642</ele>
						<time>2025-08-13T08:40:06Z</time>
					</trkpt>
					<trkpt lat="45.649160" lon="4.541150">
						<ele>642</ele>
						<time>2025-08-13T08:40:09Z</time>
					</trkpt>
					<trkpt lat="45.649330" lon="4.540940">
						<ele>645</ele>
						<time>2025-08-13T08:40:13Z</time>
					</trkpt>
					<trkpt lat="45.649610" lon="4.540210">
						<ele>647</ele>
						<time>2025-08-13T08:40:23Z</time>
					</trkpt>
					<trkpt lat="45.649760" lon="4.539930">
						<ele>647</ele>
						<time>2025-08-13T08:40:27Z</time>
					</trkpt>
					<trkpt lat="45.650020" lon="4.539710">
						<ele>649</ele>
						<time>2025-08-13T08:40:33Z</time>
					</trkpt>
					<trkpt lat="45.650270" lon="4.539590">
						<ele>648</ele>
						<time>2025-08-13T08:40:37Z</time>
					</trkpt>
					<trkpt lat="45.650470" lon="4.539590">
						<ele>648</ele>
						<time>2025-08-13T08:40:41Z</time>
					</trkpt>
					<trkpt lat="45.650920" lon="4.539760">
						<ele>649</ele>
						<time>2025-08-13T08:40:49Z</time>
					</trkpt>
					<trkpt lat="45.651130" lon="4.539950">
						<ele>648</ele>
						<time>2025-08-13T08:40:54Z</time>
					</trkpt>
					<trkpt lat="45.651780" lon="4.540870">
						<ele>654</ele>
						<time>2025-08-13T08:41:10Z</time>
					</trkpt>
					<trkpt lat="45.651930" lon="4.541170">
						<ele>654</ele>
						<time>2025-08-13T08:41:15Z</time>
					</trkpt>
					<trkpt lat="45.652030" lon="4.541490">
						<ele>655</ele>
						<time>2025-08-13T08:41:19Z</time>
					</trkpt>
					<trkpt lat="45.652060" lon="4.541920">
						<ele>657</ele>
						<time>2025-08-13T08:41:24Z</time>
					</trkpt>
					<trkpt lat="45.651840" lon="4.543170">
						<ele>663</ele>
						<time>2025-08-13T08:41:40Z</time>
					</trkpt>
					<trkpt lat="45.651860" lon="4.543660">
						<ele>661</ele>
						<time>2025-08-13T08:41:46Z</time>
					</trkpt>
					<trkpt lat="45.651990" lon="4.544130">
						<ele>659</ele>
						<time>2025-08-13T08:41:53Z</time>
					</trkpt>
					<trkpt lat="45.652270" lon="4.544800">
						<ele>661</ele>
						<time>2025-08-13T08:42:02Z</time>
					</trkpt>
					<trkpt lat="45.652440" lon="4.545010">
						<ele>661</ele>
						<time>2025-08-13T08:42:06Z</time>
					</trkpt>
					<trkpt lat="45.652610" lon="4.545120">
						<ele>663</ele>
						<time>2025-08-13T08:42:10Z</time>
					</trkpt>
					<trkpt lat="45.652940" lon="4.545140">
						<ele>665</ele>
						<time>2025-08-13T08:42:16Z</time>
					</trkpt>
					<trkpt lat="45.653390" lon="4.545010">
						<ele>666</ele>
						<time>2025-08-13T08:42:24Z</time>
					</trkpt>
					<trkpt lat="45.653560" lon="4.545060">
						<ele>665</ele>
						<time>2025-08-13T08:42:27Z</time>
					</trkpt>
					<trkpt lat="45.653820" lon="4.545250">
						<ele>665</ele>
						<time>2025-08-13T08:42:32Z</time>
					</trkpt>
					<trkpt lat="45.653990" lon="4.545590">
						<ele>665</ele>
						<time>2025-08-13T08:42:37Z</time>
					</trkpt>
					<trkpt lat="45.654120" lon="4.546110">
						<ele>668</ele>
						<time>2025-08-13T08:42:44Z</time>
					</trkpt>
					<trkpt lat="45.654310" lon="4.546560">
						<ele>672</ele>
						<time>2025-08-13T08:42:51Z</time>
					</trkpt>
					<trkpt lat="45.654700" lon="4.547270">
						<ele>675</ele>
						<time>2025-08-13T08:43:02Z</time>
					</trkpt>
					<trkpt lat="45.654780" lon="4.547520">
						<ele>676</ele>
						<time>2025-08-13T08:43:05Z</time>
					</trkpt>
					<trkpt lat="45.654780" lon="4.548080">
						<ele>677</ele>
						<time>2025-08-13T08:43:12Z</time>
					</trkpt>
					<trkpt lat="45.654720" lon="4.548400">
						<ele>679</ele>
						<time>2025-08-13T08:43:16Z</time>
					</trkpt>
					<trkpt lat="45.654700" lon="4.548810">
						<ele>682</ele>
						<time>2025-08-13T08:43:22Z</time>
					</trkpt>
					<trkpt lat="45.654800" lon="4.549670">
						<ele>688</ele>
						<time>2025-08-13T08:43:32Z</time>
					</trkpt>
					<trkpt lat="45.654700" lon="4.550270">
						<ele>691</ele>
						<time>2025-08-13T08:43:40Z</time>
					</trkpt>
					<trkpt lat="45.654540" lon="4.550660">
						<ele>692</ele>
						<time>2025-08-13T08:43:46Z</time>
					</trkpt>
					<trkpt lat="45.654310" lon="4.550870">
						<ele>692</ele>
						<time>2025-08-13T08:43:50Z</time>
					</trkpt>
					<trkpt lat="45.653600" lon="4.551150">
						<ele>695</ele>
						<time>2025-08-13T08:44:04Z</time>
					</trkpt>
					<trkpt lat="45.653340" lon="4.551370">
						<ele>696</ele>
						<time>2025-08-13T08:44:09Z</time>
					</trkpt>
					<trkpt lat="45.653190" lon="4.551690">
						<ele>696</ele>
						<time>2025-08-13T08:44:14Z</time>
					</trkpt>
					<trkpt lat="45.653170" lon="4.552200">
						<ele>696</ele>
						<time>2025-08-13T08:44:20Z</time>
					</trkpt>
					<trkpt lat="45.653260" lon="4.552570">
						<ele>695</ele>
						<time>2025-08-13T08:44:25Z</time>
					</trkpt>
					<trkpt lat="45.653390" lon="4.552890">
						<ele>697</ele>
						<time>2025-08-13T08:44:30Z</time>
					</trkpt>
					<trkpt lat="45.653600" lon="4.553080">
						<ele>698</ele>
						<time>2025-08-13T08:44:34Z</time>
					</trkpt>
					<trkpt lat="45.653900" lon="4.553170">
						<ele>697</ele>
						<time>2025-08-13T08:44:39Z</time>
					</trkpt>
					<trkpt lat="45.654570" lon="4.553060">
						<ele>693</ele>
						<time>2025-08-13T08:44:51Z</time>
					</trkpt>
					<trkpt lat="45.654780" lon="4.553100">
						<ele>693</ele>
						<time>2025-08-13T08:44:55Z</time>
					</trkpt>
					<trkpt lat="45.655190" lon="4.553320">
						<ele>694</ele>
						<time>2025-08-13T08:45:03Z</time>
					</trkpt>
					<trkpt lat="45.655420" lon="4.553550">
						<ele>695</ele>
						<time>2025-08-13T08:45:08Z</time>
					</trkpt>
					<trkpt lat="45.655660" lon="4.553880">
						<ele>696</ele>
						<time>2025-08-13T08:45:14Z</time>
					</trkpt>
					<trkpt lat="45.655850" lon="4.554220">
						<ele>698</ele>
						<time>2025-08-13T08:45:19Z</time>
					</trkpt>
					<trkpt lat="45.655940" lon="4.554430">
						<ele>698</ele>
						<time>2025-08-13T08:45:22Z</time>
					</trkpt>
					<trkpt lat="45.656150" lon="4.555590">
						<ele>705</ele>
						<time>2025-08-13T08:45:37Z</time>
					</trkpt>
					<trkpt lat="45.656110" lon="4.556840">
						<ele>708</ele>
						<time>2025-08-13T08:45:53Z</time>
					</trkpt>
					<trkpt lat="45.656150" lon="4.557070">
						<ele>708</ele>
						<time>2025-08-13T08:45:56Z</time>
					</trkpt>
					<trkpt lat="45.656260" lon="4.557420">
						<ele>709</ele>
						<time>2025-08-13T08:46:01Z</time>
					</trkpt>
					<trkpt lat="45.656520" lon="4.558120">
						<ele>710</ele>
						<time>2025-08-13T08:46:10Z</time>
					</trkpt>
					<trkpt lat="45.656560" lon="4.558300">
						<ele>710</ele>
						<time>2025-08-13T08:46:13Z</time>
					</trkpt>
					<trkpt lat="45.656580" lon="4.558660">
						<ele>711</ele>
						<time>2025-08-13T08:46:17Z</time>
					</trkpt>
					<trkpt lat="45.656560" lon="4.558880">
						<ele>712</ele>
						<time>2025-08-13T08:46:20Z</time>
					</trkpt>
					<trkpt lat="45.656430" lon="4.559300">
						<ele>714</ele>
						<time>2025-08-13T08:46:26Z</time>
					</trkpt>
					<trkpt lat="45.656330" lon="4.559520">
						<ele>715</ele>
						<time>2025-08-13T08:46:29Z</time>
					</trkpt>
					<trkpt lat="45.655900" lon="4.560030">
						<ele>718</ele>
						<time>2025-08-13T08:46:39Z</time>
					</trkpt>
					<trkpt lat="45.655730" lon="4.560420">
						<ele>721</ele>
						<time>2025-08-13T08:46:45Z</time>
					</trkpt>
					<trkpt lat="45.655660" lon="4.560890">
						<ele>721</ele>
						<time>2025-08-13T08:46:51Z</time>
					</trkpt>
					<trkpt lat="45.655810" lon="4.561260">
						<ele>721</ele>
						<time>2025-08-13T08:46:56Z</time>
					</trkpt>
					<trkpt lat="45.655980" lon="4.561470">
						<ele>720</ele>
						<time>2025-08-13T08:47:00Z</time>
					</trkpt>
					<trkpt lat="45.656450" lon="4.561750">
						<ele>719</ele>
						<time>2025-08-13T08:47:09Z</time>
					</trkpt>
					<trkpt lat="45.656650" lon="4.561940">
						<ele>720</ele>
						<time>2025-08-13T08:47:13Z</time>
					</trkpt>
					<trkpt lat="45.657330" lon="4.563020">
						<ele>723</ele>
						<time>2025-08-13T08:47:31Z</time>
					</trkpt>
					<trkpt lat="45.657460" lon="4.563320">
						<ele>725</ele>
						<time>2025-08-13T08:47:36Z</time>
					</trkpt>
					<trkpt lat="45.657460" lon="4.563380">
						<ele>726</ele>
						<time>2025-08-13T08:47:37Z</time>
					</trkpt>
					<trkpt lat="45.658690" lon="4.563920">
						<ele>726</ele>
						<time>2025-08-13T08:47:59Z</time>
					</trkpt>
					<trkpt lat="45.658860" lon="4.564150">
						<ele>727</ele>
						<time>2025-08-13T08:48:04Z</time>
					</trkpt>
					<trkpt lat="45.658920" lon="4.564150">
						<ele>727</ele>
						<time>2025-08-13T08:48:05Z</time>
					</trkpt>
					<trkpt lat="45.658990" lon="4.564200">
						<ele>727</ele>
						<time>2025-08-13T08:48:06Z</time>
					</trkpt>
					<trkpt lat="45.659090" lon="4.564390">
						<ele>728</ele>
						<time>2025-08-13T08:48:09Z</time>
					</trkpt>
					<trkpt lat="45.659480" lon="4.564200">
						<ele>730</ele>
						<time>2025-08-13T08:48:16Z</time>
					</trkpt>
					<trkpt lat="45.659760" lon="4.564000">
						<ele>731</ele>
						<time>2025-08-13T08:48:22Z</time>
					</trkpt>
					<trkpt lat="45.660470" lon="4.563660">
						<ele>733</ele>
						<time>2025-08-13T08:48:35Z</time>
					</trkpt>
					<trkpt lat="45.660900" lon="4.563420">
						<ele>734</ele>
						<time>2025-08-13T08:48:43Z</time>
					</trkpt>
					<trkpt lat="45.661730" lon="4.563120">
						<ele>733</ele>
						<time>2025-08-13T08:48:59Z</time>
					</trkpt>
					<trkpt lat="45.662590" lon="4.563000">
						<ele>736</ele>
						<time>2025-08-13T08:49:14Z</time>
					</trkpt>
					<trkpt lat="45.662960" lon="4.562910">
						<ele>736</ele>
						<time>2025-08-13T08:49:21Z</time>
					</trkpt>
					<trkpt lat="45.663000" lon="4.563000">
						<ele>736</ele>
						<time>2025-08-13T08:49:22Z</time>
					</trkpt>
					<trkpt lat="45.663080" lon="4.562970">
						<ele>736</ele>
						<time>2025-08-13T08:49:24Z</time>
					</trkpt>
					<trkpt lat="45.663110" lon="4.562910">
						<ele>736</ele>
						<time>2025-08-13T08:49:24Z</time>
					</trkpt>
					<trkpt lat="45.663190" lon="4.562950">
						<ele>736</ele>
						<time>2025-08-13T08:49:26Z</time>
					</trkpt>
					<trkpt lat="45.663470" lon="4.563230">
						<ele>737</ele>
						<time>2025-08-13T08:49:32Z</time>
					</trkpt>
					<trkpt lat="45.663640" lon="4.562610">
						<ele>735</ele>
						<time>2025-08-13T08:49:40Z</time>
					</trkpt>
					<trkpt lat="45.663860" lon="4.562310">
						<ele>731</ele>
						<time>2025-08-13T08:49:46Z</time>
					</trkpt>
					<trkpt lat="45.664180" lon="4.562540">
						<ele>731</ele>
						<time>2025-08-13T08:49:52Z</time>
					</trkpt>
					<trkpt lat="45.664570" lon="4.562740">
						<ele>730</ele>
						<time>2025-08-13T08:49:59Z</time>
					</trkpt>
					<trkpt lat="45.665170" lon="4.562950">
						<ele>727</ele>
						<time>2025-08-13T08:50:10Z</time>
					</trkpt>
					<trkpt lat="45.665360" lon="4.563100">
						<ele>727</ele>
						<time>2025-08-13T08:50:14Z</time>
					</trkpt>
					<trkpt lat="45.665510" lon="4.563300">
						<ele>728</ele>
						<time>2025-08-13T08:50:18Z</time>
					</trkpt>
					<trkpt lat="45.665750" lon="4.563830">
						<ele>730</ele>
						<time>2025-08-13T08:50:26Z</time>
					</trkpt>
					<trkpt lat="45.665850" lon="4.563960">
						<ele>731</ele>
						<time>2025-08-13T08:50:28Z</time>
					</trkpt>
					<trkpt lat="45.665980" lon="4.564030">
						<ele>730</ele>
						<time>2025-08-13T08:50:31Z</time>
					</trkpt>
					<trkpt lat="45.666430" lon="4.564090">
						<ele>727</ele>
						<time>2025-08-13T08:50:39Z</time>
					</trkpt>
					<trkpt lat="45.666630" lon="4.564180">
						<ele>726</ele>
						<time>2025-08-13T08:50:42Z</time>
					</trkpt>
					<trkpt lat="45.666780" lon="4.564300">
						<ele>726</ele>
						<time>2025-08-13T08:50:46Z</time>
					</trkpt>
					<trkpt lat="45.666900" lon="4.564480">
						<ele>727</ele>
						<time>2025-08-13T08:50:49Z</time>
					</trkpt>
					<trkpt lat="45.667230" lon="4.565460">
						<ele>732</ele>
						<time>2025-08-13T08:51:02Z</time>
					</trkpt>
					<trkpt lat="45.667310" lon="4.565590">
						<ele>733</ele>
						<time>2025-08-13T08:51:04Z</time>
					</trkpt>
					<trkpt lat="45.667420" lon="4.565700">
						<ele>733</ele>
						<time>2025-08-13T08:51:07Z</time>
					</trkpt>
					<trkpt lat="45.667980" lon="4.565700">
						<ele>732</ele>
						<time>2025-08-13T08:51:17Z</time>
					</trkpt>
					<trkpt lat="45.668170" lon="4.565660">
						<ele>732</ele>
						<time>2025-08-13T08:51:20Z</time>
					</trkpt>
					<trkpt lat="45.668390" lon="4.565530">
						<ele>731</ele>
						<time>2025-08-13T08:51:24Z</time>
					</trkpt>
					<trkpt lat="45.668600" lon="4.565460">
						<ele>730</ele>
						<time>2025-08-13T08:51:28Z</time>
					</trkpt>
					<trkpt lat="45.669070" lon="4.565590">
						<ele>733</ele>
						<time>2025-08-13T08:51:37Z</time>
					</trkpt>
					<trkpt lat="45.669260" lon="4.565590">
						<ele>734</ele>
						<time>2025-08-13T08:51:40Z</time>
					</trkpt>
					<trkpt lat="45.669800" lon="4.565380">
						<ele>734</ele>
						<time>2025-08-13T08:51:50Z</time>
					</trkpt>
					<trkpt lat="45.670320" lon="4.565120">
						<ele>734</ele>
						<time>2025-08-13T08:52:00Z</time>
					</trkpt>
					<trkpt lat="45.671130" lon="4.564410">
						<ele>733</ele>
						<time>2025-08-13T08:52:17Z</time>
					</trkpt>
					<trkpt lat="45.671350" lon="4.564260">
						<ele>733</ele>
						<time>2025-08-13T08:52:21Z</time>
					</trkpt>
					<trkpt lat="45.671650" lon="4.564240">
						<ele>732</ele>
						<time>2025-08-13T08:52:26Z</time>
					</trkpt>
					<trkpt lat="45.671900" lon="4.564390">
						<ele>729</ele>
						<time>2025-08-13T08:52:31Z</time>
					</trkpt>
					<trkpt lat="45.672100" lon="4.564630">
						<ele>727</ele>
						<time>2025-08-13T08:52:36Z</time>
					</trkpt>
					<trkpt lat="45.672160" lon="4.564860">
						<ele>727</ele>
						<time>2025-08-13T08:52:39Z</time>
					</trkpt>
					<trkpt lat="45.672200" lon="4.565180">
						<ele>726</ele>
						<time>2025-08-13T08:52:43Z</time>
					</trkpt>
					<trkpt lat="45.672180" lon="4.565510">
						<ele>725</ele>
						<time>2025-08-13T08:52:47Z</time>
					</trkpt>
					<trkpt lat="45.672050" lon="4.566280">
						<ele>725</ele>
						<time>2025-08-13T08:52:57Z</time>
					</trkpt>
					<trkpt lat="45.672050" lon="4.566710">
						<ele>724</ele>
						<time>2025-08-13T08:53:02Z</time>
					</trkpt>
					<trkpt lat="45.672160" lon="4.567050">
						<ele>722</ele>
						<time>2025-08-13T08:53:07Z</time>
					</trkpt>
					<trkpt lat="45.672330" lon="4.567220">
						<ele>720</ele>
						<time>2025-08-13T08:53:11Z</time>
					</trkpt>
					<trkpt lat="45.672570" lon="4.567220">
						<ele>719</ele>
						<time>2025-08-13T08:53:15Z</time>
					</trkpt>
					<trkpt lat="45.672810" lon="4.567090">
						<ele>719</ele>
						<time>2025-08-13T08:53:19Z</time>
					</trkpt>
					<trkpt lat="45.673060" lon="4.567050">
						<ele>719</ele>
						<time>2025-08-13T08:53:24Z</time>
					</trkpt>
					<trkpt lat="45.673320" lon="4.567070">
						<ele>720</ele>
						<time>2025-08-13T08:53:29Z</time>
					</trkpt>
					<trkpt lat="45.673860" lon="4.567370">
						<ele>722</ele>
						<time>2025-08-13T08:53:39Z</time>
					</trkpt>
					<trkpt lat="45.674140" lon="4.567720">
						<ele>723</ele>
						<time>2025-08-13T08:53:45Z</time>
					</trkpt>
					<trkpt lat="45.674330" lon="4.567870">
						<ele>723</ele>
						<time>2025-08-13T08:53:49Z</time>
					</trkpt>
					<trkpt lat="45.675810" lon="4.567890">
						<ele>730</ele>
						<time>2025-08-13T08:54:16Z</time>
					</trkpt>
					<trkpt lat="45.676560" lon="4.568270">
						<ele>731</ele>
						<time>2025-08-13T08:54:30Z</time>
					</trkpt>
					<trkpt lat="45.676750" lon="4.568320">
						<ele>731</ele>
						<time>2025-08-13T08:54:33Z</time>
					</trkpt>
					<trkpt lat="45.677830" lon="4.568230">
						<ele>735</ele>
						<time>2025-08-13T08:54:52Z</time>
					</trkpt>
					<trkpt lat="45.678060" lon="4.568270">
						<ele>736</ele>
						<time>2025-08-13T08:54:57Z</time>
					</trkpt>
					<trkpt lat="45.679050" lon="4.569090">
						<ele>740</ele>
						<time>2025-08-13T08:55:17Z</time>
					</trkpt>
					<trkpt lat="45.679220" lon="4.569130">
						<ele>741</ele>
						<time>2025-08-13T08:55:20Z</time>
					</trkpt>
					<trkpt lat="45.680170" lon="4.568920">
						<ele>745</ele>
						<time>2025-08-13T08:55:37Z</time>
					</trkpt>
					<trkpt lat="45.680490" lon="4.568870">
						<ele>746</ele>
						<time>2025-08-13T08:55:43Z</time>
					</trkpt>
					<trkpt lat="45.681000" lon="4.569090">
						<ele>750</ele>
						<time>2025-08-13T08:55:52Z</time>
					</trkpt>
					<trkpt lat="45.681170" lon="4.569110">
						<ele>751</ele>
						<time>2025-08-13T08:55:55Z</time>
					</trkpt>
					<trkpt lat="45.681370" lon="4.569050">
						<ele>752</ele>
						<time>2025-08-13T08:55:59Z</time>
					</trkpt>
					<trkpt lat="45.681670" lon="4.568790">
						<ele>751</ele>
						<time>2025-08-13T08:56:05Z</time>
					</trkpt>
					<trkpt lat="45.681880" lon="4.568770">
						<ele>750</ele>
						<time>2025-08-13T08:56:09Z</time>
					</trkpt>
					<trkpt lat="45.681950" lon="4.568790">
						<ele>750</ele>
						<time>2025-08-13T08:56:10Z</time>
					</trkpt>
					<trkpt lat="45.682010" lon="4.568870">
						<ele>750</ele>
						<time>2025-08-13T08:56:12Z</time>
					</trkpt>
					<trkpt lat="45.682050" lon="4.569130">
						<ele>752</ele>
						<time>2025-08-13T08:56:15Z</time>
					</trkpt>
					<trkpt lat="45.682140" lon="4.570230">
						<ele>756</ele>
						<time>2025-08-13T08:56:29Z</time>
					</trkpt>
					<trkpt lat="45.682140" lon="4.570660">
						<ele>758</ele>
						<time>2025-08-13T08:56:34Z</time>
					</trkpt>
					<trkpt lat="45.681900" lon="4.571640">
						<ele>759</ele>
						<time>2025-08-13T08:56:47Z</time>
					</trkpt>
					<trkpt lat="45.681860" lon="4.572270">
						<ele>763</ele>
						<time>2025-08-13T08:56:55Z</time>
					</trkpt>
					<trkpt lat="45.681920" lon="4.572610">
						<ele>765</ele>
						<time>2025-08-13T08:56:59Z</time>
					</trkpt>
					<trkpt lat="45.682460" lon="4.573570">
						<ele>767</ele>
						<time>2025-08-13T08:57:15Z</time>
					</trkpt>
					<trkpt lat="45.682780" lon="4.574390">
						<ele>772</ele>
						<time>2025-08-13T08:57:26Z</time>
					</trkpt>
					<trkpt lat="45.682980" lon="4.574600">
						<ele>772</ele>
						<time>2025-08-13T08:57:31Z</time>
					</trkpt>
					<trkpt lat="45.683580" lon="4.574880">
						<ele>770</ele>
						<time>2025-08-13T08:57:42Z</time>
					</trkpt>
					<trkpt lat="45.683770" lon="4.575030">
						<ele>771</ele>
						<time>2025-08-13T08:57:46Z</time>
					</trkpt>
					<trkpt lat="45.684010" lon="4.575290">
						<ele>772</ele>
						<time>2025-08-13T08:57:51Z</time>
					</trkpt>
					<trkpt lat="45.684350" lon="4.575830">
						<ele>774</ele>
						<time>2025-08-13T08:58:00Z</time>
					</trkpt>
					<trkpt lat="45.684460" lon="4.575930">
						<ele>773</ele>
						<time>2025-08-13T08:58:02Z</time>
					</trkpt>
					<trkpt lat="45.685570" lon="4.576390">
						<ele>769</ele>
						<time>2025-08-13T08:58:23Z</time>
					</trkpt>
					<trkpt lat="45.686580" lon="4.576660">
						<ele>770</ele>
						<time>2025-08-13T08:58:41Z</time>
					</trkpt>
					<trkpt lat="45.687870" lon="4.576790">
						<ele>763</ele>
						<time>2025-08-13T08:59:04Z</time>
					</trkpt>
					<trkpt lat="45.688360" lon="4.576490">
						<ele>763</ele>
						<time>2025-08-13T08:59:14Z</time>
					</trkpt>
					<trkpt lat="45.688640" lon="4.576210">
						<ele>761</ele>
						<time>2025-08-13T08:59:20Z</time>
					</trkpt>
					<trkpt lat="45.688710" lon="4.576060">
						<ele>762</ele>
						<time>2025-08-13T08:59:22Z</time>
					</trkpt>
					<trkpt lat="45.688750" lon="4.575550">
						<ele>766</ele>
						<time>2025-08-13T08:59:29Z</time>
					</trkpt>
					<trkpt lat="45.688830" lon="4.575180">
						<ele>767</ele>
						<time>2025-08-13T08:59:33Z</time>
					</trkpt>
					<trkpt lat="45.688860" lon="4.574630">
						<ele>771</ele>
						<time>2025-08-13T08:59:40Z</time>
					</trkpt>
					<trkpt lat="45.688920" lon="4.574390">
						<ele>773</ele>
						<time>2025-08-13T08:59:43Z</time>
					</trkpt>
					<trkpt lat="45.689110" lon="4.574150">
						<ele>774</ele>
						<time>2025-08-13T08:59:48Z</time>
					</trkpt>
					<trkpt lat="45.689260" lon="4.574130">
						<ele>773</ele>
						<time>2025-08-13T08:59:51Z</time>
					</trkpt>
					<trkpt lat="45.689710" lon="4.574350">
						<ele>768</ele>
						<time>2025-08-13T08:59:59Z</time>
					</trkpt>
					<trkpt lat="45.689840" lon="4.574300">
						<ele>769</ele>
						<time>2025-08-13T09:00:01Z</time>
					</trkpt>
					<trkpt lat="45.690010" lon="4.574150">
						<ele>770</ele>
						<time>2025-08-13T09:00:05Z</time>
					</trkpt>
					<trkpt lat="45.690460" lon="4.573380">
						<ele>777</ele>
						<time>2025-08-13T09:00:17Z</time>
					</trkpt>
					<trkpt lat="45.690810" lon="4.573080">
						<ele>775</ele>
						<time>2025-08-13T09:00:25Z</time>
					</trkpt>
					<trkpt lat="45.690940" lon="4.572840">
						<ele>777</ele>
						<time>2025-08-13T09:00:28Z</time>
					</trkpt>
					<trkpt lat="45.691000" lon="4.572460">
						<ele>780</ele>
						<time>2025-08-13T09:00:33Z</time>
					</trkpt>
					<trkpt lat="45.691020" lon="4.572010">
						<ele>785</ele>
						<time>2025-08-13T09:00:39Z</time>
					</trkpt>
					<trkpt lat="45.691090" lon="4.571710">
						<ele>788</ele>
						<time>2025-08-13T09:00:43Z</time>
					</trkpt>
					<trkpt lat="45.691240" lon="4.571600">
						<ele>787</ele>
						<time>2025-08-13T09:00:46Z</time>
					</trkpt>
					<trkpt lat="45.691370" lon="4.571600">
						<ele>786</ele>
						<time>2025-08-13T09:00:48Z</time>
					</trkpt>
					<trkpt lat="45.691450" lon="4.571690">
						<ele>784</ele>
						<time>2025-08-13T09:00:50Z</time>
					</trkpt>
					<trkpt lat="45.691840" lon="4.572590">
						<ele>777</ele>
						<time>2025-08-13T09:01:03Z</time>
					</trkpt>
					<trkpt lat="45.691950" lon="4.572670">
						<ele>778</ele>
						<time>2025-08-13T09:01:05Z</time>
					</trkpt>
					<trkpt lat="45.692290" lon="4.572650">
						<ele>783</ele>
						<time>2025-08-13T09:01:11Z</time>
					</trkpt>
					<trkpt lat="45.692420" lon="4.572720">
						<ele>784</ele>
						<time>2025-08-13T09:01:14Z</time>
					</trkpt>
					<trkpt lat="45.692480" lon="4.572870">
						<ele>783</ele>
						<time>2025-08-13T09:01:16Z</time>
					</trkpt>
					<trkpt lat="45.692650" lon="4.573530">
						<ele>779</ele>
						<time>2025-08-13T09:01:25Z</time>
					</trkpt>
					<trkpt lat="45.692780" lon="4.573750">
						<ele>779</ele>
						<time>2025-08-13T09:01:28Z</time>
					</trkpt>
					<trkpt lat="45.692950" lon="4.573920">
						<ele>780</ele>
						<time>2025-08-13T09:01:32Z</time>
					</trkpt>
					<trkpt lat="45.693130" lon="4.574050">
						<ele>780</ele>
						<time>2025-08-13T09:01:36Z</time>
					</trkpt>
					<trkpt lat="45.693600" lon="4.574130">
						<ele>784</ele>
						<time>2025-08-13T09:01:44Z</time>
					</trkpt>
					<trkpt lat="45.693810" lon="4.574280">
						<ele>785</ele>
						<time>2025-08-13T09:01:48Z</time>
					</trkpt>
					<trkpt lat="45.694860" lon="4.575380">
						<ele>785</ele>
						<time>2025-08-13T09:02:11Z</time>
					</trkpt>
					<trkpt lat="45.694950" lon="4.575420">
						<ele>785</ele>
						<time>2025-08-13T09:02:13Z</time>
					</trkpt>
					<trkpt lat="45.695190" lon="4.575420">
						<ele>783</ele>
						<time>2025-08-13T09:02:17Z</time>
					</trkpt>
					<trkpt lat="45.695700" lon="4.575180">
						<ele>782</ele>
						<time>2025-08-13T09:02:27Z</time>
					</trkpt>
					<trkpt lat="45.696490" lon="4.574500">
						<ele>784</ele>
						<time>2025-08-13T09:02:43Z</time>
					</trkpt>
					<trkpt lat="45.696770" lon="4.574200">
						<ele>785</ele>
						<time>2025-08-13T09:02:49Z</time>
					</trkpt>
					<trkpt lat="45.697570" lon="4.572990">
						<ele>795</ele>
						<time>2025-08-13T09:03:10Z</time>
					</trkpt>
					<trkpt lat="45.698100" lon="4.572890">
						<ele>782</ele>
						<time>2025-08-13T09:03:20Z</time>
					</trkpt>
					<trkpt lat="45.698300" lon="4.572740">
						<ele>780</ele>
						<time>2025-08-13T09:03:24Z</time>
					</trkpt>
					<trkpt lat="45.698530" lon="4.572480">
						<ele>779</ele>
						<time>2025-08-13T09:03:29Z</time>
					</trkpt>
					<trkpt lat="45.699200" lon="4.571540">
						<ele>775</ele>
						<time>2025-08-13T09:03:46Z</time>
					</trkpt>
					<trkpt lat="45.699610" lon="4.570510">
						<ele>783</ele>
						<time>2025-08-13T09:04:00Z</time>
					</trkpt>
					<trkpt lat="45.699800" lon="4.570310">
						<ele>780</ele>
						<time>2025-08-13T09:04:05Z</time>
					</trkpt>
					<trkpt lat="45.700440" lon="4.570230">
						<ele>765</ele>
						<time>2025-08-13T09:04:16Z</time>
					</trkpt>
					<trkpt lat="45.700810" lon="4.569860">
						<ele>765</ele>
						<time>2025-08-13T09:04:24Z</time>
					</trkpt>
					<trkpt lat="45.701430" lon="4.569130">
						<ele>776</ele>
						<time>2025-08-13T09:04:38Z</time>
					</trkpt>
					<trkpt lat="45.701580" lon="4.569130">
						<ele>774</ele>
						<time>2025-08-13T09:04:41Z</time>
					</trkpt>
					<trkpt lat="45.701690" lon="4.569260">
						<ele>772</ele>
						<time>2025-08-13T09:04:43Z</time>
					</trkpt>
					<trkpt lat="45.702140" lon="4.570660">
						<ele>766</ele>
						<time>2025-08-13T09:05:03Z</time>
					</trkpt>
					<trkpt lat="45.702220" lon="4.571210">
						<ele>762</ele>
						<time>2025-08-13T09:05:10Z</time>
					</trkpt>
					<trkpt lat="45.702350" lon="4.573960">
						<ele>754</ele>
						<time>2025-08-13T09:05:44Z</time>
					</trkpt>
					<trkpt lat="45.702330" lon="4.574430">
						<ele>752</ele>
						<time>2025-08-13T09:05:50Z</time>
					</trkpt>
					<trkpt lat="45.702200" lon="4.575230">
						<ele>745</ele>
						<time>2025-08-13T09:06:00Z</time>
					</trkpt>
					<trkpt lat="45.702220" lon="4.575510">
						<ele>744</ele>
						<time>2025-08-13T09:06:03Z</time>
					</trkpt>
					<trkpt lat="45.702370" lon="4.575980">
						<ele>745</ele>
						<time>2025-08-13T09:06:10Z</time>
					</trkpt>
					<trkpt lat="45.702700" lon="4.576730">
						<ele>744</ele>
						<time>2025-08-13T09:06:21Z</time>
					</trkpt>
					<trkpt lat="45.702740" lon="4.577140">
						<ele>744</ele>
						<time>2025-08-13T09:06:26Z</time>
					</trkpt>
					<trkpt lat="45.702740" lon="4.578490">
						<ele>741</ele>
						<time>2025-08-13T09:06:43Z</time>
					</trkpt>
					<trkpt lat="45.702910" lon="4.579930">
						<ele>739</ele>
						<time>2025-08-13T09:07:01Z</time>
					</trkpt>
					<trkpt lat="45.703130" lon="4.580440">
						<ele>743</ele>
						<time>2025-08-13T09:07:08Z</time>
					</trkpt>
					<trkpt lat="45.703190" lon="4.580700">
						<ele>743</ele>
						<time>2025-08-13T09:07:12Z</time>
					</trkpt>
					<trkpt lat="45.703170" lon="4.581130">
						<ele>741</ele>
						<time>2025-08-13T09:07:17Z</time>
					</trkpt>
					<trkpt lat="45.703040" lon="4.581810">
						<ele>735</ele>
						<time>2025-08-13T09:07:26Z</time>
					</trkpt>
					<trkpt lat="45.703000" lon="4.582500">
						<ele>734</ele>
						<time>2025-08-13T09:07:34Z</time>
					</trkpt>
					<trkpt lat="45.703080" lon="4.582970">
						<ele>733</ele>
						<time>2025-08-13T09:07:41Z</time>
					</trkpt>
					<trkpt lat="45.703190" lon="4.583210">
						<ele>734</ele>
						<time>2025-08-13T09:07:44Z</time>
					</trkpt>
					<trkpt lat="45.703450" lon="4.583680">
						<ele>732</ele>
						<time>2025-08-13T09:07:52Z</time>
					</trkpt>
					<trkpt lat="45.703620" lon="4.583900">
						<ele>729</ele>
						<time>2025-08-13T09:07:56Z</time>
					</trkpt>
					<trkpt lat="45.703940" lon="4.584150">
						<ele>727</ele>
						<time>2025-08-13T09:08:02Z</time>
					</trkpt>
					<trkpt lat="45.704130" lon="4.584220">
						<ele>727</ele>
						<time>2025-08-13T09:08:06Z</time>
					</trkpt>
					<trkpt lat="45.704560" lon="4.584200">
						<ele>725</ele>
						<time>2025-08-13T09:08:13Z</time>
					</trkpt>
					<trkpt lat="45.704840" lon="4.584130">
						<ele>724</ele>
						<time>2025-08-13T09:08:18Z</time>
					</trkpt>
					<trkpt lat="45.705340" lon="4.583900">
						<ele>728</ele>
						<time>2025-08-13T09:08:28Z</time>
					</trkpt>
					<trkpt lat="45.705640" lon="4.583960">
						<ele>726</ele>
						<time>2025-08-13T09:08:33Z</time>
					</trkpt>
					<trkpt lat="45.706300" lon="4.584300">
						<ele>721</ele>
						<time>2025-08-13T09:08:46Z</time>
					</trkpt>
					<trkpt lat="45.706520" lon="4.584500">
						<ele>721</ele>
						<time>2025-08-13T09:08:50Z</time>
					</trkpt>
					<trkpt lat="45.706670" lon="4.584770">
						<ele>720</ele>
						<time>2025-08-13T09:08:54Z</time>
					</trkpt>
					<trkpt lat="45.706820" lon="4.585350">
						<ele>717</ele>
						<time>2025-08-13T09:09:02Z</time>
					</trkpt>
					<trkpt lat="45.706880" lon="4.586530">
						<ele>719</ele>
						<time>2025-08-13T09:09:17Z</time>
					</trkpt>
					<trkpt lat="45.707050" lon="4.587200">
						<ele>717</ele>
						<time>2025-08-13T09:09:26Z</time>
					</trkpt>
					<trkpt lat="45.707140" lon="4.587930">
						<ele>715</ele>
						<time>2025-08-13T09:09:35Z</time>
					</trkpt>
					<trkpt lat="45.707140" lon="4.589050">
						<ele>716</ele>
						<time>2025-08-13T09:09:49Z</time>
					</trkpt>
					<trkpt lat="45.707200" lon="4.589130">
						<ele>715</ele>
						<time>2025-08-13T09:09:50Z</time>
					</trkpt>
					<trkpt lat="45.707350" lon="4.589200">
						<ele>711</ele>
						<time>2025-08-13T09:09:53Z</time>
					</trkpt>
					<trkpt lat="45.707330" lon="4.588980">
						<ele>711</ele>
						<time>2025-08-13T09:09:56Z</time>
					</trkpt>
					<trkpt lat="45.707420" lon="4.588490">
						<ele>708</ele>
						<time>2025-08-13T09:10:02Z</time>
					</trkpt>
					<trkpt lat="45.707720" lon="4.587710">
						<ele>707</ele>
						<time>2025-08-13T09:10:13Z</time>
					</trkpt>
					<trkpt lat="45.707800" lon="4.587590">
						<ele>707</ele>
						<time>2025-08-13T09:10:15Z</time>
					</trkpt>
					<trkpt lat="45.707890" lon="4.587540">
						<ele>707</ele>
						<time>2025-08-13T09:10:17Z</time>
					</trkpt>
					<trkpt lat="45.708150" lon="4.587540">
						<ele>705</ele>
						<time>2025-08-13T09:10:22Z</time>
					</trkpt>
					<trkpt lat="45.708040" lon="4.588830">
						<ele>703</ele>
						<time>2025-08-13T09:10:38Z</time>
					</trkpt>
					<trkpt lat="45.708060" lon="4.589090">
						<ele>702</ele>
						<time>2025-08-13T09:10:41Z</time>
					</trkpt>
					<trkpt lat="45.708120" lon="4.589240">
						<ele>702</ele>
						<time>2025-08-13T09:10:43Z</time>
					</trkpt>
					<trkpt lat="45.708810" lon="4.589900">
						<ele>702</ele>
						<time>2025-08-13T09:10:58Z</time>
					</trkpt>
					<trkpt lat="45.709580" lon="4.590870">
						<ele>695</ele>
						<time>2025-08-13T09:11:16Z</time>
					</trkpt>
					<trkpt lat="45.710160" lon="4.591510">
						<ele>682</ele>
						<time>2025-08-13T09:11:29Z</time>
					</trkpt>
					<trkpt lat="45.710460" lon="4.591940">
						<ele>677</ele>
						<time>2025-08-13T09:11:37Z</time>
					</trkpt>
					<trkpt lat="45.710720" lon="4.592410">
						<ele>671</ele>
						<time>2025-08-13T09:11:44Z</time>
					</trkpt>
					<trkpt lat="45.710850" lon="4.592840">
						<ele>661</ele>
						<time>2025-08-13T09:11:50Z</time>
					</trkpt>
					<trkpt lat="45.711040" lon="4.593160">
						<ele>654</ele>
						<time>2025-08-13T09:11:55Z</time>
					</trkpt>
					<trkpt lat="45.711210" lon="4.593290">
						<ele>652</ele>
						<time>2025-08-13T09:11:59Z</time>
					</trkpt>
					<trkpt lat="45.711320" lon="4.593290">
						<ele>653</ele>
						<time>2025-08-13T09:12:01Z</time>
					</trkpt>
					<trkpt lat="45.711450" lon="4.593230">
						<ele>656</ele>
						<time>2025-08-13T09:12:03Z</time>
					</trkpt>
					<trkpt lat="45.711990" lon="4.592630">
						<ele>670</ele>
						<time>2025-08-13T09:12:15Z</time>
					</trkpt>
					<trkpt lat="45.712390" lon="4.592390">
						<ele>669</ele>
						<time>2025-08-13T09:12:23Z</time>
					</trkpt>
					<trkpt lat="45.712760" lon="4.592330">
						<ele>667</ele>
						<time>2025-08-13T09:12:30Z</time>
					</trkpt>
					<trkpt lat="45.713060" lon="4.592370">
						<ele>664</ele>
						<time>2025-08-13T09:12:35Z</time>
					</trkpt>
					<trkpt lat="45.713210" lon="4.592460">
						<ele>661</ele>
						<time>2025-08-13T09:12:38Z</time>
					</trkpt>
					<trkpt lat="45.713320" lon="4.592610">
						<ele>658</ele>
						<time>2025-08-13T09:12:40Z</time>
					</trkpt>
					<trkpt lat="45.713400" lon="4.592800">
						<ele>658</ele>
						<time>2025-08-13T09:12:43Z</time>
					</trkpt>
					<trkpt lat="45.713450" lon="4.593120">
						<ele>657</ele>
						<time>2025-08-13T09:12:47Z</time>
					</trkpt>
					<trkpt lat="45.713490" lon="4.594520">
						<ele>651</ele>
						<time>2025-08-13T09:13:05Z</time>
					</trkpt>
					<trkpt lat="45.713360" lon="4.595440">
						<ele>645</ele>
						<time>2025-08-13T09:13:16Z</time>
					</trkpt>
					<trkpt lat="45.713150" lon="4.596380">
						<ele>637</ele>
						<time>2025-08-13T09:13:29Z</time>
					</trkpt>
					<trkpt lat="45.713150" lon="4.596920">
						<ele>635</ele>
						<time>2025-08-13T09:13:35Z</time>
					</trkpt>
					<trkpt lat="45.713250" lon="4.597310">
						<ele>634</ele>
						<time>2025-08-13T09:13:41Z</time>
					</trkpt>
					<trkpt lat="45.713400" lon="4.597650">
						<ele>633</ele>
						<time>2025-08-13T09:13:46Z</time>
					</trkpt>
					<trkpt lat="45.714050" lon="4.598460">
						<ele>636</ele>
						<time>2025-08-13T09:14:01Z</time>
					</trkpt>
					<trkpt lat="45.714180" lon="4.598810">
						<ele>631</ele>
						<time>2025-08-13T09:14:06Z</time>
					</trkpt>
					<trkpt lat="45.714860" lon="4.600350">
						<ele>614</ele>
						<time>2025-08-13T09:14:28Z</time>
					</trkpt>
					<trkpt lat="45.714970" lon="4.600520">
						<ele>614</ele>
						<time>2025-08-13T09:14:31Z</time>
					</trkpt>
					<trkpt lat="45.715120" lon="4.600570">
						<ele>612</ele>
						<time>2025-08-13T09:14:34Z</time>
					</trkpt>
					<trkpt lat="45.715250" lon="4.600520">
						<ele>613</ele>
						<time>2025-08-13T09:14:36Z</time>
					</trkpt>
					<trkpt lat="45.716020" lon="4.599730">
						<ele>626</ele>
						<time>2025-08-13T09:14:53Z</time>
					</trkpt>
					<trkpt lat="45.716240" lon="4.599560">
						<ele>627</ele>
						<time>2025-08-13T09:14:58Z</time>
					</trkpt>
					<trkpt lat="45.716920" lon="4.599390">
						<ele>623</ele>
						<time>2025-08-13T09:15:10Z</time>
					</trkpt>
					<trkpt lat="45.717350" lon="4.599410">
						<ele>622</ele>
						<time>2025-08-13T09:15:18Z</time>
					</trkpt>
					<trkpt lat="45.717460" lon="4.599490">
						<ele>621</ele>
						<time>2025-08-13T09:15:20Z</time>
					</trkpt>
					<trkpt lat="45.717500" lon="4.599750">
						<ele>616</ele>
						<time>2025-08-13T09:15:23Z</time>
					</trkpt>
					<trkpt lat="45.717500" lon="4.600140">
						<ele>610</ele>
						<time>2025-08-13T09:15:28Z</time>
					</trkpt>
					<trkpt lat="45.717440" lon="4.600870">
						<ele>602</ele>
						<time>2025-08-13T09:15:37Z</time>
					</trkpt>
					<trkpt lat="45.717480" lon="4.601380">
						<ele>602</ele>
						<time>2025-08-13T09:15:44Z</time>
					</trkpt>
					<trkpt lat="45.717480" lon="4.602280">
						<ele>595</ele>
						<time>2025-08-13T09:15:55Z</time>
					</trkpt>
					<trkpt lat="45.717540" lon="4.602650">
						<ele>592</ele>
						<time>2025-08-13T09:15:59Z</time>
					</trkpt>
					<trkpt lat="45.717760" lon="4.603080">
						<ele>590</ele>
						<time>2025-08-13T09:16:06Z</time>
					</trkpt>
					<trkpt lat="45.717950" lon="4.603340">
						<ele>588</ele>
						<time>2025-08-13T09:16:11Z</time>
					</trkpt>
					<trkpt lat="45.718150" lon="4.603530">
						<ele>589</ele>
						<time>2025-08-13T09:16:15Z</time>
					</trkpt>
					<trkpt lat="45.718380" lon="4.603720">
						<ele>589</ele>
						<time>2025-08-13T09:16:20Z</time>
					</trkpt>
					<trkpt lat="45.718920" lon="4.603870">
						<ele>595</ele>
						<time>2025-08-13T09:16:30Z</time>
					</trkpt>
					<trkpt lat="45.719050" lon="4.603980">
						<ele>596</ele>
						<time>2025-08-13T09:16:32Z</time>
					</trkpt>
					<trkpt lat="45.719090" lon="4.604190">
						<ele>593</ele>
						<time>2025-08-13T09:16:35Z</time>
					</trkpt>
					<trkpt lat="45.719090" lon="4.604580">
						<ele>593</ele>
						<time>2025-08-13T09:16:40Z</time>
					</trkpt>
					<trkpt lat="45.719050" lon="4.604840">
						<ele>592</ele>
						<time>2025-08-13T09:16:43Z</time>
					</trkpt>
					<trkpt lat="45.718900" lon="4.605010">
						<ele>588</ele>
						<time>2025-08-13T09:16:46Z</time>
					</trkpt>
					<trkpt lat="45.718250" lon="4.605290">
						<ele>576</ele>
						<time>2025-08-13T09:16:59Z</time>
					</trkpt>
					<trkpt lat="45.718040" lon="4.605460">
						<ele>575</ele>
						<time>2025-08-13T09:17:03Z</time>
					</trkpt>
					<trkpt lat="45.717910" lon="4.605780">
						<ele>574</ele>
						<time>2025-08-13T09:17:07Z</time>
					</trkpt>
					<trkpt lat="45.717970" lon="4.606130">
						<ele>571</ele>
						<time>2025-08-13T09:17:12Z</time>
					</trkpt>
					<trkpt lat="45.718080" lon="4.606340">
						<ele>571</ele>
						<time>2025-08-13T09:17:15Z</time>
					</trkpt>
					<trkpt lat="45.718340" lon="4.606660">
						<ele>573</ele>
						<time>2025-08-13T09:17:21Z</time>
					</trkpt>
					<trkpt lat="45.718830" lon="4.607130">
						<ele>579</ele>
						<time>2025-08-13T09:17:32Z</time>
					</trkpt>
					<trkpt lat="45.719480" lon="4.608100">
						<ele>577</ele>
						<time>2025-08-13T09:17:48Z</time>
					</trkpt>
					<trkpt lat="45.720230" lon="4.609070">
						<ele>572</ele>
						<time>2025-08-13T09:18:06Z</time>
					</trkpt>
					<trkpt lat="45.720480" lon="4.609540">
						<ele>572</ele>
						<time>2025-08-13T09:18:14Z</time>
					</trkpt>
					<trkpt lat="45.720630" lon="4.609990">
						<ele>570</ele>
						<time>2025-08-13T09:18:20Z</time>
					</trkpt>
					<trkpt lat="45.720590" lon="4.610160">
						<ele>571</ele>
						<time>2025-08-13T09:18:22Z</time>
					</trkpt>
					<trkpt lat="45.720480" lon="4.610290">
						<ele>572</ele>
						<time>2025-08-13T09:18:25Z</time>
					</trkpt>
					<trkpt lat="45.720290" lon="4.610310">
						<ele>571</ele>
						<time>2025-08-13T09:18:28Z</time>
					</trkpt>
					<trkpt lat="45.720080" lon="4.610270">
						<ele>570</ele>
						<time>2025-08-13T09:18:32Z</time>
					</trkpt>
					<trkpt lat="45.719600" lon="4.609970">
						<ele>569</ele>
						<time>2025-08-13T09:18:41Z</time>
					</trkpt>
					<trkpt lat="45.719070" lon="4.609490">
						<ele>565</ele>
						<time>2025-08-13T09:18:52Z</time>
					</trkpt>
					<trkpt lat="45.718450" lon="4.609090">
						<ele>561</ele>
						<time>2025-08-13T09:19:04Z</time>
					</trkpt>
					<trkpt lat="45.718120" lon="4.608960">
						<ele>559</ele>
						<time>2025-08-13T09:19:11Z</time>
					</trkpt>
					<trkpt lat="45.717120" lon="4.608760">
						<ele>557</ele>
						<time>2025-08-13T09:19:29Z</time>
					</trkpt>
					<trkpt lat="45.716260" lon="4.608550">
						<ele>550</ele>
						<time>2025-08-13T09:19:44Z</time>
					</trkpt>
					<trkpt lat="45.715910" lon="4.608660">
						<ele>550</ele>
						<time>2025-08-13T09:19:50Z</time>
					</trkpt>
					<trkpt lat="45.715760" lon="4.608830">
						<ele>549</ele>
						<time>2025-08-13T09:19:54Z</time>
					</trkpt>
					<trkpt lat="45.715630" lon="4.609580">
						<ele>551</ele>
						<time>2025-08-13T09:20:03Z</time>
					</trkpt>
					<trkpt lat="45.715630" lon="4.611280">
						<ele>556</ele>
						<time>2025-08-13T09:20:25Z</time>
					</trkpt>
					<trkpt lat="45.715570" lon="4.612350">
						<ele>559</ele>
						<time>2025-08-13T09:20:38Z</time>
					</trkpt>
					<trkpt lat="45.715480" lon="4.612670">
						<ele>559</ele>
						<time>2025-08-13T09:20:42Z</time>
					</trkpt>
					<trkpt lat="45.715360" lon="4.612840">
						<ele>557</ele>
						<time>2025-08-13T09:20:45Z</time>
					</trkpt>
					<trkpt lat="45.714950" lon="4.613180">
						<ele>548</ele>
						<time>2025-08-13T09:20:54Z</time>
					</trkpt>
					<trkpt lat="45.714840" lon="4.613380">
						<ele>546</ele>
						<time>2025-08-13T09:20:57Z</time>
					</trkpt>
					<trkpt lat="45.714800" lon="4.613610">
						<ele>545</ele>
						<time>2025-08-13T09:21:00Z</time>
					</trkpt>
					<trkpt lat="45.714860" lon="4.615670">
						<ele>544</ele>
						<time>2025-08-13T09:21:25Z</time>
					</trkpt>
					<trkpt lat="45.715010" lon="4.616620">
						<ele>543</ele>
						<time>2025-08-13T09:21:37Z</time>
					</trkpt>
					<trkpt lat="45.715590" lon="4.617460">
						<ele>539</ele>
						<time>2025-08-13T09:21:52Z</time>
					</trkpt>
					<trkpt lat="45.716580" lon="4.618310">
						<ele>537</ele>
						<time>2025-08-13T09:22:13Z</time>
					</trkpt>
					<trkpt lat="45.716770" lon="4.618420">
						<ele>536</ele>
						<time>2025-08-13T09:22:16Z</time>
					</trkpt>
					<trkpt lat="45.717030" lon="4.618400">
						<ele>535</ele>
						<time>2025-08-13T09:22:21Z</time>
					</trkpt>
					<trkpt lat="45.718120" lon="4.618140">
						<ele>535</ele>
						<time>2025-08-13T09:22:41Z</time>
					</trkpt>
					<trkpt lat="45.718620" lon="4.617880">
						<ele>541</ele>
						<time>2025-08-13T09:22:50Z</time>
					</trkpt>
					<trkpt lat="45.718700" lon="4.617910">
						<ele>541</ele>
						<time>2025-08-13T09:22:52Z</time>
					</trkpt>
					<trkpt lat="45.718830" lon="4.618080">
						<ele>540</ele>
						<time>2025-08-13T09:22:55Z</time>
					</trkpt>
					<trkpt lat="45.718850" lon="4.618440">
						<ele>537</ele>
						<time>2025-08-13T09:22:59Z</time>
					</trkpt>
					<trkpt lat="45.718790" lon="4.619790">
						<ele>529</ele>
						<time>2025-08-13T09:23:16Z</time>
					</trkpt>
					<trkpt lat="45.718790" lon="4.620480">
						<ele>527</ele>
						<time>2025-08-13T09:23:25Z</time>
					</trkpt>
					<trkpt lat="45.718830" lon="4.620700">
						<ele>526</ele>
						<time>2025-08-13T09:23:27Z</time>
					</trkpt>
					<trkpt lat="45.718900" lon="4.620820">
						<ele>527</ele>
						<time>2025-08-13T09:23:29Z</time>
					</trkpt>
					<trkpt lat="45.719030" lon="4.620950">
						<ele>527</ele>
						<time>2025-08-13T09:23:32Z</time>
					</trkpt>
					<trkpt lat="45.720180" lon="4.620870">
						<ele>523</ele>
						<time>2025-08-13T09:23:53Z</time>
					</trkpt>
					<trkpt lat="45.720380" lon="4.620780">
						<ele>523</ele>
						<time>2025-08-13T09:23:56Z</time>
					</trkpt>
					<trkpt lat="45.720570" lon="4.620630">
						<ele>524</ele>
						<time>2025-08-13T09:24:00Z</time>
					</trkpt>
					<trkpt lat="45.720720" lon="4.620440">
						<ele>527</ele>
						<time>2025-08-13T09:24:04Z</time>
					</trkpt>
					<trkpt lat="45.720910" lon="4.619970">
						<ele>539</ele>
						<time>2025-08-13T09:24:10Z</time>
					</trkpt>
					<trkpt lat="45.721020" lon="4.619900">
						<ele>540</ele>
						<time>2025-08-13T09:24:13Z</time>
					</trkpt>
					<trkpt lat="45.721240" lon="4.619860">
						<ele>539</ele>
						<time>2025-08-13T09:24:17Z</time>
					</trkpt>
					<trkpt lat="45.721770" lon="4.619940">
						<ele>528</ele>
						<time>2025-08-13T09:24:26Z</time>
					</trkpt>
					<trkpt lat="45.721990" lon="4.619860">
						<ele>529</ele>
						<time>2025-08-13T09:24:30Z</time>
					</trkpt>
					<trkpt lat="45.722500" lon="4.619470">
						<ele>535</ele>
						<time>2025-08-13T09:24:40Z</time>
					</trkpt>
					<trkpt lat="45.722740" lon="4.619490">
						<ele>539</ele>
						<time>2025-08-13T09:24:45Z</time>
					</trkpt>
					<trkpt lat="45.722910" lon="4.619790">
						<ele>535</ele>
						<time>2025-08-13T09:24:49Z</time>
					</trkpt>
					<trkpt lat="45.722910" lon="4.620740">
						<ele>520</ele>
						<time>2025-08-13T09:25:01Z</time>
					</trkpt>
					<trkpt lat="45.723250" lon="4.622090">
						<ele>518</ele>
						<time>2025-08-13T09:25:19Z</time>
					</trkpt>
					<trkpt lat="45.723660" lon="4.622800">
						<ele>518</ele>
						<time>2025-08-13T09:25:31Z</time>
					</trkpt>
					<trkpt lat="45.723920" lon="4.623380">
						<ele>512</ele>
						<time>2025-08-13T09:25:39Z</time>
					</trkpt>
					<trkpt lat="45.724350" lon="4.624810">
						<ele>506</ele>
						<time>2025-08-13T09:25:58Z</time>
					</trkpt>
					<trkpt lat="45.724410" lon="4.624900">
						<ele>505</ele>
						<time>2025-08-13T09:26:00Z</time>
					</trkpt>
					<trkpt lat="45.724600" lon="4.624990">
						<ele>505</ele>
						<time>2025-08-13T09:26:04Z</time>
					</trkpt>
					<trkpt lat="45.724750" lon="4.624920">
						<ele>506</ele>
						<time>2025-08-13T09:26:06Z</time>
					</trkpt>
					<trkpt lat="45.724860" lon="4.624810">
						<ele>507</ele>
						<time>2025-08-13T09:26:09Z</time>
					</trkpt>
					<trkpt lat="45.724930" lon="4.624660">
						<ele>508</ele>
						<time>2025-08-13T09:26:11Z</time>
					</trkpt>
					<trkpt lat="45.725290" lon="4.623420">
						<ele>513</ele>
						<time>2025-08-13T09:26:28Z</time>
					</trkpt>
					<trkpt lat="45.725530" lon="4.622950">
						<ele>518</ele>
						<time>2025-08-13T09:26:35Z</time>
					</trkpt>
					<trkpt lat="45.725720" lon="4.622800">
						<ele>517</ele>
						<time>2025-08-13T09:26:39Z</time>
					</trkpt>
					<trkpt lat="45.725890" lon="4.622880">
						<ele>514</ele>
						<time>2025-08-13T09:26:42Z</time>
					</trkpt>
					<trkpt lat="45.726190" lon="4.623360">
						<ele>507</ele>
						<time>2025-08-13T09:26:50Z</time>
					</trkpt>
					<trkpt lat="45.726320" lon="4.623420">
						<ele>507</ele>
						<time>2025-08-13T09:26:52Z</time>
					</trkpt>
					<trkpt lat="45.726660" lon="4.623440">
						<ele>509</ele>
						<time>2025-08-13T09:26:58Z</time>
					</trkpt>
					<trkpt lat="45.726840" lon="4.623660">
						<ele>510</ele>
						<time>2025-08-13T09:27:03Z</time>
					</trkpt>
					<trkpt lat="45.726920" lon="4.623850">
						<ele>509</ele>
						<time>2025-08-13T09:27:05Z</time>
					</trkpt>
					<trkpt lat="45.727030" lon="4.624300">
						<ele>505</ele>
						<time>2025-08-13T09:27:11Z</time>
					</trkpt>
					<trkpt lat="45.727160" lon="4.625140">
						<ele>495</ele>
						<time>2025-08-13T09:27:22Z</time>
					</trkpt>
					<trkpt lat="45.727260" lon="4.625330">
						<ele>494</ele>
						<time>2025-08-13T09:27:25Z</time>
					</trkpt>
					<trkpt lat="45.727420" lon="4.625390">
						<ele>495</ele>
						<time>2025-08-13T09:27:28Z</time>
					</trkpt>
					<trkpt lat="45.727610" lon="4.625390">
						<ele>495</ele>
						<time>2025-08-13T09:27:31Z</time>
					</trkpt>
					<trkpt lat="45.727890" lon="4.625240">
						<ele>496</ele>
						<time>2025-08-13T09:27:37Z</time>
					</trkpt>
					<trkpt lat="45.728230" lon="4.625010">
						<ele>497</ele>
						<time>2025-08-13T09:27:43Z</time>
					</trkpt>
					<trkpt lat="45.728720" lon="4.624470">
						<ele>509</ele>
						<time>2025-08-13T09:27:54Z</time>
					</trkpt>
					<trkpt lat="45.729480" lon="4.624020">
						<ele>512</ele>
						<time>2025-08-13T09:28:09Z</time>
					</trkpt>
					<trkpt lat="45.729710" lon="4.623910">
						<ele>513</ele>
						<time>2025-08-13T09:28:13Z</time>
					</trkpt>
					<trkpt lat="45.729800" lon="4.623910">
						<ele>512</ele>
						<time>2025-08-13T09:28:15Z</time>
					</trkpt>
					<trkpt lat="45.729880" lon="4.624060">
						<ele>508</ele>
						<time>2025-08-13T09:28:17Z</time>
					</trkpt>
					<trkpt lat="45.729860" lon="4.624210">
						<ele>507</ele>
						<time>2025-08-13T09:28:19Z</time>
					</trkpt>
					<trkpt lat="45.729710" lon="4.624640">
						<ele>506</ele>
						<time>2025-08-13T09:28:25Z</time>
					</trkpt>
					<trkpt lat="45.729170" lon="4.625760">
						<ele>499</ele>
						<time>2025-08-13T09:28:42Z</time>
					</trkpt>
					<trkpt lat="45.727610" lon="4.627390">
						<ele>488</ele>
						<time>2025-08-13T09:29:16Z</time>
					</trkpt>
					<trkpt lat="45.726360" lon="4.629040">
						<ele>481</ele>
						<time>2025-08-13T09:29:47Z</time>
					</trkpt>
					<trkpt lat="45.725960" lon="4.629620">
						<ele>481</ele>
						<time>2025-08-13T09:29:57Z</time>
					</trkpt>
					<trkpt lat="45.725250" lon="4.630480">
						<ele>476</ele>
						<time>2025-08-13T09:30:13Z</time>
					</trkpt>
					<trkpt lat="45.725010" lon="4.630950">
						<ele>477</ele>
						<time>2025-08-13T09:30:20Z</time>
					</trkpt>
					<trkpt lat="45.724840" lon="4.631600">
						<ele>482</ele>
						<time>2025-08-13T09:30:29Z</time>
					</trkpt>
					<trkpt lat="45.724690" lon="4.631790">
						<ele>481</ele>
						<time>2025-08-13T09:30:33Z</time>
					</trkpt>
					<trkpt lat="45.724410" lon="4.631940">
						<ele>476</ele>
						<time>2025-08-13T09:30:38Z</time>
					</trkpt>
					<trkpt lat="45.723660" lon="4.632970">
						<ele>477</ele>
						<time>2025-08-13T09:30:56Z</time>
					</trkpt>
					<trkpt lat="45.723230" lon="4.633360">
						<ele>475</ele>
						<time>2025-08-13T09:31:05Z</time>
					</trkpt>
					<trkpt lat="45.722890" lon="4.633720">
						<ele>474</ele>
						<time>2025-08-13T09:31:13Z</time>
					</trkpt>
					<trkpt lat="45.722740" lon="4.634020">
						<ele>474</ele>
						<time>2025-08-13T09:31:18Z</time>
					</trkpt>
					<trkpt lat="45.722690" lon="4.634470">
						<ele>473</ele>
						<time>2025-08-13T09:31:23Z</time>
					</trkpt>
					<trkpt lat="45.722740" lon="4.634860">
						<ele>473</ele>
						<time>2025-08-13T09:31:28Z</time>
					</trkpt>
					<trkpt lat="45.722870" lon="4.635180">
						<ele>471</ele>
						<time>2025-08-13T09:31:33Z</time>
					</trkpt>
					<trkpt lat="45.723060" lon="4.635460">
						<ele>469</ele>
						<time>2025-08-13T09:31:38Z</time>
					</trkpt>
					<trkpt lat="45.723680" lon="4.636080">
						<ele>468</ele>
						<time>2025-08-13T09:31:51Z</time>
					</trkpt>
					<trkpt lat="45.724000" lon="4.636600">
						<ele>464</ele>
						<time>2025-08-13T09:32:00Z</time>
					</trkpt>
					<trkpt lat="45.724170" lon="4.636830">
						<ele>463</ele>
						<time>2025-08-13T09:32:04Z</time>
					</trkpt>
					<trkpt lat="45.724370" lon="4.636980">
						<ele>462</ele>
						<time>2025-08-13T09:32:08Z</time>
					</trkpt>
					<trkpt lat="45.724840" lon="4.637110">
						<ele>464</ele>
						<time>2025-08-13T09:32:16Z</time>
					</trkpt>
					<trkpt lat="45.725230" lon="4.637000">
						<ele>471</ele>
						<time>2025-08-13T09:32:23Z</time>
					</trkpt>
					<trkpt lat="45.725380" lon="4.637050">
						<ele>472</ele>
						<time>2025-08-13T09:32:26Z</time>
					</trkpt>
					<trkpt lat="45.725420" lon="4.637150">
						<ele>471</ele>
						<time>2025-08-13T09:32:28Z</time>
					</trkpt>
					<trkpt lat="45.725440" lon="4.637410">
						<ele>467</ele>
						<time>2025-08-13T09:32:31Z</time>
					</trkpt>
					<trkpt lat="45.725140" lon="4.638100">
						<ele>457</ele>
						<time>2025-08-13T09:32:41Z</time>
					</trkpt>
					<trkpt lat="45.725100" lon="4.638530">
						<ele>454</ele>
						<time>2025-08-13T09:32:46Z</time>
					</trkpt>
					<trkpt lat="45.725140" lon="4.638740">
						<ele>453</ele>
						<time>2025-08-13T09:32:49Z</time>
					</trkpt>
					<trkpt lat="45.725460" lon="4.639470">
						<ele>450</ele>
						<time>2025-08-13T09:33:00Z</time>
					</trkpt>
					<trkpt lat="45.725550" lon="4.639620">
						<ele>451</ele>
						<time>2025-08-13T09:33:02Z</time>
					</trkpt>
					<trkpt lat="45.725890" lon="4.639940">
						<ele>454</ele>
						<time>2025-08-13T09:33:09Z</time>
					</trkpt>
					<trkpt lat="45.725930" lon="4.640090">
						<ele>454</ele>
						<time>2025-08-13T09:33:11Z</time>
					</trkpt>
					<trkpt lat="45.725930" lon="4.640290">
						<ele>453</ele>
						<time>2025-08-13T09:33:14Z</time>
					</trkpt>
					<trkpt lat="45.725870" lon="4.640590">
						<ele>451</ele>
						<time>2025-08-13T09:33:18Z</time>
					</trkpt>
					<trkpt lat="45.725740" lon="4.640890">
						<ele>449</ele>
						<time>2025-08-13T09:33:22Z</time>
					</trkpt>
					<trkpt lat="45.725610" lon="4.641120">
						<ele>448</ele>
						<time>2025-08-13T09:33:26Z</time>
					</trkpt>
					<trkpt lat="45.725290" lon="4.641440">
						<ele>446</ele>
						<time>2025-08-13T09:33:33Z</time>
					</trkpt>
					<trkpt lat="45.725120" lon="4.641510">
						<ele>445</ele>
						<time>2025-08-13T09:33:36Z</time>
					</trkpt>
					<trkpt lat="45.724690" lon="4.641530">
						<ele>442</ele>
						<time>2025-08-13T09:33:44Z</time>
					</trkpt>
					<trkpt lat="45.724520" lon="4.641620">
						<ele>442</ele>
						<time>2025-08-13T09:33:47Z</time>
					</trkpt>
					<trkpt lat="45.724370" lon="4.641830">
						<ele>441</ele>
						<time>2025-08-13T09:33:51Z</time>
					</trkpt>
					<trkpt lat="45.724240" lon="4.642220">
						<ele>439</ele>
						<time>2025-08-13T09:33:56Z</time>
					</trkpt>
					<trkpt lat="45.724130" lon="4.642820">
						<ele>437</ele>
						<time>2025-08-13T09:34:04Z</time>
					</trkpt>
					<trkpt lat="45.724130" lon="4.643180">
						<ele>436</ele>
						<time>2025-08-13T09:34:08Z</time>
					</trkpt>
					<trkpt lat="45.724220" lon="4.643930">
						<ele>435</ele>
						<time>2025-08-13T09:34:18Z</time>
					</trkpt>
					<trkpt lat="45.724300" lon="4.645050">
						<ele>432</ele>
						<time>2025-08-13T09:34:32Z</time>
					</trkpt>
					<trkpt lat="45.724410" lon="4.645520">
						<ele>429</ele>
						<time>2025-08-13T09:34:38Z</time>
					</trkpt>
					<trkpt lat="45.724540" lon="4.645710">
						<ele>429</ele>
						<time>2025-08-13T09:34:41Z</time>
					</trkpt>
					<trkpt lat="45.724860" lon="4.646080">
						<ele>428</ele>
						<time>2025-08-13T09:34:48Z</time>
					</trkpt>
					<trkpt lat="45.725660" lon="4.646510">
						<ele>426</ele>
						<time>2025-08-13T09:35:04Z</time>
					</trkpt>
					<trkpt lat="45.726540" lon="4.646590">
						<ele>428</ele>
						<time>2025-08-13T09:35:19Z</time>
					</trkpt>
					<trkpt lat="45.726660" lon="4.646570">
						<ele>428</ele>
						<time>2025-08-13T09:35:21Z</time>
					</trkpt>
					<trkpt lat="45.726790" lon="4.646510">
						<ele>428</ele>
						<time>2025-08-13T09:35:24Z</time>
					</trkpt>
					<trkpt lat="45.727160" lon="4.646170">
						<ele>430</ele>
						<time>2025-08-13T09:35:32Z</time>
					</trkpt>
					<trkpt lat="45.727330" lon="4.646230">
						<ele>429</ele>
						<time>2025-08-13T09:35:35Z</time>
					</trkpt>
					<trkpt lat="45.727390" lon="4.646380">
						<ele>428</ele>
						<time>2025-08-13T09:35:37Z</time>
					</trkpt>
					<trkpt lat="45.727350" lon="4.646850">
						<ele>425</ele>
						<time>2025-08-13T09:35:43Z</time>
					</trkpt>
					<trkpt lat="45.727240" lon="4.647410">
						<ele>422</ele>
						<time>2025-08-13T09:35:50Z</time>
					</trkpt>
					<trkpt lat="45.726900" lon="4.648440">
						<ele>416</ele>
						<time>2025-08-13T09:36:04Z</time>
					</trkpt>
					<trkpt lat="45.726660" lon="4.648830">
						<ele>413</ele>
						<time>2025-08-13T09:36:11Z</time>
					</trkpt>
					<trkpt lat="45.725610" lon="4.650260">
						<ele>403</ele>
						<time>2025-08-13T09:36:36Z</time>
					</trkpt>
					<trkpt lat="45.725290" lon="4.650970">
						<ele>400</ele>
						<time>2025-08-13T09:36:47Z</time>
					</trkpt>
					<trkpt lat="45.725200" lon="4.651550">
						<ele>400</ele>
						<time>2025-08-13T09:36:54Z</time>
					</trkpt>
					<trkpt lat="45.725250" lon="4.652000">
						<ele>399</ele>
						<time>2025-08-13T09:37:00Z</time>
					</trkpt>
					<trkpt lat="45.725420" lon="4.652540">
						<ele>397</ele>
						<time>2025-08-13T09:37:07Z</time>
					</trkpt>
					<trkpt lat="45.725530" lon="4.652770">
						<ele>395</ele>
						<time>2025-08-13T09:37:11Z</time>
					</trkpt>
					<trkpt lat="45.725660" lon="4.652950">
						<ele>394</ele>
						<time>2025-08-13T09:37:14Z</time>
					</trkpt>
					<trkpt lat="45.726320" lon="4.653630">
						<ele>392</ele>
						<time>2025-08-13T09:37:28Z</time>
					</trkpt>
					<trkpt lat="45.726470" lon="4.653850">
						<ele>392</ele>
						<time>2025-08-13T09:37:32Z</time>
					</trkpt>
					<trkpt lat="45.726540" lon="4.654040">
						<ele>391</ele>
						<time>2025-08-13T09:37:35Z</time>
					</trkpt>
					<trkpt lat="45.726600" lon="4.654750">
						<ele>386</ele>
						<time>2025-08-13T09:37:44Z</time>
					</trkpt>
					<trkpt lat="45.726660" lon="4.655030">
						<ele>385</ele>
						<time>2025-08-13T09:37:47Z</time>
					</trkpt>
					<trkpt lat="45.726900" lon="4.655480">
						<ele>384</ele>
						<time>2025-08-13T09:37:54Z</time>
					</trkpt>
					<trkpt lat="45.728250" lon="4.656620">
						<ele>377</ele>
						<time>2025-08-13T09:38:22Z</time>
					</trkpt>
					<trkpt lat="45.728810" lon="4.656960">
						<ele>374</ele>
						<time>2025-08-13T09:38:33Z</time>
					</trkpt>
					<trkpt lat="45.729520" lon="4.657320">
						<ele>370</ele>
						<time>2025-08-13T09:38:47Z</time>
					</trkpt>
					<trkpt lat="45.730080" lon="4.657710">
						<ele>365</ele>
						<time>2025-08-13T09:38:58Z</time>
					</trkpt>
					<trkpt lat="45.730230" lon="4.657750">
						<ele>364</ele>
						<time>2025-08-13T09:39:00Z</time>
					</trkpt>
					<trkpt lat="45.730530" lon="4.657770">
						<ele>362</ele>
						<time>2025-08-13T09:39:06Z</time>
					</trkpt>
					<trkpt lat="45.730890" lon="4.657690">
						<ele>362</ele>
						<time>2025-08-13T09:39:12Z</time>
					</trkpt>
					<trkpt lat="45.731320" lon="4.657540">
						<ele>360</ele>
						<time>2025-08-13T09:39:20Z</time>
					</trkpt>
					<trkpt lat="45.732050" lon="4.657020">
						<ele>360</ele>
						<time>2025-08-13T09:39:35Z</time>
					</trkpt>
					<trkpt lat="45.732180" lon="4.657110">
						<ele>359</ele>
						<time>2025-08-13T09:39:37Z</time>
					</trkpt>
					<trkpt lat="45.732220" lon="4.657410">
						<ele>358</ele>
						<time>2025-08-13T09:39:41Z</time>
					</trkpt>
					<trkpt lat="45.732160" lon="4.657820">
						<ele>359</ele>
						<time>2025-08-13T09:39:46Z</time>
					</trkpt>
					<trkpt lat="45.731940" lon="4.658370">
						<ele>358</ele>
						<time>2025-08-13T09:39:54Z</time>
					</trkpt>
					<trkpt lat="45.731660" lon="4.658850">
						<ele>358</ele>
						<time>2025-08-13T09:40:02Z</time>
					</trkpt>
					<trkpt lat="45.731530" lon="4.659150">
						<ele>358</ele>
						<time>2025-08-13T09:40:06Z</time>
					</trkpt>
					<trkpt lat="45.731430" lon="4.659790">
						<ele>359</ele>
						<time>2025-08-13T09:40:14Z</time>
					</trkpt>
					<trkpt lat="45.731430" lon="4.660260">
						<ele>360</ele>
						<time>2025-08-13T09:40:20Z</time>
					</trkpt>
					<trkpt lat="45.731320" lon="4.660560">
						<ele>360</ele>
						<time>2025-08-13T09:40:24Z</time>
					</trkpt>
					<trkpt lat="45.730830" lon="4.661400">
						<ele>360</ele>
						<time>2025-08-13T09:40:38Z</time>
					</trkpt>
					<trkpt lat="45.730590" lon="4.662300">
						<ele>363</ele>
						<time>2025-08-13T09:40:50Z</time>
					</trkpt>
					<trkpt lat="45.730180" lon="4.663070">
						<ele>363</ele>
						<time>2025-08-13T09:41:02Z</time>
					</trkpt>
					<trkpt lat="45.730050" lon="4.663670">
						<ele>363</ele>
						<time>2025-08-13T09:41:10Z</time>
					</trkpt>
					<trkpt lat="45.730380" lon="4.666270">
						<ele>365</ele>
						<time>2025-08-13T09:41:43Z</time>
					</trkpt>
					<trkpt lat="45.730530" lon="4.666740">
						<ele>364</ele>
						<time>2025-08-13T09:41:49Z</time>
					</trkpt>
					<trkpt lat="45.731810" lon="4.669430">
						<ele>363</ele>
						<time>2025-08-13T09:42:29Z</time>
					</trkpt>
					<trkpt lat="45.731860" lon="4.669490">
						<ele>363</ele>
						<time>2025-08-13T09:42:31Z</time>
					</trkpt>
					<trkpt lat="45.732070" lon="4.669980">
						<ele>363</ele>
						<time>2025-08-13T09:42:38Z</time>
					</trkpt>
					<trkpt lat="45.732140" lon="4.670090">
						<ele>362</ele>
						<time>2025-08-13T09:42:40Z</time>
					</trkpt>
					<trkpt lat="45.732670" lon="4.671400">
						<ele>362</ele>
						<time>2025-08-13T09:42:58Z</time>
					</trkpt>
					<trkpt lat="45.732720" lon="4.671790">
						<ele>362</ele>
						<time>2025-08-13T09:43:03Z</time>
					</trkpt>
					<trkpt lat="45.732690" lon="4.672280">
						<ele>362</ele>
						<time>2025-08-13T09:43:09Z</time>
					</trkpt>
					<trkpt lat="45.735140" lon="4.669680">
						<ele>379</ele>
						<time>2025-08-13T09:44:04Z</time>
					</trkpt>
					<trkpt lat="45.735330" lon="4.669340">
						<ele>382</ele>
						<time>2025-08-13T09:44:09Z</time>
					</trkpt>
					<trkpt lat="45.735400" lon="4.669100">
						<ele>382</ele>
						<time>2025-08-13T09:44:12Z</time>
					</trkpt>
					<trkpt lat="45.735480" lon="4.668460">
						<ele>385</ele>
						<time>2025-08-13T09:44:20Z</time>
					</trkpt>
					<trkpt lat="45.735440" lon="4.668140">
						<ele>387</ele>
						<time>2025-08-13T09:44:24Z</time>
					</trkpt>
					<trkpt lat="45.735270" lon="4.667900">
						<ele>387</ele>
						<time>2025-08-13T09:44:29Z</time>
					</trkpt>
					<trkpt lat="45.734750" lon="4.667560">
						<ele>389</ele>
						<time>2025-08-13T09:44:39Z</time>
					</trkpt>
					<trkpt lat="45.734580" lon="4.667410">
						<ele>390</ele>
						<time>2025-08-13T09:44:42Z</time>
					</trkpt>
					<trkpt lat="45.733870" lon="4.666360">
						<ele>395</ele>
						<time>2025-08-13T09:45:01Z</time>
					</trkpt>
					<trkpt lat="45.733750" lon="4.665880">
						<ele>397</ele>
						<time>2025-08-13T09:45:07Z</time>
					</trkpt>
					<trkpt lat="45.733750" lon="4.665560">
						<ele>398</ele>
						<time>2025-08-13T09:45:11Z</time>
					</trkpt>
					<trkpt lat="45.733790" lon="4.665240">
						<ele>399</ele>
						<time>2025-08-13T09:45:15Z</time>
					</trkpt>
					<trkpt lat="45.734000" lon="4.664860">
						<ele>401</ele>
						<time>2025-08-13T09:45:21Z</time>
					</trkpt>
					<trkpt lat="45.734470" lon="4.664280">
						<ele>405</ele>
						<time>2025-08-13T09:45:32Z</time>
					</trkpt>
					<trkpt lat="45.734520" lon="4.664190">
						<ele>405</ele>
						<time>2025-08-13T09:45:33Z</time>
					</trkpt>
					<trkpt lat="45.734750" lon="4.664620">
						<ele>408</ele>
						<time>2025-08-13T09:45:40Z</time>
					</trkpt>
					<trkpt lat="45.735030" lon="4.664960">
						<ele>411</ele>
						<time>2025-08-13T09:45:47Z</time>
					</trkpt>
					<trkpt lat="45.735330" lon="4.665240">
						<ele>412</ele>
						<time>2025-08-13T09:45:53Z</time>
					</trkpt>
					<trkpt lat="45.735590" lon="4.665330">
						<ele>413</ele>
						<time>2025-08-13T09:45:58Z</time>
					</trkpt>
					<trkpt lat="45.735780" lon="4.665330">
						<ele>415</ele>
						<time>2025-08-13T09:46:01Z</time>
					</trkpt>
					<trkpt lat="45.736260" lon="4.665160">
						<ele>420</ele>
						<time>2025-08-13T09:46:10Z</time>
					</trkpt>
					<trkpt lat="45.736560" lon="4.665160">
						<ele>423</ele>
						<time>2025-08-13T09:46:15Z</time>
					</trkpt>
					<trkpt lat="45.736750" lon="4.665260">
						<ele>424</ele>
						<time>2025-08-13T09:46:19Z</time>
					</trkpt>
					<trkpt lat="45.737160" lon="4.665610">
						<ele>426</ele>
						<time>2025-08-13T09:46:27Z</time>
					</trkpt>
					<trkpt lat="45.737820" lon="4.666340">
						<ele>429</ele>
						<time>2025-08-13T09:46:42Z</time>
					</trkpt>
					<trkpt lat="45.737890" lon="4.666550">
						<ele>428</ele>
						<time>2025-08-13T09:46:45Z</time>
					</trkpt>
					<trkpt lat="45.738080" lon="4.666960">
						<ele>427</ele>
						<time>2025-08-13T09:46:51Z</time>
					</trkpt>
					<trkpt lat="45.738230" lon="4.667130">
						<ele>427</ele>
						<time>2025-08-13T09:46:55Z</time>
					</trkpt>
					<trkpt lat="45.738870" lon="4.667560">
						<ele>429</ele>
						<time>2025-08-13T09:47:07Z</time>
					</trkpt>
					<trkpt lat="45.739150" lon="4.667620">
						<ele>430</ele>
						<time>2025-08-13T09:47:12Z</time>
					</trkpt>
					<trkpt lat="45.739520" lon="4.667540">
						<ele>427</ele>
						<time>2025-08-13T09:47:19Z</time>
					</trkpt>
					<trkpt lat="45.739800" lon="4.667320">
						<ele>426</ele>
						<time>2025-08-13T09:47:25Z</time>
					</trkpt>
					<trkpt lat="45.741300" lon="4.665460">
						<ele>429</ele>
						<time>2025-08-13T09:48:00Z</time>
					</trkpt>
					<trkpt lat="45.741470" lon="4.664620">
						<ele>432</ele>
						<time>2025-08-13T09:48:11Z</time>
					</trkpt>
					<trkpt lat="45.741580" lon="4.664400">
						<ele>433</ele>
						<time>2025-08-13T09:48:14Z</time>
					</trkpt>
					<trkpt lat="45.741660" lon="4.664300">
						<ele>432</ele>
						<time>2025-08-13T09:48:16Z</time>
					</trkpt>
					<trkpt lat="45.741830" lon="4.664170">
						<ele>432</ele>
						<time>2025-08-13T09:48:19Z</time>
					</trkpt>
					<trkpt lat="45.741980" lon="4.664150">
						<ele>430</ele>
						<time>2025-08-13T09:48:22Z</time>
					</trkpt>
					<trkpt lat="45.742410" lon="4.664170">
						<ele>424</ele>
						<time>2025-08-13T09:48:30Z</time>
					</trkpt>
					<trkpt lat="45.742910" lon="4.664100">
						<ele>422</ele>
						<time>2025-08-13T09:48:39Z</time>
					</trkpt>
					<trkpt lat="45.743320" lon="4.664230">
						<ele>419</ele>
						<time>2025-08-13T09:48:46Z</time>
					</trkpt>
					<trkpt lat="45.744110" lon="4.664550">
						<ele>416</ele>
						<time>2025-08-13T09:49:01Z</time>
					</trkpt>
					<trkpt lat="45.745180" lon="4.664750">
						<ele>416</ele>
						<time>2025-08-13T09:49:20Z</time>
					</trkpt>
					<trkpt lat="45.745480" lon="4.664730">
						<ele>416</ele>
						<time>2025-08-13T09:49:25Z</time>
					</trkpt>
					<trkpt lat="45.745930" lon="4.664550">
						<ele>418</ele>
						<time>2025-08-13T09:49:34Z</time>
					</trkpt>
					<trkpt lat="45.746190" lon="4.664380">
						<ele>418</ele>
						<time>2025-08-13T09:49:39Z</time>
					</trkpt>
					<trkpt lat="45.746580" lon="4.664100">
						<ele>417</ele>
						<time>2025-08-13T09:49:46Z</time>
					</trkpt>
					<trkpt lat="45.746960" lon="4.663670">
						<ele>417</ele>
						<time>2025-08-13T09:49:55Z</time>
					</trkpt>
					<trkpt lat="45.747050" lon="4.663500">
						<ele>418</ele>
						<time>2025-08-13T09:49:58Z</time>
					</trkpt>
					<trkpt lat="45.747160" lon="4.663140">
						<ele>418</ele>
						<time>2025-08-13T09:50:03Z</time>
					</trkpt>
					<trkpt lat="45.747220" lon="4.661870">
						<ele>421</ele>
						<time>2025-08-13T09:50:18Z</time>
					</trkpt>
					<trkpt lat="45.747310" lon="4.661770">
						<ele>420</ele>
						<time>2025-08-13T09:50:20Z</time>
					</trkpt>
					<trkpt lat="45.747370" lon="4.661770">
						<ele>419</ele>
						<time>2025-08-13T09:50:22Z</time>
					</trkpt>
					<trkpt lat="45.747520" lon="4.661830">
						<ele>417</ele>
						<time>2025-08-13T09:50:24Z</time>
					</trkpt>
					<trkpt lat="45.748360" lon="4.663250">
						<ele>419</ele>
						<time>2025-08-13T09:50:47Z</time>
					</trkpt>
					<trkpt lat="45.748830" lon="4.663870">
						<ele>421</ele>
						<time>2025-08-13T09:50:59Z</time>
					</trkpt>
					<trkpt lat="45.749320" lon="4.664450">
						<ele>422</ele>
						<time>2025-08-13T09:51:10Z</time>
					</trkpt>
					<trkpt lat="45.749430" lon="4.664510">
						<ele>422</ele>
						<time>2025-08-13T09:51:12Z</time>
					</trkpt>
					<trkpt lat="45.749710" lon="4.664530">
						<ele>423</ele>
						<time>2025-08-13T09:51:17Z</time>
					</trkpt>
					<trkpt lat="45.750160" lon="4.664340">
						<ele>423</ele>
						<time>2025-08-13T09:51:26Z</time>
					</trkpt>
					<trkpt lat="45.750440" lon="4.664170">
						<ele>422</ele>
						<time>2025-08-13T09:51:31Z</time>
					</trkpt>
					<trkpt lat="45.751510" lon="4.663330">
						<ele>421</ele>
						<time>2025-08-13T09:51:53Z</time>
					</trkpt>
					<trkpt lat="45.751830" lon="4.662920">
						<ele>419</ele>
						<time>2025-08-13T09:52:00Z</time>
					</trkpt>
					<trkpt lat="45.752180" lon="4.662240">
						<ele>416</ele>
						<time>2025-08-13T09:52:11Z</time>
					</trkpt>
					<trkpt lat="45.752580" lon="4.661380">
						<ele>411</ele>
						<time>2025-08-13T09:52:24Z</time>
					</trkpt>
					<trkpt lat="45.752630" lon="4.661160">
						<ele>409</ele>
						<time>2025-08-13T09:52:26Z</time>
					</trkpt>
					<trkpt lat="45.752610" lon="4.660840">
						<ele>408</ele>
						<time>2025-08-13T09:52:30Z</time>
					</trkpt>
					<trkpt lat="45.752500" lon="4.660580">
						<ele>407</ele>
						<time>2025-08-13T09:52:34Z</time>
					</trkpt>
					<trkpt lat="45.752390" lon="4.660460">
						<ele>407</ele>
						<time>2025-08-13T09:52:37Z</time>
					</trkpt>
					<trkpt lat="45.752010" lon="4.660260">
						<ele>407</ele>
						<time>2025-08-13T09:52:44Z</time>
					</trkpt>
					<trkpt lat="45.751810" lon="4.660070">
						<ele>407</ele>
						<time>2025-08-13T09:52:48Z</time>
					</trkpt>
					<trkpt lat="45.751730" lon="4.659920">
						<ele>406</ele>
						<time>2025-08-13T09:52:50Z</time>
					</trkpt>
					<trkpt lat="45.751660" lon="4.659530">
						<ele>403</ele>
						<time>2025-08-13T09:52:55Z</time>
					</trkpt>
					<trkpt lat="45.751680" lon="4.659380">
						<ele>402</ele>
						<time>2025-08-13T09:52:57Z</time>
					</trkpt>
					<trkpt lat="45.751750" lon="4.659150">
						<ele>400</ele>
						<time>2025-08-13T09:53:01Z</time>
					</trkpt>
					<trkpt lat="45.752390" lon="4.658480">
						<ele>398</ele>
						<time>2025-08-13T09:53:15Z</time>
					</trkpt>
					<trkpt lat="45.752650" lon="4.658140">
						<ele>395</ele>
						<time>2025-08-13T09:53:21Z</time>
					</trkpt>
					<trkpt lat="45.752890" lon="4.657900">
						<ele>392</ele>
						<time>2025-08-13T09:53:26Z</time>
					</trkpt>
					<trkpt lat="45.753080" lon="4.657950">
						<ele>390</ele>
						<time>2025-08-13T09:53:30Z</time>
					</trkpt>
					<trkpt lat="45.754880" lon="4.659730">
						<ele>383</ele>
						<time>2025-08-13T09:54:08Z</time>
					</trkpt>
					<trkpt lat="45.755590" lon="4.660130">
						<ele>387</ele>
						<time>2025-08-13T09:54:22Z</time>
					</trkpt>
					<trkpt lat="45.756640" lon="4.660260">
						<ele>394</ele>
						<time>2025-08-13T09:54:41Z</time>
					</trkpt>
					<trkpt lat="45.757520" lon="4.660460">
						<ele>395</ele>
						<time>2025-08-13T09:54:57Z</time>
					</trkpt>
					<trkpt lat="45.758080" lon="4.660480">
						<ele>393</ele>
						<time>2025-08-13T09:55:07Z</time>
					</trkpt>
					<trkpt lat="45.759040" lon="4.660180">
						<ele>390</ele>
						<time>2025-08-13T09:55:24Z</time>
					</trkpt>
					<trkpt lat="45.759300" lon="4.660030">
						<ele>390</ele>
						<time>2025-08-13T09:55:29Z</time>
					</trkpt>
					<trkpt lat="45.759600" lon="4.659600">
						<ele>392</ele>
						<time>2025-08-13T09:55:37Z</time>
					</trkpt>
					<trkpt lat="45.759880" lon="4.659020">
						<ele>395</ele>
						<time>2025-08-13T09:55:45Z</time>
					</trkpt>
					<trkpt lat="45.759990" lon="4.658870">
						<ele>396</ele>
						<time>2025-08-13T09:55:48Z</time>
					</trkpt>
					<trkpt lat="45.760270" lon="4.658740">
						<ele>397</ele>
						<time>2025-08-13T09:55:53Z</time>
					</trkpt>
					<trkpt lat="45.760570" lon="4.658760">
						<ele>397</ele>
						<time>2025-08-13T09:55:59Z</time>
					</trkpt>
					<trkpt lat="45.760700" lon="4.658850">
						<ele>397</ele>
						<time>2025-08-13T09:56:01Z</time>
					</trkpt>
					<trkpt lat="45.760850" lon="4.659000">
						<ele>396</ele>
						<time>2025-08-13T09:56:04Z</time>
					</trkpt>
					<trkpt lat="45.761360" lon="4.660280">
						<ele>402</ele>
						<time>2025-08-13T09:56:23Z</time>
					</trkpt>
					<trkpt lat="45.761490" lon="4.660500">
						<ele>404</ele>
						<time>2025-08-13T09:56:26Z</time>
					</trkpt>
					<trkpt lat="45.761660" lon="4.660670">
						<ele>406</ele>
						<time>2025-08-13T09:56:30Z</time>
					</trkpt>
					<trkpt lat="45.762390" lon="4.660970">
						<ele>413</ele>
						<time>2025-08-13T09:56:44Z</time>
					</trkpt>
					<trkpt lat="45.762690" lon="4.661060">
						<ele>415</ele>
						<time>2025-08-13T09:56:49Z</time>
					</trkpt>
					<trkpt lat="45.762820" lon="4.661060">
						<ele>416</ele>
						<time>2025-08-13T09:56:51Z</time>
					</trkpt>
					<trkpt lat="45.763140" lon="4.660930">
						<ele>419</ele>
						<time>2025-08-13T09:56:57Z</time>
					</trkpt>
					<trkpt lat="45.763980" lon="4.660350">
						<ele>428</ele>
						<time>2025-08-13T09:57:14Z</time>
					</trkpt>
					<trkpt lat="45.764090" lon="4.660330">
						<ele>429</ele>
						<time>2025-08-13T09:57:16Z</time>
					</trkpt>
					<trkpt lat="45.764190" lon="4.660350">
						<ele>429</ele>
						<time>2025-08-13T09:57:18Z</time>
					</trkpt>
					<trkpt lat="45.764940" lon="4.660760">
						<ele>427</ele>
						<time>2025-08-13T09:57:32Z</time>
					</trkpt>
					<trkpt lat="45.765010" lon="4.661010">
						<ele>426</ele>
						<time>2025-08-13T09:57:35Z</time>
					</trkpt>
					<trkpt lat="45.765160" lon="4.661120">
						<ele>425</ele>
						<time>2025-08-13T09:57:38Z</time>
					</trkpt>
					<trkpt lat="45.765400" lon="4.661190">
						<ele>423</ele>
						<time>2025-08-13T09:57:43Z</time>
					</trkpt>
					<trkpt lat="45.766040" lon="4.660970">
						<ele>423</ele>
						<time>2025-08-13T09:57:54Z</time>
					</trkpt>
					<trkpt lat="45.766280" lon="4.660970">
						<ele>423</ele>
						<time>2025-08-13T09:57:59Z</time>
					</trkpt>
					<trkpt lat="45.766680" lon="4.661120">
						<ele>422</ele>
						<time>2025-08-13T09:58:06Z</time>
					</trkpt>
					<trkpt lat="45.766830" lon="4.661250">
						<ele>423</ele>
						<time>2025-08-13T09:58:09Z</time>
					</trkpt>
					<trkpt lat="45.767280" lon="4.662040">
						<ele>420</ele>
						<time>2025-08-13T09:58:22Z</time>
					</trkpt>
					<trkpt lat="45.767430" lon="4.662170">
						<ele>421</ele>
						<time>2025-08-13T09:58:25Z</time>
					</trkpt>
					<trkpt lat="45.767610" lon="4.662170">
						<ele>422</ele>
						<time>2025-08-13T09:58:28Z</time>
					</trkpt>
					<trkpt lat="45.768140" lon="4.662040">
						<ele>425</ele>
						<time>2025-08-13T09:58:38Z</time>
					</trkpt>
					<trkpt lat="45.768490" lon="4.661810">
						<ele>428</ele>
						<time>2025-08-13T09:58:44Z</time>
					</trkpt>
					<trkpt lat="45.768890" lon="4.661680">
						<ele>426</ele>
						<time>2025-08-13T09:58:52Z</time>
					</trkpt>
					<trkpt lat="45.769150" lon="4.661810">
						<ele>423</ele>
						<time>2025-08-13T09:58:57Z</time>
					</trkpt>
					<trkpt lat="45.769390" lon="4.662070">
						<ele>420</ele>
						<time>2025-08-13T09:59:02Z</time>
					</trkpt>
					<trkpt lat="45.769620" lon="4.662240">
						<ele>419</ele>
						<time>2025-08-13T09:59:07Z</time>
					</trkpt>
					<trkpt lat="45.769820" lon="4.662300">
						<ele>419</ele>
						<time>2025-08-13T09:59:10Z</time>
					</trkpt>
					<trkpt lat="45.770050" lon="4.662260">
						<ele>419</ele>
						<time>2025-08-13T09:59:14Z</time>
					</trkpt>
					<trkpt lat="45.770240" lon="4.662170">
						<ele>418</ele>
						<time>2025-08-13T09:59:18Z</time>
					</trkpt>
					<trkpt lat="45.770370" lon="4.662070">
						<ele>417</ele>
						<time>2025-08-13T09:59:21Z</time>
					</trkpt>
					<trkpt lat="45.770590" lon="4.661720">
						<ele>415</ele>
						<time>2025-08-13T09:59:26Z</time>
					</trkpt>
					<trkpt lat="45.770700" lon="4.661340">
						<ele>412</ele>
						<time>2025-08-13T09:59:31Z</time>
					</trkpt>
					<trkpt lat="45.770760" lon="4.660330">
						<ele>409</ele>
						<time>2025-08-13T09:59:44Z</time>
					</trkpt>
					<trkpt lat="45.770720" lon="4.659430">
						<ele>410</ele>
						<time>2025-08-13T09:59:55Z</time>
					</trkpt>
					<trkpt lat="45.770740" lon="4.659020">
						<ele>409</ele>
						<time>2025-08-13T10:00:00Z</time>
					</trkpt>
					<trkpt lat="45.770850" lon="4.658290">
						<ele>408</ele>
						<time>2025-08-13T10:00:10Z</time>
					</trkpt>
					<trkpt lat="45.770970" lon="4.657990">
						<ele>411</ele>
						<time>2025-08-13T10:00:14Z</time>
					</trkpt>
					<trkpt lat="45.771100" lon="4.657900">
						<ele>412</ele>
						<time>2025-08-13T10:00:16Z</time>
					</trkpt>
					<trkpt lat="45.771250" lon="4.657970">
						<ele>413</ele>
						<time>2025-08-13T10:00:19Z</time>
					</trkpt>
					<trkpt lat="45.771320" lon="4.658030">
						<ele>413</ele>
						<time>2025-08-13T10:00:21Z</time>
					</trkpt>
					<trkpt lat="45.771550" lon="4.659040">
						<ele>413</ele>
						<time>2025-08-13T10:00:34Z</time>
					</trkpt>
					<trkpt lat="45.771730" lon="4.659530">
						<ele>412</ele>
						<time>2025-08-13T10:00:41Z</time>
					</trkpt>
					<trkpt lat="45.772050" lon="4.660030">
						<ele>413</ele>
						<time>2025-08-13T10:00:49Z</time>
					</trkpt>
					<trkpt lat="45.772130" lon="4.660070">
						<ele>413</ele>
						<time>2025-08-13T10:00:51Z</time>
					</trkpt>
					<trkpt lat="45.772220" lon="4.660070">
						<ele>415</ele>
						<time>2025-08-13T10:00:52Z</time>
					</trkpt>
					<trkpt lat="45.773120" lon="4.659710">
						<ele>427</ele>
						<time>2025-08-13T10:01:09Z</time>
					</trkpt>
					<trkpt lat="45.773360" lon="4.659810">
						<ele>427</ele>
						<time>2025-08-13T10:01:13Z</time>
					</trkpt>
					<trkpt lat="45.773530" lon="4.660310">
						<ele>427</ele>
						<time>2025-08-13T10:01:20Z</time>
					</trkpt>
					<trkpt lat="45.773960" lon="4.661940">
						<ele>430</ele>
						<time>2025-08-13T10:01:42Z</time>
					</trkpt>
					<trkpt lat="45.774150" lon="4.662490">
						<ele>430</ele>
						<time>2025-08-13T10:01:50Z</time>
					</trkpt>
					<trkpt lat="45.774360" lon="4.662770">
						<ele>430</ele>
						<time>2025-08-13T10:01:55Z</time>
					</trkpt>
					<trkpt lat="45.774640" lon="4.662990">
						<ele>431</ele>
						<time>2025-08-13T10:02:00Z</time>
					</trkpt>
					<trkpt lat="45.774880" lon="4.663120">
						<ele>432</ele>
						<time>2025-08-13T10:02:05Z</time>
					</trkpt>
					<trkpt lat="45.775030" lon="4.663160">
						<ele>433</ele>
						<time>2025-08-13T10:02:08Z</time>
					</trkpt>
					<trkpt lat="45.775180" lon="4.663120">
						<ele>433</ele>
						<time>2025-08-13T10:02:10Z</time>
					</trkpt>
					<trkpt lat="45.775950" lon="4.662800">
						<ele>438</ele>
						<time>2025-08-13T10:02:25Z</time>
					</trkpt>
					<trkpt lat="45.776420" lon="4.662730">
						<ele>439</ele>
						<time>2025-08-13T10:02:33Z</time>
					</trkpt>
					<trkpt lat="45.776640" lon="4.662800">
						<ele>437</ele>
						<time>2025-08-13T10:02:37Z</time>
					</trkpt>
					<trkpt lat="45.776770" lon="4.662990">
						<ele>438</ele>
						<time>2025-08-13T10:02:40Z</time>
					</trkpt>
					<trkpt lat="45.776790" lon="4.663270">
						<ele>435</ele>
						<time>2025-08-13T10:02:44Z</time>
					</trkpt>
					<trkpt lat="45.776720" lon="4.664060">
						<ele>434</ele>
						<time>2025-08-13T10:02:54Z</time>
					</trkpt>
					<trkpt lat="45.776750" lon="4.664430">
						<ele>435</ele>
						<time>2025-08-13T10:02:58Z</time>
					</trkpt>
					<trkpt lat="45.777450" lon="4.667130">
						<ele>436</ele>
						<time>2025-08-13T10:03:34Z</time>
					</trkpt>
					<trkpt lat="45.777860" lon="4.668140">
						<ele>430</ele>
						<time>2025-08-13T10:03:49Z</time>
					</trkpt>
					<trkpt lat="45.778010" lon="4.668570">
						<ele>427</ele>
						<time>2025-08-13T10:03:55Z</time>
					</trkpt>
					<trkpt lat="45.778850" lon="4.668400">
						<ele>425</ele>
						<time>2025-08-13T10:04:10Z</time>
					</trkpt>
					<trkpt lat="45.779510" lon="4.668400">
						<ele>423</ele>
						<time>2025-08-13T10:04:21Z</time>
					</trkpt>
					<trkpt lat="45.780540" lon="4.668700">
						<ele>420</ele>
						<time>2025-08-13T10:04:40Z</time>
					</trkpt>
					<trkpt lat="45.780800" lon="4.668740">
						<ele>420</ele>
						<time>2025-08-13T10:04:45Z</time>
					</trkpt>
					<trkpt lat="45.781100" lon="4.668500">
						<ele>418</ele>
						<time>2025-08-13T10:04:51Z</time>
					</trkpt>
					<trkpt lat="45.781270" lon="4.668200">
						<ele>417</ele>
						<time>2025-08-13T10:04:56Z</time>
					</trkpt>
					<trkpt lat="45.781360" lon="4.667840">
						<ele>417</ele>
						<time>2025-08-13T10:05:00Z</time>
					</trkpt>
					<trkpt lat="45.781490" lon="4.666720">
						<ele>417</ele>
						<time>2025-08-13T10:05:14Z</time>
					</trkpt>
					<trkpt lat="45.781640" lon="4.666010">
						<ele>414</ele>
						<time>2025-08-13T10:05:24Z</time>
					</trkpt>
					<trkpt lat="45.781790" lon="4.665730">
						<ele>414</ele>
						<time>2025-08-13T10:05:28Z</time>
					</trkpt>
					<trkpt lat="45.781920" lon="4.665650">
						<ele>413</ele>
						<time>2025-08-13T10:05:31Z</time>
					</trkpt>
					<trkpt lat="45.781980" lon="4.665650">
						<ele>413</ele>
						<time>2025-08-13T10:05:32Z</time>
					</trkpt>
					<trkpt lat="45.782180" lon="4.665820">
						<ele>412</ele>
						<time>2025-08-13T10:05:36Z</time>
					</trkpt>
					<trkpt lat="45.782650" lon="4.666680">
						<ele>402</ele>
						<time>2025-08-13T10:05:49Z</time>
					</trkpt>
					<trkpt lat="45.782730" lon="4.666720">
						<ele>402</ele>
						<time>2025-08-13T10:05:51Z</time>
					</trkpt>
					<trkpt lat="45.782950" lon="4.666680">
						<ele>403</ele>
						<time>2025-08-13T10:05:55Z</time>
					</trkpt>
					<trkpt lat="45.783140" lon="4.666610">
						<ele>404</ele>
						<time>2025-08-13T10:05:58Z</time>
					</trkpt>
					<trkpt lat="45.783270" lon="4.666530">
						<ele>405</ele>
						<time>2025-08-13T10:06:01Z</time>
					</trkpt>
					<trkpt lat="45.783810" lon="4.665540">
						<ele>406</ele>
						<time>2025-08-13T10:06:16Z</time>
					</trkpt>
					<trkpt lat="45.784150" lon="4.665110">
						<ele>404</ele>
						<time>2025-08-13T10:06:24Z</time>
					</trkpt>
					<trkpt lat="45.785050" lon="4.664320">
						<ele>406</ele>
						<time>2025-08-13T10:06:43Z</time>
					</trkpt>
					<trkpt lat="45.785110" lon="4.664360">
						<ele>406</ele>
						<time>2025-08-13T10:06:44Z</time>
					</trkpt>
					<trkpt lat="45.785160" lon="4.664530">
						<ele>405</ele>
						<time>2025-08-13T10:06:47Z</time>
					</trkpt>
					<trkpt lat="45.785310" lon="4.665650">
						<ele>401</ele>
						<time>2025-08-13T10:07:01Z</time>
					</trkpt>
					<trkpt lat="45.785540" lon="4.666440">
						<ele>405</ele>
						<time>2025-08-13T10:07:11Z</time>
					</trkpt>
					<trkpt lat="45.785800" lon="4.667520">
						<ele>409</ele>
						<time>2025-08-13T10:07:26Z</time>
					</trkpt>
					<trkpt lat="45.786020" lon="4.668100">
						<ele>409</ele>
						<time>2025-08-13T10:07:34Z</time>
					</trkpt>
					<trkpt lat="45.786250" lon="4.668200">
						<ele>409</ele>
						<time>2025-08-13T10:07:38Z</time>
					</trkpt>
					<trkpt lat="45.786530" lon="4.668160">
						<ele>411</ele>
						<time>2025-08-13T10:07:43Z</time>
					</trkpt>
					<trkpt lat="45.787090" lon="4.667640">
						<ele>418</ele>
						<time>2025-08-13T10:07:55Z</time>
					</trkpt>
					<trkpt lat="45.787410" lon="4.667490">
						<ele>420</ele>
						<time>2025-08-13T10:08:01Z</time>
					</trkpt>
					<trkpt lat="45.787600" lon="4.667540">
						<ele>421</ele>
						<time>2025-08-13T10:08:04Z</time>
					</trkpt>
					<trkpt lat="45.787750" lon="4.667670">
						<ele>422</ele>
						<time>2025-08-13T10:08:08Z</time>
					</trkpt>
					<trkpt lat="45.788550" lon="4.668930">
						<ele>422</ele>
						<time>2025-08-13T10:08:29Z</time>
					</trkpt>
					<trkpt lat="45.788780" lon="4.669170">
						<ele>423</ele>
						<time>2025-08-13T10:08:34Z</time>
					</trkpt>
					<trkpt lat="45.788910" lon="4.669250">
						<ele>423</ele>
						<time>2025-08-13T10:08:36Z</time>
					</trkpt>
					<trkpt lat="45.789060" lon="4.669280">
						<ele>424</ele>
						<time>2025-08-13T10:08:39Z</time>
					</trkpt>
					<trkpt lat="45.789300" lon="4.669170">
						<ele>426</ele>
						<time>2025-08-13T10:08:43Z</time>
					</trkpt>
					<trkpt lat="45.789490" lon="4.668950">
						<ele>429</ele>
						<time>2025-08-13T10:08:48Z</time>
					</trkpt>
					<trkpt lat="45.789660" lon="4.668550">
						<ele>434</ele>
						<time>2025-08-13T10:08:54Z</time>
					</trkpt>
					<trkpt lat="45.789730" lon="4.668460">
						<ele>435</ele>
						<time>2025-08-13T10:08:55Z</time>
					</trkpt>
					<trkpt lat="45.789840" lon="4.668400">
						<ele>436</ele>
						<time>2025-08-13T10:08:57Z</time>
					</trkpt>
					<trkpt lat="45.789960" lon="4.668400">
						<ele>437</ele>
						<time>2025-08-13T10:08:59Z</time>
					</trkpt>
					<trkpt lat="45.790110" lon="4.668460">
						<ele>437</ele>
						<time>2025-08-13T10:09:02Z</time>
					</trkpt>
					<trkpt lat="45.790590" lon="4.669080">
						<ele>432</ele>
						<time>2025-08-13T10:09:14Z</time>
					</trkpt>
					<trkpt lat="45.790990" lon="4.669550">
						<ele>429</ele>
						<time>2025-08-13T10:09:23Z</time>
					</trkpt>
					<trkpt lat="45.791140" lon="4.669660">
						<ele>429</ele>
						<time>2025-08-13T10:09:26Z</time>
					</trkpt>
					<trkpt lat="45.791270" lon="4.669700">
						<ele>429</ele>
						<time>2025-08-13T10:09:28Z</time>
					</trkpt>
					<trkpt lat="45.791510" lon="4.669700">
						<ele>431</ele>
						<time>2025-08-13T10:09:33Z</time>
					</trkpt>
					<trkpt lat="45.791920" lon="4.669600">
						<ele>433</ele>
						<time>2025-08-13T10:09:40Z</time>
					</trkpt>
					<trkpt lat="45.792280" lon="4.669360">
						<ele>435</ele>
						<time>2025-08-13T10:09:47Z</time>
					</trkpt>
					<trkpt lat="45.792470" lon="4.669130">
						<ele>438</ele>
						<time>2025-08-13T10:09:51Z</time>
					</trkpt>
					<trkpt lat="45.792540" lon="4.668950">
						<ele>440</ele>
						<time>2025-08-13T10:09:54Z</time>
					</trkpt>
					<trkpt lat="45.792710" lon="4.667900">
						<ele>451</ele>
						<time>2025-08-13T10:10:07Z</time>
					</trkpt>
					<trkpt lat="45.792800" lon="4.667690">
						<ele>452</ele>
						<time>2025-08-13T10:10:10Z</time>
					</trkpt>
					<trkpt lat="45.792860" lon="4.667620">
						<ele>453</ele>
						<time>2025-08-13T10:10:12Z</time>
					</trkpt>
					<trkpt lat="45.792970" lon="4.667600">
						<ele>453</ele>
						<time>2025-08-13T10:10:14Z</time>
					</trkpt>
					<trkpt lat="45.793100" lon="4.667620">
						<ele>452</ele>
						<time>2025-08-13T10:10:16Z</time>
					</trkpt>
					<trkpt lat="45.793550" lon="4.667880">
						<ele>447</ele>
						<time>2025-08-13T10:10:25Z</time>
					</trkpt>
					<trkpt lat="45.793910" lon="4.667920">
						<ele>446</ele>
						<time>2025-08-13T10:10:31Z</time>
					</trkpt>
					<trkpt lat="45.794280" lon="4.667770">
						<ele>445</ele>
						<time>2025-08-13T10:10:38Z</time>
					</trkpt>
					<trkpt lat="45.794450" lon="4.667620">
						<ele>444</ele>
						<time>2025-08-13T10:10:42Z</time>
					</trkpt>
					<trkpt lat="45.794510" lon="4.667520">
						<ele>444</ele>
						<time>2025-08-13T10:10:43Z</time>
					</trkpt>
					<trkpt lat="45.794580" lon="4.667170">
						<ele>444</ele>
						<time>2025-08-13T10:10:48Z</time>
					</trkpt>
					<trkpt lat="45.794600" lon="4.666550">
						<ele>447</ele>
						<time>2025-08-13T10:10:55Z</time>
					</trkpt>
					<trkpt lat="45.794730" lon="4.666060">
						<ele>449</ele>
						<time>2025-08-13T10:11:02Z</time>
					</trkpt>
					<trkpt lat="45.794960" lon="4.665610">
						<ele>449</ele>
						<time>2025-08-13T10:11:09Z</time>
					</trkpt>
					<trkpt lat="45.795200" lon="4.665330">
						<ele>448</ele>
						<time>2025-08-13T10:11:14Z</time>
					</trkpt>
					<trkpt lat="45.795610" lon="4.665310">
						<ele>440</ele>
						<time>2025-08-13T10:11:22Z</time>
					</trkpt>
					<trkpt lat="45.795780" lon="4.665130">
						<ele>439</ele>
						<time>2025-08-13T10:11:25Z</time>
					</trkpt>
					<trkpt lat="45.796120" lon="4.664880">
						<ele>435</ele>
						<time>2025-08-13T10:11:32Z</time>
					</trkpt>
					<trkpt lat="45.796320" lon="4.664530">
						<ele>434</ele>
						<time>2025-08-13T10:11:38Z</time>
					</trkpt>
					<trkpt lat="45.796400" lon="4.664130">
						<ele>435</ele>
						<time>2025-08-13T10:11:43Z</time>
					</trkpt>
					<trkpt lat="45.796470" lon="4.663500">
						<ele>437</ele>
						<time>2025-08-13T10:11:51Z</time>
					</trkpt>
					<trkpt lat="45.796530" lon="4.663330">
						<ele>437</ele>
						<time>2025-08-13T10:11:53Z</time>
					</trkpt>
					<trkpt lat="45.796680" lon="4.663250">
						<ele>435</ele>
						<time>2025-08-13T10:11:56Z</time>
					</trkpt>
					<trkpt lat="45.796920" lon="4.663310">
						<ele>432</ele>
						<time>2025-08-13T10:12:00Z</time>
					</trkpt>
					<trkpt lat="45.797130" lon="4.663460">
						<ele>429</ele>
						<time>2025-08-13T10:12:05Z</time>
					</trkpt>
					<trkpt lat="45.797280" lon="4.663480">
						<ele>427</ele>
						<time>2025-08-13T10:12:07Z</time>
					</trkpt>
					<trkpt lat="45.797430" lon="4.663370">
						<ele>427</ele>
						<time>2025-08-13T10:12:10Z</time>
					</trkpt>
					<trkpt lat="45.797840" lon="4.662560">
						<ele>432</ele>
						<time>2025-08-13T10:12:23Z</time>
					</trkpt>
					<trkpt lat="45.797970" lon="4.662370">
						<ele>432</ele>
						<time>2025-08-13T10:12:26Z</time>
					</trkpt>
					<trkpt lat="45.798330" lon="4.661960">
						<ele>429</ele>
						<time>2025-08-13T10:12:34Z</time>
					</trkpt>
					<trkpt lat="45.798570" lon="4.661740">
						<ele>427</ele>
						<time>2025-08-13T10:12:39Z</time>
					</trkpt>
					<trkpt lat="45.799040" lon="4.661380">
						<ele>423</ele>
						<time>2025-08-13T10:12:49Z</time>
					</trkpt>
					<trkpt lat="45.799230" lon="4.661140">
						<ele>423</ele>
						<time>2025-08-13T10:12:53Z</time>
					</trkpt>
					<trkpt lat="45.799410" lon="4.660520">
						<ele>425</ele>
						<time>2025-08-13T10:13:02Z</time>
					</trkpt>
					<trkpt lat="45.799490" lon="4.660410">
						<ele>425</ele>
						<time>2025-08-13T10:13:04Z</time>
					</trkpt>
					<trkpt lat="45.799640" lon="4.660410">
						<ele>424</ele>
						<time>2025-08-13T10:13:06Z</time>
					</trkpt>
					<trkpt lat="45.800050" lon="4.660760">
						<ele>419</ele>
						<time>2025-08-13T10:13:15Z</time>
					</trkpt>
					<trkpt lat="45.800290" lon="4.660910">
						<ele>415</ele>
						<time>2025-08-13T10:13:19Z</time>
					</trkpt>
					<trkpt lat="45.800590" lon="4.660840">
						<ele>412</ele>
						<time>2025-08-13T10:13:25Z</time>
					</trkpt>
					<trkpt lat="45.801010" lon="4.660560">
						<ele>408</ele>
						<time>2025-08-13T10:13:33Z</time>
					</trkpt>
					<trkpt lat="45.801210" lon="4.660240">
						<ele>408</ele>
						<time>2025-08-13T10:13:38Z</time>
					</trkpt>
					<trkpt lat="45.801400" lon="4.659830">
						<ele>411</ele>
						<time>2025-08-13T10:13:44Z</time>
					</trkpt>
					<trkpt lat="45.801550" lon="4.659640">
						<ele>412</ele>
						<time>2025-08-13T10:13:48Z</time>
					</trkpt>
					<trkpt lat="45.801700" lon="4.659600">
						<ele>412</ele>
						<time>2025-08-13T10:13:51Z</time>
					</trkpt>
					<trkpt lat="45.801940" lon="4.659750">
						<ele>411</ele>
						<time>2025-08-13T10:13:55Z</time>
					</trkpt>
					<trkpt lat="45.802450" lon="4.660760">
						<ele>399</ele>
						<time>2025-08-13T10:14:11Z</time>
					</trkpt>
					<trkpt lat="45.803030" lon="4.661340">
						<ele>395</ele>
						<time>2025-08-13T10:14:23Z</time>
					</trkpt>
					<trkpt lat="45.803440" lon="4.661890">
						<ele>390</ele>
						<time>2025-08-13T10:14:33Z</time>
					</trkpt>
					<trkpt lat="45.803590" lon="4.662220">
						<ele>387</ele>
						<time>2025-08-13T10:14:38Z</time>
					</trkpt>
					<trkpt lat="45.803700" lon="4.662560">
						<ele>385</ele>
						<time>2025-08-13T10:14:43Z</time>
					</trkpt>
					<trkpt lat="45.803720" lon="4.663050">
						<ele>383</ele>
						<time>2025-08-13T10:14:49Z</time>
					</trkpt>
					<trkpt lat="45.803800" lon="4.663480">
						<ele>381</ele>
						<time>2025-08-13T10:14:55Z</time>
					</trkpt>
					<trkpt lat="45.803870" lon="4.663700">
						<ele>380</ele>
						<time>2025-08-13T10:14:58Z</time>
					</trkpt>
					<trkpt lat="45.804040" lon="4.663980">
						<ele>380</ele>
						<time>2025-08-13T10:15:02Z</time>
					</trkpt>
					<trkpt lat="45.804130" lon="4.664060">
						<ele>380</ele>
						<time>2025-08-13T10:15:04Z</time>
					</trkpt>
					<trkpt lat="45.805240" lon="4.664620">
						<ele>377</ele>
						<time>2025-08-13T10:15:25Z</time>
					</trkpt>
					<trkpt lat="45.806290" lon="4.664620">
						<ele>374</ele>
						<time>2025-08-13T10:15:44Z</time>
					</trkpt>
					<trkpt lat="45.806510" lon="4.664700">
						<ele>374</ele>
						<time>2025-08-13T10:15:48Z</time>
					</trkpt>
					<trkpt lat="45.806620" lon="4.664810">
						<ele>373</ele>
						<time>2025-08-13T10:15:50Z</time>
					</trkpt>
					<trkpt lat="45.806720" lon="4.664770">
						<ele>373</ele>
						<time>2025-08-13T10:15:52Z</time>
					</trkpt>
					<trkpt lat="45.806770" lon="4.664660">
						<ele>373</ele>
						<time>2025-08-13T10:15:54Z</time>
					</trkpt>
					<trkpt lat="45.806740" lon="4.664530">
						<ele>374</ele>
						<time>2025-08-13T10:15:55Z</time>
					</trkpt>
					<trkpt lat="45.806680" lon="4.664450">
						<ele>374</ele>
						<time>2025-08-13T10:15:57Z</time>
					</trkpt>
					<trkpt lat="45.806080" lon="4.662430">
						<ele>382</ele>
						<time>2025-08-13T10:16:24Z</time>
					</trkpt>
					<trkpt lat="45.805540" lon="4.660480">
						<ele>386</ele>
						<time>2025-08-13T10:16:50Z</time>
					</trkpt>
					<trkpt lat="45.805440" lon="4.660010">
						<ele>386</ele>
						<time>2025-08-13T10:16:56Z</time>
					</trkpt>
					<trkpt lat="45.805310" lon="4.658310">
						<ele>390</ele>
						<time>2025-08-13T10:17:17Z</time>
					</trkpt>
					<trkpt lat="45.805030" lon="4.656620">
						<ele>387</ele>
						<time>2025-08-13T10:17:39Z</time>
					</trkpt>
					<trkpt lat="45.805010" lon="4.656040">
						<ele>387</ele>
						<time>2025-08-13T10:17:46Z</time>
					</trkpt>
					<trkpt lat="45.805030" lon="4.655350">
						<ele>387</ele>
						<time>2025-08-13T10:17:55Z</time>
					</trkpt>
					<trkpt lat="45.805290" lon="4.653830">
						<ele>392</ele>
						<time>2025-08-13T10:18:14Z</time>
					</trkpt>
					<trkpt lat="45.805330" lon="4.652900">
						<ele>394</ele>
						<time>2025-08-13T10:18:26Z</time>
					</trkpt>
					<trkpt lat="45.805330" lon="4.652430">
						<ele>394</ele>
						<time>2025-08-13T10:18:31Z</time>
					</trkpt>
					<trkpt lat="45.804980" lon="4.646640">
						<ele>405</ele>
						<time>2025-08-13T10:19:43Z</time>
					</trkpt>
					<trkpt lat="45.805010" lon="4.646230">
						<ele>404</ele>
						<time>2025-08-13T10:19:49Z</time>
					</trkpt>
					<trkpt lat="45.805110" lon="4.645740">
						<ele>402</ele>
						<time>2025-08-13T10:19:55Z</time>
					</trkpt>
					<trkpt lat="45.805460" lon="4.644560">
						<ele>400</ele>
						<time>2025-08-13T10:20:11Z</time>
					</trkpt>
					<trkpt lat="45.805710" lon="4.643910">
						<ele>398</ele>
						<time>2025-08-13T10:20:20Z</time>
					</trkpt>
					<trkpt lat="45.806140" lon="4.642990">
						<ele>396</ele>
						<time>2025-08-13T10:20:34Z</time>
					</trkpt>
					<trkpt lat="45.806290" lon="4.642580">
						<ele>396</ele>
						<time>2025-08-13T10:20:40Z</time>
					</trkpt>
					<trkpt lat="45.806360" lon="4.642240">
						<ele>396</ele>
						<time>2025-08-13T10:20:44Z</time>
					</trkpt>
					<trkpt lat="45.806380" lon="4.641830">
						<ele>395</ele>
						<time>2025-08-13T10:20:49Z</time>
					</trkpt>
					<trkpt lat="45.806340" lon="4.641530">
						<ele>395</ele>
						<time>2025-08-13T10:20:53Z</time>
					</trkpt>
					<trkpt lat="45.806620" lon="4.641440">
						<ele>395</ele>
						<time>2025-08-13T10:20:58Z</time>
					</trkpt>
					<trkpt lat="45.806850" lon="4.641570">
						<ele>395</ele>
						<time>2025-08-13T10:21:02Z</time>
					</trkpt>
					<trkpt lat="45.807000" lon="4.641900">
						<ele>394</ele>
						<time>2025-08-13T10:21:07Z</time>
					</trkpt>
					<trkpt lat="45.807070" lon="4.641980">
						<ele>393</ele>
						<time>2025-08-13T10:21:09Z</time>
					</trkpt>
					<trkpt lat="45.807240" lon="4.642050">
						<ele>393</ele>
						<time>2025-08-13T10:21:12Z</time>
					</trkpt>
					<trkpt lat="45.808530" lon="4.642110">
						<ele>389</ele>
						<time>2025-08-13T10:21:35Z</time>
					</trkpt>
					<trkpt lat="45.809210" lon="4.641900">
						<ele>389</ele>
						<time>2025-08-13T10:21:47Z</time>
					</trkpt>
					<trkpt lat="45.809430" lon="4.641770">
						<ele>390</ele>
						<time>2025-08-13T10:21:52Z</time>
					</trkpt>
					<trkpt lat="45.809730" lon="4.641470">
						<ele>392</ele>
						<time>2025-08-13T10:21:58Z</time>
					</trkpt>
					<trkpt lat="45.809940" lon="4.641190">
						<ele>394</ele>
						<time>2025-08-13T10:22:03Z</time>
					</trkpt>
					<trkpt lat="45.810240" lon="4.640480">
						<ele>395</ele>
						<time>2025-08-13T10:22:13Z</time>
					</trkpt>
					<trkpt lat="45.810930" lon="4.639020">
						<ele>389</ele>
						<time>2025-08-13T10:22:35Z</time>
					</trkpt>
					<trkpt lat="45.811360" lon="4.638660">
						<ele>389</ele>
						<time>2025-08-13T10:22:44Z</time>
					</trkpt>
					<trkpt lat="45.811640" lon="4.638530">
						<ele>389</ele>
						<time>2025-08-13T10:22:49Z</time>
					</trkpt>
					<trkpt lat="45.811830" lon="4.638590">
						<ele>390</ele>
						<time>2025-08-13T10:22:53Z</time>
					</trkpt>
					<trkpt lat="45.813050" lon="4.639660">
						<ele>388</ele>
						<time>2025-08-13T10:23:18Z</time>
					</trkpt>
					<trkpt lat="45.813440" lon="4.639900">
						<ele>389</ele>
						<time>2025-08-13T10:23:26Z</time>
					</trkpt>
					<trkpt lat="45.814250" lon="4.640290">
						<ele>385</ele>
						<time>2025-08-13T10:23:41Z</time>
					</trkpt>
					<trkpt lat="45.814680" lon="4.640350">
						<ele>382</ele>
						<time>2025-08-13T10:23:49Z</time>
					</trkpt>
					<trkpt lat="45.815180" lon="4.640260">
						<ele>385</ele>
						<time>2025-08-13T10:23:58Z</time>
					</trkpt>
					<trkpt lat="45.815430" lon="4.640410">
						<ele>388</ele>
						<time>2025-08-13T10:24:03Z</time>
					</trkpt>
					<trkpt lat="45.815560" lon="4.640610">
						<ele>389</ele>
						<time>2025-08-13T10:24:06Z</time>
					</trkpt>
					<trkpt lat="45.815910" lon="4.642280">
						<ele>389</ele>
						<time>2025-08-13T10:24:28Z</time>
					</trkpt>
					<trkpt lat="45.816010" lon="4.642500">
						<ele>390</ele>
						<time>2025-08-13T10:24:31Z</time>
					</trkpt>
					<trkpt lat="45.816160" lon="4.642690">
						<ele>389</ele>
						<time>2025-08-13T10:24:34Z</time>
					</trkpt>
					<trkpt lat="45.816570" lon="4.642990">
						<ele>390</ele>
						<time>2025-08-13T10:24:43Z</time>
					</trkpt>
					<trkpt lat="45.816740" lon="4.643050">
						<ele>390</ele>
						<time>2025-08-13T10:24:46Z</time>
					</trkpt>
					<trkpt lat="45.818500" lon="4.642860">
						<ele>394</ele>
						<time>2025-08-13T10:25:17Z</time>
					</trkpt>
					<trkpt lat="45.818800" lon="4.642710">
						<ele>394</ele>
						<time>2025-08-13T10:25:23Z</time>
					</trkpt>
					<trkpt lat="45.819060" lon="4.642450">
						<ele>395</ele>
						<time>2025-08-13T10:25:28Z</time>
					</trkpt>
					<trkpt lat="45.819400" lon="4.641620">
						<ele>398</ele>
						<time>2025-08-13T10:25:40Z</time>
					</trkpt>
					<trkpt lat="45.820200" lon="4.640410">
						<ele>398</ele>
						<time>2025-08-13T10:26:01Z</time>
					</trkpt>
					<trkpt lat="45.820520" lon="4.639710">
						<ele>398</ele>
						<time>2025-08-13T10:26:11Z</time>
					</trkpt>
					<trkpt lat="45.820690" lon="4.638740">
						<ele>396</ele>
						<time>2025-08-13T10:26:24Z</time>
					</trkpt>
					<trkpt lat="45.820690" lon="4.638290">
						<ele>395</ele>
						<time>2025-08-13T10:26:29Z</time>
					</trkpt>
					<trkpt lat="45.820460" lon="4.637350">
						<ele>392</ele>
						<time>2025-08-13T10:26:42Z</time>
					</trkpt>
					<trkpt lat="45.820310" lon="4.635930">
						<ele>383</ele>
						<time>2025-08-13T10:27:00Z</time>
					</trkpt>
					<trkpt lat="45.820070" lon="4.634730">
						<ele>377</ele>
						<time>2025-08-13T10:27:15Z</time>
					</trkpt>
					<trkpt lat="45.820090" lon="4.634280">
						<ele>375</ele>
						<time>2025-08-13T10:27:21Z</time>
					</trkpt>
					<trkpt lat="45.820180" lon="4.633660">
						<ele>376</ele>
						<time>2025-08-13T10:27:28Z</time>
					</trkpt>
					<trkpt lat="45.820310" lon="4.633290">
						<ele>378</ele>
						<time>2025-08-13T10:27:34Z</time>
					</trkpt>
					<trkpt lat="45.820390" lon="4.633160">
						<ele>379</ele>
						<time>2025-08-13T10:27:36Z</time>
					</trkpt>
					<trkpt lat="45.820610" lon="4.632990">
						<ele>379</ele>
						<time>2025-08-13T10:27:40Z</time>
					</trkpt>
					<trkpt lat="45.821080" lon="4.632820">
						<ele>377</ele>
						<time>2025-08-13T10:27:49Z</time>
					</trkpt>
					<trkpt lat="45.821440" lon="4.632630">
						<ele>377</ele>
						<time>2025-08-13T10:27:56Z</time>
					</trkpt>
					<trkpt lat="45.821660" lon="4.632430">
						<ele>376</ele>
						<time>2025-08-13T10:28:00Z</time>
					</trkpt>
					<trkpt lat="45.821870" lon="4.632090">
						<ele>376</ele>
						<time>2025-08-13T10:28:06Z</time>
					</trkpt>
					<trkpt lat="45.821960" lon="4.631770">
						<ele>376</ele>
						<time>2025-08-13T10:28:10Z</time>
					</trkpt>
					<trkpt lat="45.822060" lon="4.630990">
						<ele>376</ele>
						<time>2025-08-13T10:28:20Z</time>
					</trkpt>
					<trkpt lat="45.822130" lon="4.630760">
						<ele>376</ele>
						<time>2025-08-13T10:28:23Z</time>
					</trkpt>
					<trkpt lat="45.822560" lon="4.630070">
						<ele>376</ele>
						<time>2025-08-13T10:28:35Z</time>
					</trkpt>
					<trkpt lat="45.822690" lon="4.629940">
						<ele>374</ele>
						<time>2025-08-13T10:28:37Z</time>
					</trkpt>
					<trkpt lat="45.823590" lon="4.629560">
						<ele>358</ele>
						<time>2025-08-13T10:28:54Z</time>
					</trkpt>
					<trkpt lat="45.824230" lon="4.629150">
						<ele>349</ele>
						<time>2025-08-13T10:29:07Z</time>
					</trkpt>
					<trkpt lat="45.824400" lon="4.628930">
						<ele>347</ele>
						<time>2025-08-13T10:29:11Z</time>
					</trkpt>
					<trkpt lat="45.825300" lon="4.627180">
						<ele>334</ele>
						<time>2025-08-13T10:29:38Z</time>
					</trkpt>
					<trkpt lat="45.825970" lon="4.625500">
						<ele>322</ele>
						<time>2025-08-13T10:30:02Z</time>
					</trkpt>
					<trkpt lat="45.826380" lon="4.624730">
						<ele>315</ele>
						<time>2025-08-13T10:30:14Z</time>
					</trkpt>
					<trkpt lat="45.826870" lon="4.622880">
						<ele>309</ele>
						<time>2025-08-13T10:30:38Z</time>
					</trkpt>
					<trkpt lat="45.827000" lon="4.622520">
						<ele>308</ele>
						<time>2025-08-13T10:30:43Z</time>
					</trkpt>
					<trkpt lat="45.827600" lon="4.621660">
						<ele>301</ele>
						<time>2025-08-13T10:30:58Z</time>
					</trkpt>
					<trkpt lat="45.827940" lon="4.621230">
						<ele>297</ele>
						<time>2025-08-13T10:31:06Z</time>
					</trkpt>
					<trkpt lat="45.828670" lon="4.620220">
						<ele>287</ele>
						<time>2025-08-13T10:31:24Z</time>
					</trkpt>
					<trkpt lat="45.829170" lon="4.619620">
						<ele>281</ele>
						<time>2025-08-13T10:31:36Z</time>
					</trkpt>
					<trkpt lat="45.829790" lon="4.618760">
						<ele>272</ele>
						<time>2025-08-13T10:31:51Z</time>
					</trkpt>
					<trkpt lat="45.829850" lon="4.618530">
						<ele>271</ele>
						<time>2025-08-13T10:31:54Z</time>
					</trkpt>
					<trkpt lat="45.829830" lon="4.618160">
						<ele>269</ele>
						<time>2025-08-13T10:31:59Z</time>
					</trkpt>
					<trkpt lat="45.829770" lon="4.617950">
						<ele>266</ele>
						<time>2025-08-13T10:32:02Z</time>
					</trkpt>
					<trkpt lat="45.829580" lon="4.617630">
						<ele>263</ele>
						<time>2025-08-13T10:32:07Z</time>
					</trkpt>
					<trkpt lat="45.829490" lon="4.617540">
						<ele>262</ele>
						<time>2025-08-13T10:32:09Z</time>
					</trkpt>
					<trkpt lat="45.829210" lon="4.617370">
						<ele>259</ele>
						<time>2025-08-13T10:32:14Z</time>
					</trkpt>
					<trkpt lat="45.828720" lon="4.617220">
						<ele>256</ele>
						<time>2025-08-13T10:32:23Z</time>
					</trkpt>
					<trkpt lat="45.828550" lon="4.617030">
						<ele>254</ele>
						<time>2025-08-13T10:32:27Z</time>
					</trkpt>
					<trkpt lat="45.828460" lon="4.616880">
						<ele>253</ele>
						<time>2025-08-13T10:32:30Z</time>
					</trkpt>
					<trkpt lat="45.828220" lon="4.616100">
						<ele>246</ele>
						<time>2025-08-13T10:32:40Z</time>
					</trkpt>
					<trkpt lat="45.828070" lon="4.615820">
						<ele>244</ele>
						<time>2025-08-13T10:32:45Z</time>
					</trkpt>
					<trkpt lat="45.827490" lon="4.615350">
						<ele>244</ele>
						<time>2025-08-13T10:32:56Z</time>
					</trkpt>
					<trkpt lat="45.827170" lon="4.614860">
						<ele>241</ele>
						<time>2025-08-13T10:33:05Z</time>
					</trkpt>
					<trkpt lat="45.827060" lon="4.614490">
						<ele>239</ele>
						<time>2025-08-13T10:33:10Z</time>
					</trkpt>
					<trkpt lat="45.827040" lon="4.613960">
						<ele>236</ele>
						<time>2025-08-13T10:33:16Z</time>
					</trkpt>
					<trkpt lat="45.827090" lon="4.613360">
						<ele>233</ele>
						<time>2025-08-13T10:33:24Z</time>
					</trkpt>
					<trkpt lat="45.827090" lon="4.613080">
						<ele>231</ele>
						<time>2025-08-13T10:33:27Z</time>
					</trkpt>
					<trkpt lat="45.826760" lon="4.612240">
						<ele>230</ele>
						<time>2025-08-13T10:33:39Z</time>
					</trkpt>
					<trkpt lat="45.826700" lon="4.611880">
						<ele>229</ele>
						<time>2025-08-13T10:33:44Z</time>
					</trkpt>
					<trkpt lat="45.826740" lon="4.611640">
						<ele>229</ele>
						<time>2025-08-13T10:33:47Z</time>
					</trkpt>
					<trkpt lat="45.827020" lon="4.610870">
						<ele>228</ele>
						<time>2025-08-13T10:33:58Z</time>
					</trkpt>
					<trkpt lat="45.826510" lon="4.610420">
						<ele>228</ele>
						<time>2025-08-13T10:34:08Z</time>
					</trkpt>
					<trkpt lat="45.826330" lon="4.610220">
						<ele>228</ele>
						<time>2025-08-13T10:34:12Z</time>
					</trkpt>
					<trkpt lat="45.825520" lon="4.608610">
						<ele>229</ele>
						<time>2025-08-13T10:34:37Z</time>
					</trkpt>
					<trkpt lat="45.825520" lon="4.608510">
						<ele>229</ele>
						<time>2025-08-13T10:34:38Z</time>
					</trkpt>
					<trkpt lat="45.825480" lon="4.608420">
						<ele>229</ele>
						<time>2025-08-13T10:34:39Z</time>
					</trkpt>
					<trkpt lat="45.825370" lon="4.608340">
						<ele>230</ele>
						<time>2025-08-13T10:34:42Z</time>
					</trkpt>
					<trkpt lat="45.825310" lon="4.608380">
						<ele>230</ele>
						<time>2025-08-13T10:34:43Z</time>
					</trkpt>
					<trkpt lat="45.825280" lon="4.608440">
						<ele>230</ele>
						<time>2025-08-13T10:34:44Z</time>
					</trkpt>
					<trkpt lat="45.825430" lon="4.608640">
						<ele>229</ele>
						<time>2025-08-13T10:34:47Z</time>
					</trkpt>
					<trkpt lat="45.825500" lon="4.608620">
						<ele>229</ele>
						<time>2025-08-13T10:34:49Z</time>
					</trkpt>
					</trkseg>
				</trk>
			</gpx>